<?xml version="1.0" encoding="UTF-8" standalone="no" ?>
<gpx xmlns="http://www.topografix.com/GPX/1/1" xmlns:xsi="http://www.w3.org/2001/XMLSchema-instance" xsi:schemaLocation="http://www.topografix.com/GPX/1/1 http://www.topografix.com/GPX/1/1/gpx.xsd" version="1.1" creator="VisuGPX - https://www.visugpx.com">
  <metadata>
    <name>Créon sud difficile</name>
    <desc><![CDATA[Randonnée VTT]]></desc>
  </metadata>
  <trk>
    <name><![CDATA[Creon sud difficile]]></name>
    <trkseg>
      <trkpt lat="44.77628" lon="-0.34863">
        <ele>100</ele>
        <time>2013-11-24T12:39:46Z</time>
      </trkpt>
      <trkpt lat="44.77628" lon="-0.34857">
        <ele>100</ele>
        <time>2013-11-24T12:39:49Z</time>
      </trkpt>
      <trkpt lat="44.77629" lon="-0.34836">
        <ele>101</ele>
        <time>2013-11-24T12:39:58Z</time>
      </trkpt>
      <trkpt lat="44.7763" lon="-0.34817">
        <ele>101</ele>
        <time>2013-11-24T12:40:06Z</time>
      </trkpt>
      <trkpt lat="44.77631" lon="-0.34798">
        <ele>101</ele>
        <time>2013-11-24T12:40:12Z</time>
      </trkpt>
      <trkpt lat="44.77629" lon="-0.34774">
        <ele>101</ele>
        <time>2013-11-24T12:40:19Z</time>
      </trkpt>
      <trkpt lat="44.77626" lon="-0.34748">
        <ele>102</ele>
        <time>2013-11-24T12:40:26Z</time>
      </trkpt>
      <trkpt lat="44.77621" lon="-0.34714">
        <ele>102</ele>
        <time>2013-11-24T12:40:35Z</time>
      </trkpt>
      <trkpt lat="44.77615" lon="-0.34696">
        <ele>103</ele>
        <time>2013-11-24T12:40:40Z</time>
      </trkpt>
      <trkpt lat="44.7759" lon="-0.34664">
        <ele>103</ele>
        <time>2013-11-24T12:40:49Z</time>
      </trkpt>
      <trkpt lat="44.77583" lon="-0.34659">
        <ele>103</ele>
        <time>2013-11-24T12:40:51Z</time>
      </trkpt>
      <trkpt lat="44.77576" lon="-0.34653">
        <ele>104</ele>
        <time>2013-11-24T12:40:53Z</time>
      </trkpt>
      <trkpt lat="44.77573" lon="-0.34649">
        <ele>104</ele>
        <time>2013-11-24T12:40:54Z</time>
      </trkpt>
      <trkpt lat="44.77573" lon="-0.34643">
        <ele>104</ele>
        <time>2013-11-24T12:40:55Z</time>
      </trkpt>
      <trkpt lat="44.77574" lon="-0.34637">
        <ele>104</ele>
        <time>2013-11-24T12:40:56Z</time>
      </trkpt>
      <trkpt lat="44.77577" lon="-0.34633">
        <ele>104</ele>
        <time>2013-11-24T12:40:57Z</time>
      </trkpt>
      <trkpt lat="44.7758" lon="-0.34631">
        <ele>104</ele>
        <time>2013-11-24T12:40:58Z</time>
      </trkpt>
      <trkpt lat="44.77584" lon="-0.3463">
        <ele>104</ele>
        <time>2013-11-24T12:40:59Z</time>
      </trkpt>
      <trkpt lat="44.77588" lon="-0.34628">
        <ele>104</ele>
        <time>2013-11-24T12:41:00Z</time>
      </trkpt>
      <trkpt lat="44.77591" lon="-0.34626">
        <ele>104</ele>
        <time>2013-11-24T12:41:01Z</time>
      </trkpt>
      <trkpt lat="44.77595" lon="-0.34624">
        <ele>104</ele>
        <time>2013-11-24T12:41:02Z</time>
      </trkpt>
      <trkpt lat="44.77598" lon="-0.3462">
        <ele>104</ele>
        <time>2013-11-24T12:41:03Z</time>
      </trkpt>
      <trkpt lat="44.77602" lon="-0.34617">
        <ele>104</ele>
        <time>2013-11-24T12:41:04Z</time>
      </trkpt>
      <trkpt lat="44.77619" lon="-0.34596">
        <ele>104</ele>
        <time>2013-11-24T12:41:09Z</time>
      </trkpt>
      <trkpt lat="44.77621" lon="-0.34591">
        <ele>104</ele>
        <time>2013-11-24T12:41:10Z</time>
      </trkpt>
      <trkpt lat="44.77634" lon="-0.34558">
        <ele>104</ele>
        <time>2013-11-24T12:41:16Z</time>
      </trkpt>
      <trkpt lat="44.77637" lon="-0.34545">
        <ele>104</ele>
        <time>2013-11-24T12:41:18Z</time>
      </trkpt>
      <trkpt lat="44.77649" lon="-0.3448">
        <ele>104</ele>
        <time>2013-11-24T12:41:26Z</time>
      </trkpt>
      <trkpt lat="44.77659" lon="-0.34429">
        <ele>102</ele>
        <time>2013-11-24T12:41:32Z</time>
      </trkpt>
      <trkpt lat="44.77661" lon="-0.34421">
        <ele>102</ele>
        <time>2013-11-24T12:41:33Z</time>
      </trkpt>
      <trkpt lat="44.77683" lon="-0.34354">
        <ele>98</ele>
        <time>2013-11-24T12:41:42Z</time>
      </trkpt>
      <trkpt lat="44.77712" lon="-0.34289">
        <ele>102</ele>
        <time>2013-11-24T12:41:52Z</time>
      </trkpt>
      <trkpt lat="44.77723" lon="-0.34266">
        <ele>102</ele>
        <time>2013-11-24T12:41:56Z</time>
      </trkpt>
      <trkpt lat="44.77724" lon="-0.34259">
        <ele>102</ele>
        <time>2013-11-24T12:41:57Z</time>
      </trkpt>
      <trkpt lat="44.77724" lon="-0.34253">
        <ele>102</ele>
        <time>2013-11-24T12:41:58Z</time>
      </trkpt>
      <trkpt lat="44.77722" lon="-0.34247">
        <ele>102</ele>
        <time>2013-11-24T12:41:59Z</time>
      </trkpt>
      <trkpt lat="44.7772" lon="-0.34244">
        <ele>102</ele>
        <time>2013-11-24T12:42:00Z</time>
      </trkpt>
      <trkpt lat="44.77717" lon="-0.34241">
        <ele>102</ele>
        <time>2013-11-24T12:42:01Z</time>
      </trkpt>
      <trkpt lat="44.77714" lon="-0.3424">
        <ele>102</ele>
        <time>2013-11-24T12:42:02Z</time>
      </trkpt>
      <trkpt lat="44.77711" lon="-0.34238">
        <ele>102</ele>
        <time>2013-11-24T12:42:03Z</time>
      </trkpt>
      <trkpt lat="44.77685" lon="-0.34223">
        <ele>103</ele>
        <time>2013-11-24T12:42:11Z</time>
      </trkpt>
      <trkpt lat="44.77674" lon="-0.34217">
        <ele>103</ele>
        <time>2013-11-24T12:42:14Z</time>
      </trkpt>
      <trkpt lat="44.77671" lon="-0.34215">
        <ele>104</ele>
        <time>2013-11-24T12:42:15Z</time>
      </trkpt>
      <trkpt lat="44.77667" lon="-0.34213">
        <ele>104</ele>
        <time>2013-11-24T12:42:16Z</time>
      </trkpt>
      <trkpt lat="44.77643" lon="-0.34197">
        <ele>104</ele>
        <time>2013-11-24T12:42:23Z</time>
      </trkpt>
      <trkpt lat="44.7763" lon="-0.34191">
        <ele>104</ele>
        <time>2013-11-24T12:42:26Z</time>
      </trkpt>
      <trkpt lat="44.77612" lon="-0.34182">
        <ele>105</ele>
        <time>2013-11-24T12:42:31Z</time>
      </trkpt>
      <trkpt lat="44.77593" lon="-0.34172">
        <ele>105</ele>
        <time>2013-11-24T12:42:37Z</time>
      </trkpt>
      <trkpt lat="44.77579" lon="-0.34166">
        <ele>105</ele>
        <time>2013-11-24T12:42:42Z</time>
      </trkpt>
      <trkpt lat="44.77577" lon="-0.34167">
        <ele>105</ele>
        <time>2013-11-24T12:42:43Z</time>
      </trkpt>
      <trkpt lat="44.77575" lon="-0.3417">
        <ele>105</ele>
        <time>2013-11-24T12:42:44Z</time>
      </trkpt>
      <trkpt lat="44.77574" lon="-0.34173">
        <ele>105</ele>
        <time>2013-11-24T12:42:45Z</time>
      </trkpt>
      <trkpt lat="44.77573" lon="-0.34176">
        <ele>105</ele>
        <time>2013-11-24T12:42:46Z</time>
      </trkpt>
      <trkpt lat="44.77573" lon="-0.3418">
        <ele>105</ele>
        <time>2013-11-24T12:42:47Z</time>
      </trkpt>
      <trkpt lat="44.77572" lon="-0.34183">
        <ele>105</ele>
        <time>2013-11-24T12:42:48Z</time>
      </trkpt>
      <trkpt lat="44.77571" lon="-0.34187">
        <ele>105</ele>
        <time>2013-11-24T12:42:49Z</time>
      </trkpt>
      <trkpt lat="44.7757" lon="-0.34191">
        <ele>104</ele>
        <time>2013-11-24T12:42:50Z</time>
      </trkpt>
      <trkpt lat="44.77569" lon="-0.34195">
        <ele>104</ele>
        <time>2013-11-24T12:42:51Z</time>
      </trkpt>
      <trkpt lat="44.77568" lon="-0.34199">
        <ele>104</ele>
        <time>2013-11-24T12:42:52Z</time>
      </trkpt>
      <trkpt lat="44.77567" lon="-0.34203">
        <ele>104</ele>
        <time>2013-11-24T12:42:53Z</time>
      </trkpt>
      <trkpt lat="44.7756" lon="-0.34227">
        <ele>104</ele>
        <time>2013-11-24T12:42:59Z</time>
      </trkpt>
      <trkpt lat="44.77552" lon="-0.34244">
        <ele>104</ele>
        <time>2013-11-24T12:43:05Z</time>
      </trkpt>
      <trkpt lat="44.77543" lon="-0.34251">
        <ele>104</ele>
        <time>2013-11-24T12:43:09Z</time>
      </trkpt>
      <trkpt lat="44.77541" lon="-0.34251">
        <ele>104</ele>
        <time>2013-11-24T12:43:10Z</time>
      </trkpt>
      <trkpt lat="44.77538" lon="-0.34249">
        <ele>105</ele>
        <time>2013-11-24T12:43:11Z</time>
      </trkpt>
      <trkpt lat="44.77514" lon="-0.34234">
        <ele>105</ele>
        <time>2013-11-24T12:43:19Z</time>
      </trkpt>
      <trkpt lat="44.77501" lon="-0.34231">
        <ele>105</ele>
        <time>2013-11-24T12:43:24Z</time>
      </trkpt>
      <trkpt lat="44.77498" lon="-0.34229">
        <ele>105</ele>
        <time>2013-11-24T12:43:25Z</time>
      </trkpt>
      <trkpt lat="44.77496" lon="-0.34227">
        <ele>105</ele>
        <time>2013-11-24T12:43:26Z</time>
      </trkpt>
      <trkpt lat="44.77493" lon="-0.34224">
        <ele>105</ele>
        <time>2013-11-24T12:43:27Z</time>
      </trkpt>
      <trkpt lat="44.7749" lon="-0.34222">
        <ele>105</ele>
        <time>2013-11-24T12:43:28Z</time>
      </trkpt>
      <trkpt lat="44.77487" lon="-0.3422">
        <ele>105</ele>
        <time>2013-11-24T12:43:29Z</time>
      </trkpt>
      <trkpt lat="44.77465" lon="-0.34205">
        <ele>105</ele>
        <time>2013-11-24T12:43:36Z</time>
      </trkpt>
      <trkpt lat="44.77445" lon="-0.34193">
        <ele>106</ele>
        <time>2013-11-24T12:43:42Z</time>
      </trkpt>
      <trkpt lat="44.77422" lon="-0.34175">
        <ele>106</ele>
        <time>2013-11-24T12:43:49Z</time>
      </trkpt>
      <trkpt lat="44.77409" lon="-0.3416">
        <ele>106</ele>
        <time>2013-11-24T12:43:54Z</time>
      </trkpt>
      <trkpt lat="44.77386" lon="-0.34132">
        <ele>106</ele>
        <time>2013-11-24T12:44:02Z</time>
      </trkpt>
      <trkpt lat="44.77371" lon="-0.34119">
        <ele>106</ele>
        <time>2013-11-24T12:44:07Z</time>
      </trkpt>
      <trkpt lat="44.77355" lon="-0.341">
        <ele>106</ele>
        <time>2013-11-24T12:44:13Z</time>
      </trkpt>
      <trkpt lat="44.77345" lon="-0.34088">
        <ele>106</ele>
        <time>2013-11-24T12:44:19Z</time>
      </trkpt>
      <trkpt lat="44.77338" lon="-0.34077">
        <ele>106</ele>
        <time>2013-11-24T12:44:23Z</time>
      </trkpt>
      <trkpt lat="44.77336" lon="-0.34076">
        <ele>106</ele>
        <time>2013-11-24T12:44:24Z</time>
      </trkpt>
      <trkpt lat="44.77335" lon="-0.34074">
        <ele>106</ele>
        <time>2013-11-24T12:44:25Z</time>
      </trkpt>
      <trkpt lat="44.77333" lon="-0.34072">
        <ele>106</ele>
        <time>2013-11-24T12:44:26Z</time>
      </trkpt>
      <trkpt lat="44.77331" lon="-0.3407">
        <ele>106</ele>
        <time>2013-11-24T12:44:27Z</time>
      </trkpt>
      <trkpt lat="44.77329" lon="-0.34067">
        <ele>106</ele>
        <time>2013-11-24T12:44:28Z</time>
      </trkpt>
      <trkpt lat="44.77327" lon="-0.34064">
        <ele>106</ele>
        <time>2013-11-24T12:44:29Z</time>
      </trkpt>
      <trkpt lat="44.77324" lon="-0.3406">
        <ele>106</ele>
        <time>2013-11-24T12:44:30Z</time>
      </trkpt>
      <trkpt lat="44.77322" lon="-0.34057">
        <ele>106</ele>
        <time>2013-11-24T12:44:31Z</time>
      </trkpt>
      <trkpt lat="44.77319" lon="-0.34053">
        <ele>106</ele>
        <time>2013-11-24T12:44:32Z</time>
      </trkpt>
      <trkpt lat="44.77316" lon="-0.3405">
        <ele>106</ele>
        <time>2013-11-24T12:44:33Z</time>
      </trkpt>
      <trkpt lat="44.77303" lon="-0.34038">
        <ele>106</ele>
        <time>2013-11-24T12:44:38Z</time>
      </trkpt>
      <trkpt lat="44.77301" lon="-0.34035">
        <ele>106</ele>
        <time>2013-11-24T12:44:39Z</time>
      </trkpt>
      <trkpt lat="44.77299" lon="-0.3403">
        <ele>106</ele>
        <time>2013-11-24T12:44:40Z</time>
      </trkpt>
      <trkpt lat="44.77297" lon="-0.34026">
        <ele>106</ele>
        <time>2013-11-24T12:44:41Z</time>
      </trkpt>
      <trkpt lat="44.77278" lon="-0.33998">
        <ele>105</ele>
        <time>2013-11-24T12:44:48Z</time>
      </trkpt>
      <trkpt lat="44.7726" lon="-0.33967">
        <ele>105</ele>
        <time>2013-11-24T12:44:56Z</time>
      </trkpt>
      <trkpt lat="44.77251" lon="-0.33955">
        <ele>105</ele>
        <time>2013-11-24T12:45:00Z</time>
      </trkpt>
      <trkpt lat="44.77249" lon="-0.33955">
        <ele>105</ele>
        <time>2013-11-24T12:45:01Z</time>
      </trkpt>
      <trkpt lat="44.77247" lon="-0.33956">
        <ele>105</ele>
        <time>2013-11-24T12:45:02Z</time>
      </trkpt>
      <trkpt lat="44.77244" lon="-0.33956">
        <ele>105</ele>
        <time>2013-11-24T12:45:03Z</time>
      </trkpt>
      <trkpt lat="44.77243" lon="-0.33957">
        <ele>105</ele>
        <time>2013-11-24T12:45:04Z</time>
      </trkpt>
      <trkpt lat="44.77236" lon="-0.33958">
        <ele>105</ele>
        <time>2013-11-24T12:45:11Z</time>
      </trkpt>
      <trkpt lat="44.77234" lon="-0.33957">
        <ele>105</ele>
        <time>2013-11-24T12:45:21Z</time>
      </trkpt>
      <trkpt lat="44.77233" lon="-0.33957">
        <ele>104</ele>
        <time>2013-11-24T12:45:28Z</time>
      </trkpt>
      <trkpt lat="44.77233" lon="-0.33957">
        <ele>104</ele>
        <time>2013-11-24T12:45:38Z</time>
      </trkpt>
      <trkpt lat="44.77232" lon="-0.33957">
        <ele>104</ele>
        <time>2013-11-24T12:45:51Z</time>
      </trkpt>
      <trkpt lat="44.77232" lon="-0.33957">
        <ele>104</ele>
        <time>2013-11-24T12:46:03Z</time>
      </trkpt>
      <trkpt lat="44.77232" lon="-0.33956">
        <ele>104</ele>
        <time>2013-11-24T12:46:17Z</time>
      </trkpt>
      <trkpt lat="44.77229" lon="-0.33959">
        <ele>104</ele>
        <time>2013-11-24T12:46:19Z</time>
      </trkpt>
      <trkpt lat="44.77226" lon="-0.3398">
        <ele>104</ele>
        <time>2013-11-24T12:46:25Z</time>
      </trkpt>
      <trkpt lat="44.77223" lon="-0.34023">
        <ele>104</ele>
        <time>2013-11-24T12:46:33Z</time>
      </trkpt>
      <trkpt lat="44.7722" lon="-0.34052">
        <ele>104</ele>
        <time>2013-11-24T12:46:38Z</time>
      </trkpt>
      <trkpt lat="44.77219" lon="-0.34058">
        <ele>104</ele>
        <time>2013-11-24T12:46:39Z</time>
      </trkpt>
      <trkpt lat="44.77217" lon="-0.34094">
        <ele>103</ele>
        <time>2013-11-24T12:46:45Z</time>
      </trkpt>
      <trkpt lat="44.77217" lon="-0.341">
        <ele>103</ele>
        <time>2013-11-24T12:46:46Z</time>
      </trkpt>
      <trkpt lat="44.77214" lon="-0.3412">
        <ele>103</ele>
        <time>2013-11-24T12:46:49Z</time>
      </trkpt>
      <trkpt lat="44.77211" lon="-0.34182">
        <ele>103</ele>
        <time>2013-11-24T12:46:58Z</time>
      </trkpt>
      <trkpt lat="44.77214" lon="-0.34234">
        <ele>104</ele>
        <time>2013-11-24T12:47:06Z</time>
      </trkpt>
      <trkpt lat="44.77218" lon="-0.34287">
        <ele>104</ele>
        <time>2013-11-24T12:47:15Z</time>
      </trkpt>
      <trkpt lat="44.7722" lon="-0.3431">
        <ele>104</ele>
        <time>2013-11-24T12:47:19Z</time>
      </trkpt>
      <trkpt lat="44.7722" lon="-0.34316">
        <ele>104</ele>
        <time>2013-11-24T12:47:20Z</time>
      </trkpt>
      <trkpt lat="44.7722" lon="-0.34321">
        <ele>104</ele>
        <time>2013-11-24T12:47:21Z</time>
      </trkpt>
      <trkpt lat="44.77221" lon="-0.34327">
        <ele>104</ele>
        <time>2013-11-24T12:47:22Z</time>
      </trkpt>
      <trkpt lat="44.77221" lon="-0.34333">
        <ele>104</ele>
        <time>2013-11-24T12:47:23Z</time>
      </trkpt>
      <trkpt lat="44.7722" lon="-0.34362">
        <ele>104</ele>
        <time>2013-11-24T12:47:28Z</time>
      </trkpt>
      <trkpt lat="44.77218" lon="-0.34416">
        <ele>105</ele>
        <time>2013-11-24T12:47:36Z</time>
      </trkpt>
      <trkpt lat="44.77219" lon="-0.34423">
        <ele>105</ele>
        <time>2013-11-24T12:47:37Z</time>
      </trkpt>
      <trkpt lat="44.7723" lon="-0.34459">
        <ele>105</ele>
        <time>2013-11-24T12:47:43Z</time>
      </trkpt>
      <trkpt lat="44.77254" lon="-0.34503">
        <ele>105</ele>
        <time>2013-11-24T12:47:51Z</time>
      </trkpt>
      <trkpt lat="44.77278" lon="-0.34544">
        <ele>105</ele>
        <time>2013-11-24T12:48:00Z</time>
      </trkpt>
      <trkpt lat="44.7729" lon="-0.34551">
        <ele>105</ele>
        <time>2013-11-24T12:48:04Z</time>
      </trkpt>
      <trkpt lat="44.77294" lon="-0.34555">
        <ele>105</ele>
        <time>2013-11-24T12:48:06Z</time>
      </trkpt>
      <trkpt lat="44.77295" lon="-0.34558">
        <ele>105</ele>
        <time>2013-11-24T12:48:07Z</time>
      </trkpt>
      <trkpt lat="44.77299" lon="-0.34575">
        <ele>105</ele>
        <time>2013-11-24T12:48:11Z</time>
      </trkpt>
      <trkpt lat="44.77298" lon="-0.3458">
        <ele>105</ele>
        <time>2013-11-24T12:48:12Z</time>
      </trkpt>
      <trkpt lat="44.77296" lon="-0.34584">
        <ele>105</ele>
        <time>2013-11-24T12:48:13Z</time>
      </trkpt>
      <trkpt lat="44.77293" lon="-0.34587">
        <ele>105</ele>
        <time>2013-11-24T12:48:14Z</time>
      </trkpt>
      <trkpt lat="44.77289" lon="-0.34588">
        <ele>105</ele>
        <time>2013-11-24T12:48:15Z</time>
      </trkpt>
      <trkpt lat="44.77285" lon="-0.34588">
        <ele>105</ele>
        <time>2013-11-24T12:48:16Z</time>
      </trkpt>
      <trkpt lat="44.77262" lon="-0.3458">
        <ele>105</ele>
        <time>2013-11-24T12:48:23Z</time>
      </trkpt>
      <trkpt lat="44.7723" lon="-0.34559">
        <ele>105</ele>
        <time>2013-11-24T12:48:33Z</time>
      </trkpt>
      <trkpt lat="44.77207" lon="-0.34547">
        <ele>105</ele>
        <time>2013-11-24T12:48:39Z</time>
      </trkpt>
      <trkpt lat="44.77176" lon="-0.34526">
        <ele>105</ele>
        <time>2013-11-24T12:48:47Z</time>
      </trkpt>
      <trkpt lat="44.77171" lon="-0.34524">
        <ele>105</ele>
        <time>2013-11-24T12:48:48Z</time>
      </trkpt>
      <trkpt lat="44.77127" lon="-0.34498">
        <ele>105</ele>
        <time>2013-11-24T12:48:58Z</time>
      </trkpt>
      <trkpt lat="44.77117" lon="-0.34491">
        <ele>105</ele>
        <time>2013-11-24T12:49:00Z</time>
      </trkpt>
      <trkpt lat="44.77091" lon="-0.34477">
        <ele>105</ele>
        <time>2013-11-24T12:49:05Z</time>
      </trkpt>
      <trkpt lat="44.77042" lon="-0.3445">
        <ele>105</ele>
        <time>2013-11-24T12:49:14Z</time>
      </trkpt>
      <trkpt lat="44.77026" lon="-0.34442">
        <ele>105</ele>
        <time>2013-11-24T12:49:17Z</time>
      </trkpt>
      <trkpt lat="44.77015" lon="-0.34439">
        <ele>105</ele>
        <time>2013-11-24T12:49:19Z</time>
      </trkpt>
      <trkpt lat="44.77009" lon="-0.34438">
        <ele>105</ele>
        <time>2013-11-24T12:49:20Z</time>
      </trkpt>
      <trkpt lat="44.77004" lon="-0.34436">
        <ele>105</ele>
        <time>2013-11-24T12:49:21Z</time>
      </trkpt>
      <trkpt lat="44.76998" lon="-0.34434">
        <ele>105</ele>
        <time>2013-11-24T12:49:22Z</time>
      </trkpt>
      <trkpt lat="44.76992" lon="-0.34432">
        <ele>105</ele>
        <time>2013-11-24T12:49:23Z</time>
      </trkpt>
      <trkpt lat="44.76985" lon="-0.34429">
        <ele>105</ele>
        <time>2013-11-24T12:49:24Z</time>
      </trkpt>
      <trkpt lat="44.76978" lon="-0.34428">
        <ele>105</ele>
        <time>2013-11-24T12:49:25Z</time>
      </trkpt>
      <trkpt lat="44.7696" lon="-0.3442">
        <ele>104</ele>
        <time>2013-11-24T12:49:28Z</time>
      </trkpt>
      <trkpt lat="44.76909" lon="-0.34384">
        <ele>103</ele>
        <time>2013-11-24T12:49:37Z</time>
      </trkpt>
      <trkpt lat="44.76853" lon="-0.3435">
        <ele>103</ele>
        <time>2013-11-24T12:49:46Z</time>
      </trkpt>
      <trkpt lat="44.76805" lon="-0.34317">
        <ele>103</ele>
        <time>2013-11-24T12:49:54Z</time>
      </trkpt>
      <trkpt lat="44.76756" lon="-0.34285">
        <ele>103</ele>
        <time>2013-11-24T12:50:03Z</time>
      </trkpt>
      <trkpt lat="44.76714" lon="-0.34258">
        <ele>103</ele>
        <time>2013-11-24T12:50:12Z</time>
      </trkpt>
      <trkpt lat="44.76699" lon="-0.34248">
        <ele>103</ele>
        <time>2013-11-24T12:50:17Z</time>
      </trkpt>
      <trkpt lat="44.76698" lon="-0.34246">
        <ele>103</ele>
        <time>2013-11-24T12:50:18Z</time>
      </trkpt>
      <trkpt lat="44.76698" lon="-0.34243">
        <ele>103</ele>
        <time>2013-11-24T12:50:19Z</time>
      </trkpt>
      <trkpt lat="44.76699" lon="-0.34241">
        <ele>103</ele>
        <time>2013-11-24T12:50:20Z</time>
      </trkpt>
      <trkpt lat="44.767" lon="-0.34238">
        <ele>103</ele>
        <time>2013-11-24T12:50:21Z</time>
      </trkpt>
      <trkpt lat="44.76701" lon="-0.34235">
        <ele>103</ele>
        <time>2013-11-24T12:50:22Z</time>
      </trkpt>
      <trkpt lat="44.76703" lon="-0.34232">
        <ele>103</ele>
        <time>2013-11-24T12:50:23Z</time>
      </trkpt>
      <trkpt lat="44.76704" lon="-0.34228">
        <ele>103</ele>
        <time>2013-11-24T12:50:24Z</time>
      </trkpt>
      <trkpt lat="44.76718" lon="-0.34183">
        <ele>101</ele>
        <time>2013-11-24T12:50:34Z</time>
      </trkpt>
      <trkpt lat="44.76729" lon="-0.34147">
        <ele>99</ele>
        <time>2013-11-24T12:50:42Z</time>
      </trkpt>
      <trkpt lat="44.7674" lon="-0.34106">
        <ele>97</ele>
        <time>2013-11-24T12:50:49Z</time>
      </trkpt>
      <trkpt lat="44.76751" lon="-0.34002">
        <ele>91</ele>
        <time>2013-11-24T12:50:59Z</time>
      </trkpt>
      <trkpt lat="44.76754" lon="-0.33981">
        <ele>88</ele>
        <time>2013-11-24T12:51:02Z</time>
      </trkpt>
      <trkpt lat="44.76742" lon="-0.33965">
        <ele>87</ele>
        <time>2013-11-24T12:51:06Z</time>
      </trkpt>
      <trkpt lat="44.76738" lon="-0.33964">
        <ele>87</ele>
        <time>2013-11-24T12:51:07Z</time>
      </trkpt>
      <trkpt lat="44.76723" lon="-0.33962">
        <ele>87</ele>
        <time>2013-11-24T12:51:10Z</time>
      </trkpt>
      <trkpt lat="44.76685" lon="-0.33953">
        <ele>87</ele>
        <time>2013-11-24T12:51:18Z</time>
      </trkpt>
      <trkpt lat="44.76646" lon="-0.33945">
        <ele>87</ele>
        <time>2013-11-24T12:51:26Z</time>
      </trkpt>
      <trkpt lat="44.76626" lon="-0.33937">
        <ele>87</ele>
        <time>2013-11-24T12:51:30Z</time>
      </trkpt>
      <trkpt lat="44.76605" lon="-0.33924">
        <ele>86</ele>
        <time>2013-11-24T12:51:36Z</time>
      </trkpt>
      <trkpt lat="44.76606" lon="-0.33925">
        <ele>86</ele>
        <time>2013-11-24T12:51:45Z</time>
      </trkpt>
      <trkpt lat="44.76606" lon="-0.33925">
        <ele>86</ele>
        <time>2013-11-24T12:51:55Z</time>
      </trkpt>
      <trkpt lat="44.76606" lon="-0.33924">
        <ele>86</ele>
        <time>2013-11-24T12:52:11Z</time>
      </trkpt>
      <trkpt lat="44.76607" lon="-0.33924">
        <ele>86</ele>
        <time>2013-11-24T12:52:30Z</time>
      </trkpt>
      <trkpt lat="44.76606" lon="-0.33924">
        <ele>86</ele>
        <time>2013-11-24T12:52:48Z</time>
      </trkpt>
      <trkpt lat="44.76606" lon="-0.33924">
        <ele>86</ele>
        <time>2013-11-24T12:53:08Z</time>
      </trkpt>
      <trkpt lat="44.76606" lon="-0.33925">
        <ele>86</ele>
        <time>2013-11-24T12:53:33Z</time>
      </trkpt>
      <trkpt lat="44.76606" lon="-0.33924">
        <ele>86</ele>
        <time>2013-11-24T12:53:52Z</time>
      </trkpt>
      <trkpt lat="44.76606" lon="-0.33924">
        <ele>86</ele>
        <time>2013-11-24T12:54:13Z</time>
      </trkpt>
      <trkpt lat="44.76607" lon="-0.33925">
        <ele>86</ele>
        <time>2013-11-24T12:54:36Z</time>
      </trkpt>
      <trkpt lat="44.76606" lon="-0.33926">
        <ele>86</ele>
        <time>2013-11-24T12:54:55Z</time>
      </trkpt>
      <trkpt lat="44.76605" lon="-0.33926">
        <ele>86</ele>
        <time>2013-11-24T12:55:16Z</time>
      </trkpt>
      <trkpt lat="44.76606" lon="-0.33926">
        <ele>86</ele>
        <time>2013-11-24T12:55:36Z</time>
      </trkpt>
      <trkpt lat="44.76606" lon="-0.33924">
        <ele>86</ele>
        <time>2013-11-24T12:55:59Z</time>
      </trkpt>
      <trkpt lat="44.76607" lon="-0.33924">
        <ele>86</ele>
        <time>2013-11-24T12:56:18Z</time>
      </trkpt>
      <trkpt lat="44.76607" lon="-0.33924">
        <ele>86</ele>
        <time>2013-11-24T12:56:34Z</time>
      </trkpt>
      <trkpt lat="44.76607" lon="-0.33924">
        <ele>86</ele>
        <time>2013-11-24T12:56:53Z</time>
      </trkpt>
      <trkpt lat="44.76607" lon="-0.33923">
        <ele>86</ele>
        <time>2013-11-24T12:57:12Z</time>
      </trkpt>
      <trkpt lat="44.76607" lon="-0.33924">
        <ele>86</ele>
        <time>2013-11-24T12:57:32Z</time>
      </trkpt>
      <trkpt lat="44.76607" lon="-0.33925">
        <ele>86</ele>
        <time>2013-11-24T12:57:50Z</time>
      </trkpt>
      <trkpt lat="44.76607" lon="-0.33925">
        <ele>86</ele>
        <time>2013-11-24T12:58:12Z</time>
      </trkpt>
      <trkpt lat="44.76605" lon="-0.33924">
        <ele>86</ele>
        <time>2013-11-24T12:58:18Z</time>
      </trkpt>
      <trkpt lat="44.76595" lon="-0.33918">
        <ele>85</ele>
        <time>2013-11-24T12:58:24Z</time>
      </trkpt>
      <trkpt lat="44.76575" lon="-0.33908">
        <ele>84</ele>
        <time>2013-11-24T12:58:31Z</time>
      </trkpt>
      <trkpt lat="44.7655" lon="-0.33895">
        <ele>83</ele>
        <time>2013-11-24T12:58:40Z</time>
      </trkpt>
      <trkpt lat="44.76534" lon="-0.33882">
        <ele>82</ele>
        <time>2013-11-24T12:58:46Z</time>
      </trkpt>
      <trkpt lat="44.76529" lon="-0.33873">
        <ele>81</ele>
        <time>2013-11-24T12:58:50Z</time>
      </trkpt>
      <trkpt lat="44.76532" lon="-0.33866">
        <ele>80</ele>
        <time>2013-11-24T12:58:56Z</time>
      </trkpt>
      <trkpt lat="44.76533" lon="-0.33866">
        <ele>80</ele>
        <time>2013-11-24T12:59:07Z</time>
      </trkpt>
      <trkpt lat="44.76534" lon="-0.33865">
        <ele>80</ele>
        <time>2013-11-24T12:59:25Z</time>
      </trkpt>
      <trkpt lat="44.76533" lon="-0.33865">
        <ele>80</ele>
        <time>2013-11-24T12:59:42Z</time>
      </trkpt>
      <trkpt lat="44.76534" lon="-0.33866">
        <ele>80</ele>
        <time>2013-11-24T12:59:59Z</time>
      </trkpt>
      <trkpt lat="44.76533" lon="-0.33866">
        <ele>80</ele>
        <time>2013-11-24T13:00:16Z</time>
      </trkpt>
      <trkpt lat="44.76533" lon="-0.33867">
        <ele>80</ele>
        <time>2013-11-24T13:00:33Z</time>
      </trkpt>
      <trkpt lat="44.76533" lon="-0.33867">
        <ele>80</ele>
        <time>2013-11-24T13:00:48Z</time>
      </trkpt>
      <trkpt lat="44.76532" lon="-0.33867">
        <ele>80</ele>
        <time>2013-11-24T13:01:10Z</time>
      </trkpt>
      <trkpt lat="44.76533" lon="-0.33867">
        <ele>80</ele>
        <time>2013-11-24T13:01:32Z</time>
      </trkpt>
      <trkpt lat="44.76534" lon="-0.33867">
        <ele>80</ele>
        <time>2013-11-24T13:01:49Z</time>
      </trkpt>
      <trkpt lat="44.76534" lon="-0.33866">
        <ele>80</ele>
        <time>2013-11-24T13:02:06Z</time>
      </trkpt>
      <trkpt lat="44.76534" lon="-0.33865">
        <ele>80</ele>
        <time>2013-11-24T13:02:10Z</time>
      </trkpt>
      <trkpt lat="44.76537" lon="-0.33856">
        <ele>79</ele>
        <time>2013-11-24T13:02:17Z</time>
      </trkpt>
      <trkpt lat="44.76543" lon="-0.33843">
        <ele>78</ele>
        <time>2013-11-24T13:02:22Z</time>
      </trkpt>
      <trkpt lat="44.76542" lon="-0.33834">
        <ele>78</ele>
        <time>2013-11-24T13:02:24Z</time>
      </trkpt>
      <trkpt lat="44.76536" lon="-0.3382">
        <ele>77</ele>
        <time>2013-11-24T13:02:28Z</time>
      </trkpt>
      <trkpt lat="44.76522" lon="-0.33817">
        <ele>76</ele>
        <time>2013-11-24T13:02:34Z</time>
      </trkpt>
      <trkpt lat="44.765" lon="-0.33822">
        <ele>77</ele>
        <time>2013-11-24T13:02:41Z</time>
      </trkpt>
      <trkpt lat="44.76481" lon="-0.33816">
        <ele>76</ele>
        <time>2013-11-24T13:02:48Z</time>
      </trkpt>
      <trkpt lat="44.76464" lon="-0.33808">
        <ele>75</ele>
        <time>2013-11-24T13:02:54Z</time>
      </trkpt>
      <trkpt lat="44.76447" lon="-0.33814">
        <ele>74</ele>
        <time>2013-11-24T13:02:59Z</time>
      </trkpt>
      <trkpt lat="44.76444" lon="-0.33815">
        <ele>74</ele>
        <time>2013-11-24T13:03:00Z</time>
      </trkpt>
      <trkpt lat="44.7643" lon="-0.33826">
        <ele>74</ele>
        <time>2013-11-24T13:03:06Z</time>
      </trkpt>
      <trkpt lat="44.76415" lon="-0.33833">
        <ele>74</ele>
        <time>2013-11-24T13:03:12Z</time>
      </trkpt>
      <trkpt lat="44.76399" lon="-0.33844">
        <ele>73</ele>
        <time>2013-11-24T13:03:17Z</time>
      </trkpt>
      <trkpt lat="44.76379" lon="-0.33861">
        <ele>72</ele>
        <time>2013-11-24T13:03:23Z</time>
      </trkpt>
      <trkpt lat="44.76355" lon="-0.33881">
        <ele>72</ele>
        <time>2013-11-24T13:03:31Z</time>
      </trkpt>
      <trkpt lat="44.76337" lon="-0.33897">
        <ele>71</ele>
        <time>2013-11-24T13:03:38Z</time>
      </trkpt>
      <trkpt lat="44.76315" lon="-0.33914">
        <ele>70</ele>
        <time>2013-11-24T13:03:46Z</time>
      </trkpt>
      <trkpt lat="44.76296" lon="-0.33932">
        <ele>70</ele>
        <time>2013-11-24T13:03:53Z</time>
      </trkpt>
      <trkpt lat="44.76275" lon="-0.33951">
        <ele>69</ele>
        <time>2013-11-24T13:04:00Z</time>
      </trkpt>
      <trkpt lat="44.76259" lon="-0.33969">
        <ele>69</ele>
        <time>2013-11-24T13:04:06Z</time>
      </trkpt>
      <trkpt lat="44.76245" lon="-0.33962">
        <ele>68</ele>
        <time>2013-11-24T13:04:13Z</time>
      </trkpt>
      <trkpt lat="44.76233" lon="-0.33951">
        <ele>68</ele>
        <time>2013-11-24T13:04:18Z</time>
      </trkpt>
      <trkpt lat="44.76225" lon="-0.33932">
        <ele>68</ele>
        <time>2013-11-24T13:04:24Z</time>
      </trkpt>
      <trkpt lat="44.76219" lon="-0.33925">
        <ele>68</ele>
        <time>2013-11-24T13:04:27Z</time>
      </trkpt>
      <trkpt lat="44.7621" lon="-0.33908">
        <ele>69</ele>
        <time>2013-11-24T13:04:33Z</time>
      </trkpt>
      <trkpt lat="44.76203" lon="-0.33888">
        <ele>70</ele>
        <time>2013-11-24T13:04:40Z</time>
      </trkpt>
      <trkpt lat="44.76187" lon="-0.33867">
        <ele>72</ele>
        <time>2013-11-24T13:04:50Z</time>
      </trkpt>
      <trkpt lat="44.76182" lon="-0.33848">
        <ele>73</ele>
        <time>2013-11-24T13:04:57Z</time>
      </trkpt>
      <trkpt lat="44.76177" lon="-0.33829">
        <ele>73</ele>
        <time>2013-11-24T13:05:05Z</time>
      </trkpt>
      <trkpt lat="44.76172" lon="-0.33816">
        <ele>74</ele>
        <time>2013-11-24T13:05:11Z</time>
      </trkpt>
      <trkpt lat="44.76167" lon="-0.33802">
        <ele>75</ele>
        <time>2013-11-24T13:05:17Z</time>
      </trkpt>
      <trkpt lat="44.76168" lon="-0.33792">
        <ele>75</ele>
        <time>2013-11-24T13:05:21Z</time>
      </trkpt>
      <trkpt lat="44.76163" lon="-0.33778">
        <ele>76</ele>
        <time>2013-11-24T13:05:27Z</time>
      </trkpt>
      <trkpt lat="44.76154" lon="-0.3376">
        <ele>77</ele>
        <time>2013-11-24T13:05:35Z</time>
      </trkpt>
      <trkpt lat="44.76142" lon="-0.33755">
        <ele>78</ele>
        <time>2013-11-24T13:05:42Z</time>
      </trkpt>
      <trkpt lat="44.76136" lon="-0.33754">
        <ele>79</ele>
        <time>2013-11-24T13:05:46Z</time>
      </trkpt>
      <trkpt lat="44.76129" lon="-0.33754">
        <ele>80</ele>
        <time>2013-11-24T13:05:51Z</time>
      </trkpt>
      <trkpt lat="44.76123" lon="-0.33751">
        <ele>81</ele>
        <time>2013-11-24T13:05:55Z</time>
      </trkpt>
      <trkpt lat="44.76116" lon="-0.33747">
        <ele>82</ele>
        <time>2013-11-24T13:06:01Z</time>
      </trkpt>
      <trkpt lat="44.76111" lon="-0.33749">
        <ele>83</ele>
        <time>2013-11-24T13:06:05Z</time>
      </trkpt>
      <trkpt lat="44.761" lon="-0.33753">
        <ele>85</ele>
        <time>2013-11-24T13:06:13Z</time>
      </trkpt>
      <trkpt lat="44.76093" lon="-0.33755">
        <ele>87</ele>
        <time>2013-11-24T13:06:20Z</time>
      </trkpt>
      <trkpt lat="44.76085" lon="-0.33752">
        <ele>88</ele>
        <time>2013-11-24T13:06:27Z</time>
      </trkpt>
      <trkpt lat="44.76075" lon="-0.3375">
        <ele>89</ele>
        <time>2013-11-24T13:06:35Z</time>
      </trkpt>
      <trkpt lat="44.76072" lon="-0.33749">
        <ele>90</ele>
        <time>2013-11-24T13:06:39Z</time>
      </trkpt>
      <trkpt lat="44.76064" lon="-0.33748">
        <ele>91</ele>
        <time>2013-11-24T13:06:45Z</time>
      </trkpt>
      <trkpt lat="44.76053" lon="-0.33753">
        <ele>93</ele>
        <time>2013-11-24T13:06:54Z</time>
      </trkpt>
      <trkpt lat="44.76045" lon="-0.33757">
        <ele>94</ele>
        <time>2013-11-24T13:07:01Z</time>
      </trkpt>
      <trkpt lat="44.76043" lon="-0.33758">
        <ele>94</ele>
        <time>2013-11-24T13:07:03Z</time>
      </trkpt>
      <trkpt lat="44.76032" lon="-0.3376">
        <ele>95</ele>
        <time>2013-11-24T13:07:11Z</time>
      </trkpt>
      <trkpt lat="44.76021" lon="-0.33762">
        <ele>96</ele>
        <time>2013-11-24T13:07:19Z</time>
      </trkpt>
      <trkpt lat="44.76018" lon="-0.33763">
        <ele>96</ele>
        <time>2013-11-24T13:07:22Z</time>
      </trkpt>
      <trkpt lat="44.76008" lon="-0.33761">
        <ele>97</ele>
        <time>2013-11-24T13:07:29Z</time>
      </trkpt>
      <trkpt lat="44.75998" lon="-0.33762">
        <ele>97</ele>
        <time>2013-11-24T13:07:37Z</time>
      </trkpt>
      <trkpt lat="44.75995" lon="-0.33761">
        <ele>97</ele>
        <time>2013-11-24T13:07:39Z</time>
      </trkpt>
      <trkpt lat="44.75981" lon="-0.33765">
        <ele>97</ele>
        <time>2013-11-24T13:07:47Z</time>
      </trkpt>
      <trkpt lat="44.75966" lon="-0.33769">
        <ele>98</ele>
        <time>2013-11-24T13:07:55Z</time>
      </trkpt>
      <trkpt lat="44.75945" lon="-0.3377">
        <ele>97</ele>
        <time>2013-11-24T13:08:04Z</time>
      </trkpt>
      <trkpt lat="44.75938" lon="-0.33767">
        <ele>97</ele>
        <time>2013-11-24T13:08:08Z</time>
      </trkpt>
      <trkpt lat="44.75934" lon="-0.33766">
        <ele>97</ele>
        <time>2013-11-24T13:08:15Z</time>
      </trkpt>
      <trkpt lat="44.75934" lon="-0.33765">
        <ele>97</ele>
        <time>2013-11-24T13:08:23Z</time>
      </trkpt>
      <trkpt lat="44.75934" lon="-0.33766">
        <ele>97</ele>
        <time>2013-11-24T13:08:36Z</time>
      </trkpt>
      <trkpt lat="44.75935" lon="-0.33765">
        <ele>97</ele>
        <time>2013-11-24T13:08:51Z</time>
      </trkpt>
      <trkpt lat="44.75935" lon="-0.33765">
        <ele>97</ele>
        <time>2013-11-24T13:09:06Z</time>
      </trkpt>
      <trkpt lat="44.75935" lon="-0.33766">
        <ele>97</ele>
        <time>2013-11-24T13:09:20Z</time>
      </trkpt>
      <trkpt lat="44.75935" lon="-0.33767">
        <ele>97</ele>
        <time>2013-11-24T13:09:37Z</time>
      </trkpt>
      <trkpt lat="44.75935" lon="-0.33767">
        <ele>97</ele>
        <time>2013-11-24T13:09:55Z</time>
      </trkpt>
      <trkpt lat="44.75935" lon="-0.33765">
        <ele>97</ele>
        <time>2013-11-24T13:10:11Z</time>
      </trkpt>
      <trkpt lat="44.75935" lon="-0.33765">
        <ele>97</ele>
        <time>2013-11-24T13:10:27Z</time>
      </trkpt>
      <trkpt lat="44.75935" lon="-0.33766">
        <ele>97</ele>
        <time>2013-11-24T13:10:44Z</time>
      </trkpt>
      <trkpt lat="44.75935" lon="-0.33767">
        <ele>97</ele>
        <time>2013-11-24T13:10:56Z</time>
      </trkpt>
      <trkpt lat="44.75935" lon="-0.33766">
        <ele>97</ele>
        <time>2013-11-24T13:11:09Z</time>
      </trkpt>
      <trkpt lat="44.75935" lon="-0.33765">
        <ele>97</ele>
        <time>2013-11-24T13:11:22Z</time>
      </trkpt>
      <trkpt lat="44.75935" lon="-0.33765">
        <ele>97</ele>
        <time>2013-11-24T13:11:35Z</time>
      </trkpt>
      <trkpt lat="44.75935" lon="-0.33765">
        <ele>97</ele>
        <time>2013-11-24T13:11:46Z</time>
      </trkpt>
      <trkpt lat="44.75935" lon="-0.33765">
        <ele>97</ele>
        <time>2013-11-24T13:11:59Z</time>
      </trkpt>
      <trkpt lat="44.75936" lon="-0.33765">
        <ele>97</ele>
        <time>2013-11-24T13:12:11Z</time>
      </trkpt>
      <trkpt lat="44.75935" lon="-0.33765">
        <ele>97</ele>
        <time>2013-11-24T13:12:25Z</time>
      </trkpt>
      <trkpt lat="44.75935" lon="-0.33767">
        <ele>97</ele>
        <time>2013-11-24T13:12:40Z</time>
      </trkpt>
      <trkpt lat="44.75936" lon="-0.33767">
        <ele>97</ele>
        <time>2013-11-24T13:12:53Z</time>
      </trkpt>
      <trkpt lat="44.75936" lon="-0.33767">
        <ele>97</ele>
        <time>2013-11-24T13:13:08Z</time>
      </trkpt>
      <trkpt lat="44.75936" lon="-0.33766">
        <ele>97</ele>
        <time>2013-11-24T13:13:22Z</time>
      </trkpt>
      <trkpt lat="44.75936" lon="-0.33766">
        <ele>97</ele>
        <time>2013-11-24T13:13:38Z</time>
      </trkpt>
      <trkpt lat="44.75936" lon="-0.33766">
        <ele>97</ele>
        <time>2013-11-24T13:13:48Z</time>
      </trkpt>
      <trkpt lat="44.75937" lon="-0.33766">
        <ele>97</ele>
        <time>2013-11-24T13:14:04Z</time>
      </trkpt>
      <trkpt lat="44.75937" lon="-0.33765">
        <ele>97</ele>
        <time>2013-11-24T13:14:16Z</time>
      </trkpt>
      <trkpt lat="44.75937" lon="-0.33765">
        <ele>97</ele>
        <time>2013-11-24T13:14:31Z</time>
      </trkpt>
      <trkpt lat="44.75937" lon="-0.33765">
        <ele>97</ele>
        <time>2013-11-24T13:14:43Z</time>
      </trkpt>
      <trkpt lat="44.75937" lon="-0.33764">
        <ele>97</ele>
        <time>2013-11-24T13:15:01Z</time>
      </trkpt>
      <trkpt lat="44.75937" lon="-0.33763">
        <ele>97</ele>
        <time>2013-11-24T13:15:08Z</time>
      </trkpt>
      <trkpt lat="44.75937" lon="-0.33763">
        <ele>97</ele>
        <time>2013-11-24T13:15:25Z</time>
      </trkpt>
      <trkpt lat="44.75937" lon="-0.33763">
        <ele>97</ele>
        <time>2013-11-24T13:15:35Z</time>
      </trkpt>
      <trkpt lat="44.75937" lon="-0.33762">
        <ele>97</ele>
        <time>2013-11-24T13:15:49Z</time>
      </trkpt>
      <trkpt lat="44.75937" lon="-0.33762">
        <ele>97</ele>
        <time>2013-11-24T13:16:01Z</time>
      </trkpt>
      <trkpt lat="44.75937" lon="-0.3376">
        <ele>97</ele>
        <time>2013-11-24T13:16:06Z</time>
      </trkpt>
      <trkpt lat="44.75941" lon="-0.3375">
        <ele>98</ele>
        <time>2013-11-24T13:16:12Z</time>
      </trkpt>
      <trkpt lat="44.75938" lon="-0.3374">
        <ele>98</ele>
        <time>2013-11-24T13:16:16Z</time>
      </trkpt>
      <trkpt lat="44.75935" lon="-0.33708">
        <ele>98</ele>
        <time>2013-11-24T13:16:24Z</time>
      </trkpt>
      <trkpt lat="44.75937" lon="-0.33679">
        <ele>99</ele>
        <time>2013-11-24T13:16:30Z</time>
      </trkpt>
      <trkpt lat="44.7594" lon="-0.33636">
        <ele>100</ele>
        <time>2013-11-24T13:16:37Z</time>
      </trkpt>
      <trkpt lat="44.75942" lon="-0.33605">
        <ele>100</ele>
        <time>2013-11-24T13:16:43Z</time>
      </trkpt>
      <trkpt lat="44.75944" lon="-0.33559">
        <ele>101</ele>
        <time>2013-11-24T13:16:51Z</time>
      </trkpt>
      <trkpt lat="44.75951" lon="-0.33506">
        <ele>101</ele>
        <time>2013-11-24T13:17:00Z</time>
      </trkpt>
      <trkpt lat="44.75953" lon="-0.33489">
        <ele>101</ele>
        <time>2013-11-24T13:17:03Z</time>
      </trkpt>
      <trkpt lat="44.75953" lon="-0.33483">
        <ele>101</ele>
        <time>2013-11-24T13:17:04Z</time>
      </trkpt>
      <trkpt lat="44.75956" lon="-0.33432">
        <ele>102</ele>
        <time>2013-11-24T13:17:13Z</time>
      </trkpt>
      <trkpt lat="44.75956" lon="-0.33421">
        <ele>103</ele>
        <time>2013-11-24T13:17:15Z</time>
      </trkpt>
      <trkpt lat="44.75955" lon="-0.33363">
        <ele>104</ele>
        <time>2013-11-24T13:17:25Z</time>
      </trkpt>
      <trkpt lat="44.75954" lon="-0.3333">
        <ele>104</ele>
        <time>2013-11-24T13:17:31Z</time>
      </trkpt>
      <trkpt lat="44.75954" lon="-0.33292">
        <ele>105</ele>
        <time>2013-11-24T13:17:38Z</time>
      </trkpt>
      <trkpt lat="44.75952" lon="-0.3326">
        <ele>105</ele>
        <time>2013-11-24T13:17:44Z</time>
      </trkpt>
      <trkpt lat="44.75947" lon="-0.33244">
        <ele>105</ele>
        <time>2013-11-24T13:17:47Z</time>
      </trkpt>
      <trkpt lat="44.75943" lon="-0.33233">
        <ele>105</ele>
        <time>2013-11-24T13:17:49Z</time>
      </trkpt>
      <trkpt lat="44.75941" lon="-0.33227">
        <ele>105</ele>
        <time>2013-11-24T13:17:50Z</time>
      </trkpt>
      <trkpt lat="44.7594" lon="-0.33222">
        <ele>105</ele>
        <time>2013-11-24T13:17:51Z</time>
      </trkpt>
      <trkpt lat="44.75937" lon="-0.3321">
        <ele>105</ele>
        <time>2013-11-24T13:17:53Z</time>
      </trkpt>
      <trkpt lat="44.75936" lon="-0.33204">
        <ele>105</ele>
        <time>2013-11-24T13:17:54Z</time>
      </trkpt>
      <trkpt lat="44.75931" lon="-0.33187">
        <ele>105</ele>
        <time>2013-11-24T13:17:57Z</time>
      </trkpt>
      <trkpt lat="44.75927" lon="-0.33171">
        <ele>105</ele>
        <time>2013-11-24T13:18:00Z</time>
      </trkpt>
      <trkpt lat="44.75924" lon="-0.33159">
        <ele>106</ele>
        <time>2013-11-24T13:18:02Z</time>
      </trkpt>
      <trkpt lat="44.75922" lon="-0.33154">
        <ele>106</ele>
        <time>2013-11-24T13:18:03Z</time>
      </trkpt>
      <trkpt lat="44.7592" lon="-0.33148">
        <ele>106</ele>
        <time>2013-11-24T13:18:04Z</time>
      </trkpt>
      <trkpt lat="44.7591" lon="-0.3312">
        <ele>106</ele>
        <time>2013-11-24T13:18:09Z</time>
      </trkpt>
      <trkpt lat="44.75894" lon="-0.33091">
        <ele>106</ele>
        <time>2013-11-24T13:18:15Z</time>
      </trkpt>
      <trkpt lat="44.75877" lon="-0.33071">
        <ele>106</ele>
        <time>2013-11-24T13:18:21Z</time>
      </trkpt>
      <trkpt lat="44.75869" lon="-0.33061">
        <ele>106</ele>
        <time>2013-11-24T13:18:27Z</time>
      </trkpt>
      <trkpt lat="44.75866" lon="-0.33057">
        <ele>106</ele>
        <time>2013-11-24T13:18:32Z</time>
      </trkpt>
      <trkpt lat="44.75865" lon="-0.33056">
        <ele>106</ele>
        <time>2013-11-24T13:18:33Z</time>
      </trkpt>
      <trkpt lat="44.75864" lon="-0.33055">
        <ele>106</ele>
        <time>2013-11-24T13:18:34Z</time>
      </trkpt>
      <trkpt lat="44.75862" lon="-0.33053">
        <ele>106</ele>
        <time>2013-11-24T13:18:35Z</time>
      </trkpt>
      <trkpt lat="44.75861" lon="-0.33051">
        <ele>106</ele>
        <time>2013-11-24T13:18:36Z</time>
      </trkpt>
      <trkpt lat="44.75858" lon="-0.33048">
        <ele>106</ele>
        <time>2013-11-24T13:18:37Z</time>
      </trkpt>
      <trkpt lat="44.75856" lon="-0.33046">
        <ele>106</ele>
        <time>2013-11-24T13:18:38Z</time>
      </trkpt>
      <trkpt lat="44.75839" lon="-0.33032">
        <ele>107</ele>
        <time>2013-11-24T13:18:44Z</time>
      </trkpt>
      <trkpt lat="44.75829" lon="-0.33016">
        <ele>107</ele>
        <time>2013-11-24T13:18:49Z</time>
      </trkpt>
      <trkpt lat="44.75822" lon="-0.32989">
        <ele>107</ele>
        <time>2013-11-24T13:18:57Z</time>
      </trkpt>
      <trkpt lat="44.75815" lon="-0.32956">
        <ele>107</ele>
        <time>2013-11-24T13:19:06Z</time>
      </trkpt>
      <trkpt lat="44.75811" lon="-0.3293">
        <ele>107</ele>
        <time>2013-11-24T13:19:14Z</time>
      </trkpt>
      <trkpt lat="44.75808" lon="-0.32928">
        <ele>107</ele>
        <time>2013-11-24T13:19:16Z</time>
      </trkpt>
      <trkpt lat="44.75798" lon="-0.32927">
        <ele>107</ele>
        <time>2013-11-24T13:19:21Z</time>
      </trkpt>
      <trkpt lat="44.75796" lon="-0.32928">
        <ele>107</ele>
        <time>2013-11-24T13:19:22Z</time>
      </trkpt>
      <trkpt lat="44.75794" lon="-0.32928">
        <ele>107</ele>
        <time>2013-11-24T13:19:23Z</time>
      </trkpt>
      <trkpt lat="44.75792" lon="-0.32928">
        <ele>107</ele>
        <time>2013-11-24T13:19:24Z</time>
      </trkpt>
      <trkpt lat="44.75791" lon="-0.32929">
        <ele>107</ele>
        <time>2013-11-24T13:19:25Z</time>
      </trkpt>
      <trkpt lat="44.75789" lon="-0.32929">
        <ele>107</ele>
        <time>2013-11-24T13:19:26Z</time>
      </trkpt>
      <trkpt lat="44.75788" lon="-0.32929">
        <ele>107</ele>
        <time>2013-11-24T13:19:27Z</time>
      </trkpt>
      <trkpt lat="44.75786" lon="-0.32928">
        <ele>107</ele>
        <time>2013-11-24T13:19:28Z</time>
      </trkpt>
      <trkpt lat="44.75784" lon="-0.32927">
        <ele>107</ele>
        <time>2013-11-24T13:19:29Z</time>
      </trkpt>
      <trkpt lat="44.75782" lon="-0.32925">
        <ele>107</ele>
        <time>2013-11-24T13:19:30Z</time>
      </trkpt>
      <trkpt lat="44.7576" lon="-0.32919">
        <ele>107</ele>
        <time>2013-11-24T13:19:37Z</time>
      </trkpt>
      <trkpt lat="44.75737" lon="-0.32903">
        <ele>107</ele>
        <time>2013-11-24T13:19:45Z</time>
      </trkpt>
      <trkpt lat="44.75721" lon="-0.32885">
        <ele>107</ele>
        <time>2013-11-24T13:19:53Z</time>
      </trkpt>
      <trkpt lat="44.75708" lon="-0.32869">
        <ele>107</ele>
        <time>2013-11-24T13:19:59Z</time>
      </trkpt>
      <trkpt lat="44.7569" lon="-0.32849">
        <ele>107</ele>
        <time>2013-11-24T13:20:07Z</time>
      </trkpt>
      <trkpt lat="44.75673" lon="-0.32833">
        <ele>107</ele>
        <time>2013-11-24T13:20:15Z</time>
      </trkpt>
      <trkpt lat="44.75665" lon="-0.32818">
        <ele>107</ele>
        <time>2013-11-24T13:20:21Z</time>
      </trkpt>
      <trkpt lat="44.75654" lon="-0.32805">
        <ele>107</ele>
        <time>2013-11-24T13:20:27Z</time>
      </trkpt>
      <trkpt lat="44.75651" lon="-0.32802">
        <ele>107</ele>
        <time>2013-11-24T13:20:33Z</time>
      </trkpt>
      <trkpt lat="44.75651" lon="-0.32801">
        <ele>107</ele>
        <time>2013-11-24T13:20:44Z</time>
      </trkpt>
      <trkpt lat="44.75651" lon="-0.32801">
        <ele>107</ele>
        <time>2013-11-24T13:20:58Z</time>
      </trkpt>
      <trkpt lat="44.75652" lon="-0.32802">
        <ele>107</ele>
        <time>2013-11-24T13:21:21Z</time>
      </trkpt>
      <trkpt lat="44.75652" lon="-0.32802">
        <ele>107</ele>
        <time>2013-11-24T13:21:39Z</time>
      </trkpt>
      <trkpt lat="44.75651" lon="-0.32803">
        <ele>107</ele>
        <time>2013-11-24T13:21:54Z</time>
      </trkpt>
      <trkpt lat="44.75651" lon="-0.32803">
        <ele>107</ele>
        <time>2013-11-24T13:22:12Z</time>
      </trkpt>
      <trkpt lat="44.75651" lon="-0.32802">
        <ele>107</ele>
        <time>2013-11-24T13:22:31Z</time>
      </trkpt>
      <trkpt lat="44.75651" lon="-0.32802">
        <ele>107</ele>
        <time>2013-11-24T13:22:46Z</time>
      </trkpt>
      <trkpt lat="44.75651" lon="-0.32802">
        <ele>107</ele>
        <time>2013-11-24T13:23:04Z</time>
      </trkpt>
      <trkpt lat="44.75651" lon="-0.32802">
        <ele>107</ele>
        <time>2013-11-24T13:23:19Z</time>
      </trkpt>
      <trkpt lat="44.75651" lon="-0.32803">
        <ele>107</ele>
        <time>2013-11-24T13:23:41Z</time>
      </trkpt>
      <trkpt lat="44.75651" lon="-0.32802">
        <ele>107</ele>
        <time>2013-11-24T13:23:47Z</time>
      </trkpt>
      <trkpt lat="44.75651" lon="-0.32802">
        <ele>107</ele>
        <time>2013-11-24T13:23:58Z</time>
      </trkpt>
      <trkpt lat="44.75653" lon="-0.32804">
        <ele>107</ele>
        <time>2013-11-24T13:24:04Z</time>
      </trkpt>
      <trkpt lat="44.75652" lon="-0.32802">
        <ele>107</ele>
        <time>2013-11-24T13:24:09Z</time>
      </trkpt>
      <trkpt lat="44.75651" lon="-0.328">
        <ele>107</ele>
        <time>2013-11-24T13:24:14Z</time>
      </trkpt>
      <trkpt lat="44.7565" lon="-0.328">
        <ele>107</ele>
        <time>2013-11-24T13:24:20Z</time>
      </trkpt>
      <trkpt lat="44.75648" lon="-0.32798">
        <ele>107</ele>
        <time>2013-11-24T13:24:21Z</time>
      </trkpt>
      <trkpt lat="44.75647" lon="-0.32797">
        <ele>107</ele>
        <time>2013-11-24T13:24:22Z</time>
      </trkpt>
      <trkpt lat="44.75633" lon="-0.32782">
        <ele>107</ele>
        <time>2013-11-24T13:24:29Z</time>
      </trkpt>
      <trkpt lat="44.75613" lon="-0.32763">
        <ele>107</ele>
        <time>2013-11-24T13:24:37Z</time>
      </trkpt>
      <trkpt lat="44.75607" lon="-0.32758">
        <ele>107</ele>
        <time>2013-11-24T13:24:39Z</time>
      </trkpt>
      <trkpt lat="44.75605" lon="-0.32755">
        <ele>107</ele>
        <time>2013-11-24T13:24:40Z</time>
      </trkpt>
      <trkpt lat="44.75602" lon="-0.32752">
        <ele>107</ele>
        <time>2013-11-24T13:24:41Z</time>
      </trkpt>
      <trkpt lat="44.75578" lon="-0.32729">
        <ele>107</ele>
        <time>2013-11-24T13:24:49Z</time>
      </trkpt>
      <trkpt lat="44.75561" lon="-0.32715">
        <ele>107</ele>
        <time>2013-11-24T13:24:54Z</time>
      </trkpt>
      <trkpt lat="44.75542" lon="-0.327">
        <ele>106</ele>
        <time>2013-11-24T13:24:59Z</time>
      </trkpt>
      <trkpt lat="44.75538" lon="-0.32697">
        <ele>106</ele>
        <time>2013-11-24T13:25:00Z</time>
      </trkpt>
      <trkpt lat="44.75511" lon="-0.32673">
        <ele>106</ele>
        <time>2013-11-24T13:25:06Z</time>
      </trkpt>
      <trkpt lat="44.75506" lon="-0.32669">
        <ele>105</ele>
        <time>2013-11-24T13:25:07Z</time>
      </trkpt>
      <trkpt lat="44.75497" lon="-0.32661">
        <ele>105</ele>
        <time>2013-11-24T13:25:09Z</time>
      </trkpt>
      <trkpt lat="44.7548" lon="-0.32648">
        <ele>104</ele>
        <time>2013-11-24T13:25:13Z</time>
      </trkpt>
      <trkpt lat="44.75464" lon="-0.32635">
        <ele>103</ele>
        <time>2013-11-24T13:25:17Z</time>
      </trkpt>
      <trkpt lat="44.7546" lon="-0.32631">
        <ele>103</ele>
        <time>2013-11-24T13:25:18Z</time>
      </trkpt>
      <trkpt lat="44.75456" lon="-0.32627">
        <ele>102</ele>
        <time>2013-11-24T13:25:19Z</time>
      </trkpt>
      <trkpt lat="44.75452" lon="-0.32623">
        <ele>102</ele>
        <time>2013-11-24T13:25:20Z</time>
      </trkpt>
      <trkpt lat="44.75447" lon="-0.32619">
        <ele>102</ele>
        <time>2013-11-24T13:25:21Z</time>
      </trkpt>
      <trkpt lat="44.75443" lon="-0.32615">
        <ele>102</ele>
        <time>2013-11-24T13:25:22Z</time>
      </trkpt>
      <trkpt lat="44.75419" lon="-0.32593">
        <ele>102</ele>
        <time>2013-11-24T13:25:28Z</time>
      </trkpt>
      <trkpt lat="44.75406" lon="-0.3258">
        <ele>102</ele>
        <time>2013-11-24T13:25:33Z</time>
      </trkpt>
      <trkpt lat="44.75393" lon="-0.32564">
        <ele>102</ele>
        <time>2013-11-24T13:25:39Z</time>
      </trkpt>
      <trkpt lat="44.75377" lon="-0.32547">
        <ele>103</ele>
        <time>2013-11-24T13:25:45Z</time>
      </trkpt>
      <trkpt lat="44.75368" lon="-0.32538">
        <ele>103</ele>
        <time>2013-11-24T13:25:48Z</time>
      </trkpt>
      <trkpt lat="44.75347" lon="-0.32521">
        <ele>104</ele>
        <time>2013-11-24T13:25:54Z</time>
      </trkpt>
      <trkpt lat="44.75329" lon="-0.32507">
        <ele>105</ele>
        <time>2013-11-24T13:25:59Z</time>
      </trkpt>
      <trkpt lat="44.75326" lon="-0.32503">
        <ele>105</ele>
        <time>2013-11-24T13:26:00Z</time>
      </trkpt>
      <trkpt lat="44.75314" lon="-0.32492">
        <ele>105</ele>
        <time>2013-11-24T13:26:03Z</time>
      </trkpt>
      <trkpt lat="44.7531" lon="-0.32488">
        <ele>105</ele>
        <time>2013-11-24T13:26:04Z</time>
      </trkpt>
      <trkpt lat="44.75306" lon="-0.32485">
        <ele>105</ele>
        <time>2013-11-24T13:26:05Z</time>
      </trkpt>
      <trkpt lat="44.75287" lon="-0.32468">
        <ele>105</ele>
        <time>2013-11-24T13:26:10Z</time>
      </trkpt>
      <trkpt lat="44.75283" lon="-0.32465">
        <ele>105</ele>
        <time>2013-11-24T13:26:11Z</time>
      </trkpt>
      <trkpt lat="44.75269" lon="-0.32454">
        <ele>105</ele>
        <time>2013-11-24T13:26:15Z</time>
      </trkpt>
      <trkpt lat="44.75255" lon="-0.3244">
        <ele>105</ele>
        <time>2013-11-24T13:26:19Z</time>
      </trkpt>
      <trkpt lat="44.75252" lon="-0.32437">
        <ele>105</ele>
        <time>2013-11-24T13:26:20Z</time>
      </trkpt>
      <trkpt lat="44.75248" lon="-0.32434">
        <ele>105</ele>
        <time>2013-11-24T13:26:21Z</time>
      </trkpt>
      <trkpt lat="44.75245" lon="-0.32431">
        <ele>105</ele>
        <time>2013-11-24T13:26:22Z</time>
      </trkpt>
      <trkpt lat="44.75242" lon="-0.32428">
        <ele>105</ele>
        <time>2013-11-24T13:26:23Z</time>
      </trkpt>
      <trkpt lat="44.75226" lon="-0.32412">
        <ele>105</ele>
        <time>2013-11-24T13:26:28Z</time>
      </trkpt>
      <trkpt lat="44.75218" lon="-0.32406">
        <ele>105</ele>
        <time>2013-11-24T13:26:30Z</time>
      </trkpt>
      <trkpt lat="44.75214" lon="-0.32404">
        <ele>105</ele>
        <time>2013-11-24T13:26:31Z</time>
      </trkpt>
      <trkpt lat="44.75202" lon="-0.32394">
        <ele>105</ele>
        <time>2013-11-24T13:26:34Z</time>
      </trkpt>
      <trkpt lat="44.75198" lon="-0.32391">
        <ele>105</ele>
        <time>2013-11-24T13:26:35Z</time>
      </trkpt>
      <trkpt lat="44.75194" lon="-0.32388">
        <ele>104</ele>
        <time>2013-11-24T13:26:36Z</time>
      </trkpt>
      <trkpt lat="44.7519" lon="-0.32385">
        <ele>104</ele>
        <time>2013-11-24T13:26:37Z</time>
      </trkpt>
      <trkpt lat="44.75186" lon="-0.32381">
        <ele>104</ele>
        <time>2013-11-24T13:26:38Z</time>
      </trkpt>
      <trkpt lat="44.75182" lon="-0.32378">
        <ele>104</ele>
        <time>2013-11-24T13:26:39Z</time>
      </trkpt>
      <trkpt lat="44.7516" lon="-0.32363">
        <ele>104</ele>
        <time>2013-11-24T13:26:44Z</time>
      </trkpt>
      <trkpt lat="44.7512" lon="-0.32333">
        <ele>103</ele>
        <time>2013-11-24T13:26:52Z</time>
      </trkpt>
      <trkpt lat="44.75079" lon="-0.32302">
        <ele>102</ele>
        <time>2013-11-24T13:26:59Z</time>
      </trkpt>
      <trkpt lat="44.75037" lon="-0.32272">
        <ele>101</ele>
        <time>2013-11-24T13:27:06Z</time>
      </trkpt>
      <trkpt lat="44.75002" lon="-0.32244">
        <ele>100</ele>
        <time>2013-11-24T13:27:13Z</time>
      </trkpt>
      <trkpt lat="44.74997" lon="-0.32239">
        <ele>100</ele>
        <time>2013-11-24T13:27:14Z</time>
      </trkpt>
      <trkpt lat="44.74986" lon="-0.32229">
        <ele>99</ele>
        <time>2013-11-24T13:27:16Z</time>
      </trkpt>
      <trkpt lat="44.74939" lon="-0.32194">
        <ele>98</ele>
        <time>2013-11-24T13:27:24Z</time>
      </trkpt>
      <trkpt lat="44.74933" lon="-0.32191">
        <ele>98</ele>
        <time>2013-11-24T13:27:25Z</time>
      </trkpt>
      <trkpt lat="44.74921" lon="-0.32184">
        <ele>97</ele>
        <time>2013-11-24T13:27:27Z</time>
      </trkpt>
      <trkpt lat="44.7491" lon="-0.32176">
        <ele>96</ele>
        <time>2013-11-24T13:27:29Z</time>
      </trkpt>
      <trkpt lat="44.74905" lon="-0.32173">
        <ele>96</ele>
        <time>2013-11-24T13:27:30Z</time>
      </trkpt>
      <trkpt lat="44.749" lon="-0.32169">
        <ele>96</ele>
        <time>2013-11-24T13:27:31Z</time>
      </trkpt>
      <trkpt lat="44.7488" lon="-0.32149">
        <ele>95</ele>
        <time>2013-11-24T13:27:36Z</time>
      </trkpt>
      <trkpt lat="44.74876" lon="-0.32145">
        <ele>95</ele>
        <time>2013-11-24T13:27:37Z</time>
      </trkpt>
      <trkpt lat="44.74866" lon="-0.3214">
        <ele>94</ele>
        <time>2013-11-24T13:27:39Z</time>
      </trkpt>
      <trkpt lat="44.74861" lon="-0.32137">
        <ele>94</ele>
        <time>2013-11-24T13:27:40Z</time>
      </trkpt>
      <trkpt lat="44.74845" lon="-0.32126">
        <ele>92</ele>
        <time>2013-11-24T13:27:43Z</time>
      </trkpt>
      <trkpt lat="44.74841" lon="-0.32123">
        <ele>91</ele>
        <time>2013-11-24T13:27:44Z</time>
      </trkpt>
      <trkpt lat="44.74816" lon="-0.32107">
        <ele>87</ele>
        <time>2013-11-24T13:27:49Z</time>
      </trkpt>
      <trkpt lat="44.74786" lon="-0.32088">
        <ele>82</ele>
        <time>2013-11-24T13:27:55Z</time>
      </trkpt>
      <trkpt lat="44.74782" lon="-0.32083">
        <ele>81</ele>
        <time>2013-11-24T13:27:56Z</time>
      </trkpt>
      <trkpt lat="44.74779" lon="-0.32077">
        <ele>81</ele>
        <time>2013-11-24T13:27:57Z</time>
      </trkpt>
      <trkpt lat="44.74764" lon="-0.32052">
        <ele>78</ele>
        <time>2013-11-24T13:28:01Z</time>
      </trkpt>
      <trkpt lat="44.74742" lon="-0.32026">
        <ele>73</ele>
        <time>2013-11-24T13:28:06Z</time>
      </trkpt>
      <trkpt lat="44.74738" lon="-0.32022">
        <ele>73</ele>
        <time>2013-11-24T13:28:07Z</time>
      </trkpt>
      <trkpt lat="44.74734" lon="-0.32017">
        <ele>72</ele>
        <time>2013-11-24T13:28:08Z</time>
      </trkpt>
      <trkpt lat="44.74706" lon="-0.31996">
        <ele>68</ele>
        <time>2013-11-24T13:28:14Z</time>
      </trkpt>
      <trkpt lat="44.747" lon="-0.31995">
        <ele>68</ele>
        <time>2013-11-24T13:28:15Z</time>
      </trkpt>
      <trkpt lat="44.74694" lon="-0.31993">
        <ele>67</ele>
        <time>2013-11-24T13:28:16Z</time>
      </trkpt>
      <trkpt lat="44.74689" lon="-0.31992">
        <ele>67</ele>
        <time>2013-11-24T13:28:17Z</time>
      </trkpt>
      <trkpt lat="44.74682" lon="-0.31992">
        <ele>66</ele>
        <time>2013-11-24T13:28:18Z</time>
      </trkpt>
      <trkpt lat="44.74676" lon="-0.31992">
        <ele>66</ele>
        <time>2013-11-24T13:28:19Z</time>
      </trkpt>
      <trkpt lat="44.74671" lon="-0.31991">
        <ele>66</ele>
        <time>2013-11-24T13:28:20Z</time>
      </trkpt>
      <trkpt lat="44.7464" lon="-0.31989">
        <ele>65</ele>
        <time>2013-11-24T13:28:27Z</time>
      </trkpt>
      <trkpt lat="44.74627" lon="-0.31989">
        <ele>66</ele>
        <time>2013-11-24T13:28:30Z</time>
      </trkpt>
      <trkpt lat="44.74623" lon="-0.31989">
        <ele>66</ele>
        <time>2013-11-24T13:28:31Z</time>
      </trkpt>
      <trkpt lat="44.7462" lon="-0.31988">
        <ele>66</ele>
        <time>2013-11-24T13:28:32Z</time>
      </trkpt>
      <trkpt lat="44.74617" lon="-0.31987">
        <ele>66</ele>
        <time>2013-11-24T13:28:33Z</time>
      </trkpt>
      <trkpt lat="44.74614" lon="-0.31987">
        <ele>66</ele>
        <time>2013-11-24T13:28:34Z</time>
      </trkpt>
      <trkpt lat="44.74612" lon="-0.31986">
        <ele>66</ele>
        <time>2013-11-24T13:28:35Z</time>
      </trkpt>
      <trkpt lat="44.7461" lon="-0.31987">
        <ele>66</ele>
        <time>2013-11-24T13:28:36Z</time>
      </trkpt>
      <trkpt lat="44.74607" lon="-0.31985">
        <ele>66</ele>
        <time>2013-11-24T13:28:41Z</time>
      </trkpt>
      <trkpt lat="44.74607" lon="-0.31984">
        <ele>66</ele>
        <time>2013-11-24T13:28:52Z</time>
      </trkpt>
      <trkpt lat="44.74608" lon="-0.31984">
        <ele>66</ele>
        <time>2013-11-24T13:29:05Z</time>
      </trkpt>
      <trkpt lat="44.74608" lon="-0.31983">
        <ele>66</ele>
        <time>2013-11-24T13:29:21Z</time>
      </trkpt>
      <trkpt lat="44.74607" lon="-0.31982">
        <ele>67</ele>
        <time>2013-11-24T13:29:33Z</time>
      </trkpt>
      <trkpt lat="44.74608" lon="-0.31981">
        <ele>67</ele>
        <time>2013-11-24T13:29:50Z</time>
      </trkpt>
      <trkpt lat="44.74607" lon="-0.31981">
        <ele>67</ele>
        <time>2013-11-24T13:30:02Z</time>
      </trkpt>
      <trkpt lat="44.74604" lon="-0.31982">
        <ele>67</ele>
        <time>2013-11-24T13:30:11Z</time>
      </trkpt>
      <trkpt lat="44.74603" lon="-0.31983">
        <ele>67</ele>
        <time>2013-11-24T13:30:12Z</time>
      </trkpt>
      <trkpt lat="44.7459" lon="-0.32">
        <ele>67</ele>
        <time>2013-11-24T13:30:18Z</time>
      </trkpt>
      <trkpt lat="44.74584" lon="-0.3201">
        <ele>67</ele>
        <time>2013-11-24T13:30:20Z</time>
      </trkpt>
      <trkpt lat="44.74571" lon="-0.32048">
        <ele>67</ele>
        <time>2013-11-24T13:30:26Z</time>
      </trkpt>
      <trkpt lat="44.7457" lon="-0.32053">
        <ele>66</ele>
        <time>2013-11-24T13:30:27Z</time>
      </trkpt>
      <trkpt lat="44.74565" lon="-0.32072">
        <ele>66</ele>
        <time>2013-11-24T13:30:33Z</time>
      </trkpt>
      <trkpt lat="44.74558" lon="-0.32084">
        <ele>65</ele>
        <time>2013-11-24T13:30:36Z</time>
      </trkpt>
      <trkpt lat="44.74548" lon="-0.32107">
        <ele>64</ele>
        <time>2013-11-24T13:30:42Z</time>
      </trkpt>
      <trkpt lat="44.74531" lon="-0.32123">
        <ele>64</ele>
        <time>2013-11-24T13:30:49Z</time>
      </trkpt>
      <trkpt lat="44.7452" lon="-0.32134">
        <ele>64</ele>
        <time>2013-11-24T13:30:55Z</time>
      </trkpt>
      <trkpt lat="44.74506" lon="-0.32153">
        <ele>63</ele>
        <time>2013-11-24T13:31:01Z</time>
      </trkpt>
      <trkpt lat="44.745" lon="-0.3216">
        <ele>63</ele>
        <time>2013-11-24T13:31:03Z</time>
      </trkpt>
      <trkpt lat="44.74485" lon="-0.32164">
        <ele>63</ele>
        <time>2013-11-24T13:31:07Z</time>
      </trkpt>
      <trkpt lat="44.74467" lon="-0.32169">
        <ele>64</ele>
        <time>2013-11-24T13:31:13Z</time>
      </trkpt>
      <trkpt lat="44.74464" lon="-0.32169">
        <ele>64</ele>
        <time>2013-11-24T13:31:15Z</time>
      </trkpt>
      <trkpt lat="44.74454" lon="-0.32165">
        <ele>65</ele>
        <time>2013-11-24T13:31:21Z</time>
      </trkpt>
      <trkpt lat="44.74441" lon="-0.32164">
        <ele>65</ele>
        <time>2013-11-24T13:31:26Z</time>
      </trkpt>
      <trkpt lat="44.74432" lon="-0.32153">
        <ele>66</ele>
        <time>2013-11-24T13:31:31Z</time>
      </trkpt>
      <trkpt lat="44.74431" lon="-0.32152">
        <ele>66</ele>
        <time>2013-11-24T13:31:32Z</time>
      </trkpt>
      <trkpt lat="44.74428" lon="-0.32147">
        <ele>66</ele>
        <time>2013-11-24T13:31:35Z</time>
      </trkpt>
      <trkpt lat="44.74425" lon="-0.32138">
        <ele>66</ele>
        <time>2013-11-24T13:31:38Z</time>
      </trkpt>
      <trkpt lat="44.74421" lon="-0.32117">
        <ele>67</ele>
        <time>2013-11-24T13:31:44Z</time>
      </trkpt>
      <trkpt lat="44.74417" lon="-0.321">
        <ele>68</ele>
        <time>2013-11-24T13:31:51Z</time>
      </trkpt>
      <trkpt lat="44.74412" lon="-0.3209">
        <ele>68</ele>
        <time>2013-11-24T13:31:55Z</time>
      </trkpt>
      <trkpt lat="44.74403" lon="-0.32087">
        <ele>68</ele>
        <time>2013-11-24T13:31:59Z</time>
      </trkpt>
      <trkpt lat="44.74387" lon="-0.32096">
        <ele>68</ele>
        <time>2013-11-24T13:32:08Z</time>
      </trkpt>
      <trkpt lat="44.74378" lon="-0.32103">
        <ele>68</ele>
        <time>2013-11-24T13:32:14Z</time>
      </trkpt>
      <trkpt lat="44.74372" lon="-0.32107">
        <ele>68</ele>
        <time>2013-11-24T13:32:18Z</time>
      </trkpt>
      <trkpt lat="44.74356" lon="-0.32113">
        <ele>68</ele>
        <time>2013-11-24T13:32:26Z</time>
      </trkpt>
      <trkpt lat="44.74346" lon="-0.32117">
        <ele>68</ele>
        <time>2013-11-24T13:32:30Z</time>
      </trkpt>
      <trkpt lat="44.74326" lon="-0.32136">
        <ele>67</ele>
        <time>2013-11-24T13:32:37Z</time>
      </trkpt>
      <trkpt lat="44.74314" lon="-0.32143">
        <ele>67</ele>
      </trkpt>
      <trkpt lat="44.7431" lon="-0.32126">
        <ele>69</ele>
        <time>2013-11-24T13:33:37Z</time>
      </trkpt>
      <trkpt lat="44.7431" lon="-0.32124">
        <ele>69</ele>
        <time>2013-11-24T13:33:38Z</time>
      </trkpt>
      <trkpt lat="44.74305" lon="-0.32118">
        <ele>69</ele>
        <time>2013-11-24T13:33:46Z</time>
      </trkpt>
      <trkpt lat="44.74301" lon="-0.32109">
        <ele>70</ele>
        <time>2013-11-24T13:33:53Z</time>
      </trkpt>
      <trkpt lat="44.74301" lon="-0.32109">
        <ele>70</ele>
        <time>2013-11-24T13:33:54Z</time>
      </trkpt>
      <trkpt lat="44.74296" lon="-0.321">
        <ele>71</ele>
        <time>2013-11-24T13:34:03Z</time>
      </trkpt>
      <trkpt lat="44.74292" lon="-0.32088">
        <ele>73</ele>
        <time>2013-11-24T13:34:12Z</time>
      </trkpt>
      <trkpt lat="44.74287" lon="-0.32077">
        <ele>74</ele>
        <time>2013-11-24T13:34:21Z</time>
      </trkpt>
      <trkpt lat="44.74285" lon="-0.32073">
        <ele>75</ele>
        <time>2013-11-24T13:34:25Z</time>
      </trkpt>
      <trkpt lat="44.74281" lon="-0.32059">
        <ele>76</ele>
        <time>2013-11-24T13:34:35Z</time>
      </trkpt>
      <trkpt lat="44.74281" lon="-0.32058">
        <ele>77</ele>
        <time>2013-11-24T13:34:39Z</time>
      </trkpt>
      <trkpt lat="44.74281" lon="-0.32059">
        <ele>76</ele>
        <time>2013-11-24T13:34:49Z</time>
      </trkpt>
      <trkpt lat="44.74278" lon="-0.32055">
        <ele>77</ele>
        <time>2013-11-24T13:34:58Z</time>
      </trkpt>
      <trkpt lat="44.74276" lon="-0.32046">
        <ele>78</ele>
        <time>2013-11-24T13:35:07Z</time>
      </trkpt>
      <trkpt lat="44.74275" lon="-0.32043">
        <ele>78</ele>
        <time>2013-11-24T13:35:13Z</time>
      </trkpt>
      <trkpt lat="44.74271" lon="-0.32034">
        <ele>79</ele>
        <time>2013-11-24T13:35:21Z</time>
      </trkpt>
      <trkpt lat="44.74269" lon="-0.32026">
        <ele>80</ele>
        <time>2013-11-24T13:35:28Z</time>
      </trkpt>
      <trkpt lat="44.74269" lon="-0.32024">
        <ele>81</ele>
        <time>2013-11-24T13:35:35Z</time>
      </trkpt>
      <trkpt lat="44.74269" lon="-0.32022">
        <ele>81</ele>
        <time>2013-11-24T13:35:38Z</time>
      </trkpt>
      <trkpt lat="44.74265" lon="-0.32014">
        <ele>82</ele>
        <time>2013-11-24T13:35:45Z</time>
      </trkpt>
      <trkpt lat="44.74265" lon="-0.32013">
        <ele>82</ele>
        <time>2013-11-24T13:35:46Z</time>
      </trkpt>
      <trkpt lat="44.74261" lon="-0.32004">
        <ele>84</ele>
        <time>2013-11-24T13:35:55Z</time>
      </trkpt>
      <trkpt lat="44.74259" lon="-0.32">
        <ele>84</ele>
        <time>2013-11-24T13:35:59Z</time>
      </trkpt>
      <trkpt lat="44.74256" lon="-0.31991">
        <ele>86</ele>
        <time>2013-11-24T13:36:08Z</time>
      </trkpt>
      <trkpt lat="44.74253" lon="-0.31986">
        <ele>87</ele>
        <time>2013-11-24T13:36:15Z</time>
      </trkpt>
      <trkpt lat="44.7425" lon="-0.31979">
        <ele>88</ele>
        <time>2013-11-24T13:36:23Z</time>
      </trkpt>
      <trkpt lat="44.74248" lon="-0.31971">
        <ele>89</ele>
        <time>2013-11-24T13:36:31Z</time>
      </trkpt>
      <trkpt lat="44.74246" lon="-0.31963">
        <ele>91</ele>
        <time>2013-11-24T13:36:40Z</time>
      </trkpt>
      <trkpt lat="44.74243" lon="-0.31955">
        <ele>92</ele>
        <time>2013-11-24T13:36:47Z</time>
      </trkpt>
      <trkpt lat="44.74242" lon="-0.31952">
        <ele>92</ele>
        <time>2013-11-24T13:36:54Z</time>
      </trkpt>
      <trkpt lat="44.74241" lon="-0.31946">
        <ele>92</ele>
        <time>2013-11-24T13:37:04Z</time>
      </trkpt>
      <trkpt lat="44.74239" lon="-0.31938">
        <ele>93</ele>
        <time>2013-11-24T13:37:11Z</time>
      </trkpt>
      <trkpt lat="44.74236" lon="-0.31931">
        <ele>94</ele>
        <time>2013-11-24T13:37:18Z</time>
      </trkpt>
      <trkpt lat="44.74233" lon="-0.31921">
        <ele>95</ele>
        <time>2013-11-24T13:37:26Z</time>
      </trkpt>
      <trkpt lat="44.74229" lon="-0.31911">
        <ele>95</ele>
        <time>2013-11-24T13:37:34Z</time>
      </trkpt>
      <trkpt lat="44.74227" lon="-0.31904">
        <ele>95</ele>
        <time>2013-11-24T13:37:41Z</time>
      </trkpt>
      <trkpt lat="44.74224" lon="-0.31898">
        <ele>95</ele>
        <time>2013-11-24T13:37:48Z</time>
      </trkpt>
      <trkpt lat="44.74222" lon="-0.31894">
        <ele>95</ele>
        <time>2013-11-24T13:37:55Z</time>
      </trkpt>
      <trkpt lat="44.74221" lon="-0.31886">
        <ele>95</ele>
        <time>2013-11-24T13:38:02Z</time>
      </trkpt>
      <trkpt lat="44.74221" lon="-0.31885">
        <ele>96</ele>
        <time>2013-11-24T13:38:07Z</time>
      </trkpt>
      <trkpt lat="44.74219" lon="-0.31876">
        <ele>96</ele>
        <time>2013-11-24T13:38:13Z</time>
      </trkpt>
      <trkpt lat="44.74215" lon="-0.31847">
        <ele>96</ele>
        <time>2013-11-24T13:38:21Z</time>
      </trkpt>
      <trkpt lat="44.74208" lon="-0.31812">
        <ele>97</ele>
        <time>2013-11-24T13:38:30Z</time>
      </trkpt>
      <trkpt lat="44.74201" lon="-0.31777">
        <ele>98</ele>
        <time>2013-11-24T13:38:39Z</time>
      </trkpt>
      <trkpt lat="44.74196" lon="-0.31745">
        <ele>99</ele>
        <time>2013-11-24T13:38:47Z</time>
      </trkpt>
      <trkpt lat="44.74196" lon="-0.31742">
        <ele>99</ele>
        <time>2013-11-24T13:38:48Z</time>
      </trkpt>
      <trkpt lat="44.74192" lon="-0.31728">
        <ele>100</ele>
        <time>2013-11-24T13:38:53Z</time>
      </trkpt>
      <trkpt lat="44.74191" lon="-0.31707">
        <ele>101</ele>
        <time>2013-11-24T13:39:01Z</time>
      </trkpt>
      <trkpt lat="44.74193" lon="-0.31692">
        <ele>102</ele>
        <time>2013-11-24T13:39:08Z</time>
      </trkpt>
      <trkpt lat="44.74193" lon="-0.31671">
        <ele>103</ele>
        <time>2013-11-24T13:39:17Z</time>
      </trkpt>
      <trkpt lat="44.74192" lon="-0.31644">
        <ele>104</ele>
        <time>2013-11-24T13:39:28Z</time>
      </trkpt>
      <trkpt lat="44.74189" lon="-0.3162">
        <ele>105</ele>
        <time>2013-11-24T13:39:37Z</time>
      </trkpt>
      <trkpt lat="44.74186" lon="-0.31592">
        <ele>106</ele>
        <time>2013-11-24T13:39:48Z</time>
      </trkpt>
      <trkpt lat="44.74183" lon="-0.31568">
        <ele>106</ele>
        <time>2013-11-24T13:39:58Z</time>
      </trkpt>
      <trkpt lat="44.74174" lon="-0.31567">
        <ele>106</ele>
        <time>2013-11-24T13:40:05Z</time>
      </trkpt>
      <trkpt lat="44.74168" lon="-0.31569">
        <ele>106</ele>
        <time>2013-11-24T13:40:12Z</time>
      </trkpt>
      <trkpt lat="44.74164" lon="-0.31569">
        <ele>105</ele>
        <time>2013-11-24T13:40:22Z</time>
      </trkpt>
      <trkpt lat="44.74155" lon="-0.31571">
        <ele>105</ele>
        <time>2013-11-24T13:40:30Z</time>
      </trkpt>
      <trkpt lat="44.74151" lon="-0.31572">
        <ele>105</ele>
        <time>2013-11-24T13:40:33Z</time>
      </trkpt>
      <trkpt lat="44.74147" lon="-0.31572">
        <ele>105</ele>
        <time>2013-11-24T13:40:37Z</time>
      </trkpt>
      <trkpt lat="44.74145" lon="-0.31572">
        <ele>105</ele>
        <time>2013-11-24T13:40:44Z</time>
      </trkpt>
      <trkpt lat="44.74145" lon="-0.31572">
        <ele>105</ele>
        <time>2013-11-24T13:40:56Z</time>
      </trkpt>
      <trkpt lat="44.74144" lon="-0.31571">
        <ele>105</ele>
        <time>2013-11-24T13:41:09Z</time>
      </trkpt>
      <trkpt lat="44.74144" lon="-0.31571">
        <ele>105</ele>
        <time>2013-11-24T13:41:32Z</time>
      </trkpt>
      <trkpt lat="44.74144" lon="-0.31572">
        <ele>105</ele>
        <time>2013-11-24T13:41:43Z</time>
      </trkpt>
      <trkpt lat="44.74141" lon="-0.31572">
        <ele>105</ele>
        <time>2013-11-24T13:41:50Z</time>
      </trkpt>
      <trkpt lat="44.7413" lon="-0.31573">
        <ele>105</ele>
        <time>2013-11-24T13:41:56Z</time>
      </trkpt>
      <trkpt lat="44.74108" lon="-0.31577">
        <ele>105</ele>
        <time>2013-11-24T13:42:04Z</time>
      </trkpt>
      <trkpt lat="44.74077" lon="-0.31582">
        <ele>106</ele>
        <time>2013-11-24T13:42:13Z</time>
      </trkpt>
      <trkpt lat="44.74048" lon="-0.31586">
        <ele>107</ele>
        <time>2013-11-24T13:42:21Z</time>
      </trkpt>
      <trkpt lat="44.74003" lon="-0.31593">
        <ele>107</ele>
        <time>2013-11-24T13:42:33Z</time>
      </trkpt>
      <trkpt lat="44.73972" lon="-0.31603">
        <ele>106</ele>
        <time>2013-11-24T13:42:42Z</time>
      </trkpt>
      <trkpt lat="44.73952" lon="-0.31619">
        <ele>105</ele>
        <time>2013-11-24T13:42:49Z</time>
      </trkpt>
      <trkpt lat="44.73946" lon="-0.31628">
        <ele>105</ele>
        <time>2013-11-24T13:42:51Z</time>
      </trkpt>
      <trkpt lat="44.73944" lon="-0.31633">
        <ele>105</ele>
        <time>2013-11-24T13:42:52Z</time>
      </trkpt>
      <trkpt lat="44.73942" lon="-0.3164">
        <ele>105</ele>
        <time>2013-11-24T13:42:53Z</time>
      </trkpt>
      <trkpt lat="44.73936" lon="-0.31675">
        <ele>103</ele>
        <time>2013-11-24T13:42:59Z</time>
      </trkpt>
      <trkpt lat="44.73933" lon="-0.31726">
        <ele>100</ele>
        <time>2013-11-24T13:43:06Z</time>
      </trkpt>
      <trkpt lat="44.73928" lon="-0.31763">
        <ele>98</ele>
        <time>2013-11-24T13:43:10Z</time>
      </trkpt>
      <trkpt lat="44.73909" lon="-0.3183">
        <ele>95</ele>
        <time>2013-11-24T13:43:17Z</time>
      </trkpt>
      <trkpt lat="44.73905" lon="-0.3184">
        <ele>94</ele>
        <time>2013-11-24T13:43:18Z</time>
      </trkpt>
      <trkpt lat="44.73871" lon="-0.31894">
        <ele>91</ele>
        <time>2013-11-24T13:43:24Z</time>
      </trkpt>
      <trkpt lat="44.73821" lon="-0.31954">
        <ele>87</ele>
        <time>2013-11-24T13:43:31Z</time>
      </trkpt>
      <trkpt lat="44.73773" lon="-0.32027">
        <ele>83</ele>
        <time>2013-11-24T13:43:38Z</time>
      </trkpt>
      <trkpt lat="44.73758" lon="-0.32048">
        <ele>82</ele>
        <time>2013-11-24T13:43:40Z</time>
      </trkpt>
      <trkpt lat="44.73749" lon="-0.32055">
        <ele>82</ele>
        <time>2013-11-24T13:43:41Z</time>
      </trkpt>
      <trkpt lat="44.73739" lon="-0.32059">
        <ele>81</ele>
        <time>2013-11-24T13:43:42Z</time>
      </trkpt>
      <trkpt lat="44.73728" lon="-0.3206">
        <ele>80</ele>
        <time>2013-11-24T13:43:43Z</time>
      </trkpt>
      <trkpt lat="44.73718" lon="-0.32058">
        <ele>79</ele>
        <time>2013-11-24T13:43:44Z</time>
      </trkpt>
      <trkpt lat="44.73709" lon="-0.32052">
        <ele>78</ele>
        <time>2013-11-24T13:43:45Z</time>
      </trkpt>
      <trkpt lat="44.73701" lon="-0.32045">
        <ele>77</ele>
        <time>2013-11-24T13:43:46Z</time>
      </trkpt>
      <trkpt lat="44.73693" lon="-0.32037">
        <ele>76</ele>
        <time>2013-11-24T13:43:47Z</time>
      </trkpt>
      <trkpt lat="44.73638" lon="-0.31987">
        <ele>72</ele>
        <time>2013-11-24T13:43:54Z</time>
      </trkpt>
      <trkpt lat="44.73616" lon="-0.3197">
        <ele>70</ele>
        <time>2013-11-24T13:43:58Z</time>
      </trkpt>
      <trkpt lat="44.73583" lon="-0.31953">
        <ele>67</ele>
        <time>2013-11-24T13:44:05Z</time>
      </trkpt>
      <trkpt lat="44.73564" lon="-0.31951">
        <ele>67</ele>
        <time>2013-11-24T13:44:11Z</time>
      </trkpt>
      <trkpt lat="44.73563" lon="-0.31954">
        <ele>67</ele>
        <time>2013-11-24T13:44:12Z</time>
      </trkpt>
      <trkpt lat="44.73563" lon="-0.31958">
        <ele>67</ele>
        <time>2013-11-24T13:44:13Z</time>
      </trkpt>
      <trkpt lat="44.73564" lon="-0.3196">
        <ele>68</ele>
        <time>2013-11-24T13:44:14Z</time>
      </trkpt>
      <trkpt lat="44.73566" lon="-0.31961">
        <ele>68</ele>
        <time>2013-11-24T13:44:15Z</time>
      </trkpt>
      <trkpt lat="44.73568" lon="-0.31961">
        <ele>68</ele>
        <time>2013-11-24T13:44:16Z</time>
      </trkpt>
      <trkpt lat="44.7357" lon="-0.31961">
        <ele>68</ele>
        <time>2013-11-24T13:44:17Z</time>
      </trkpt>
      <trkpt lat="44.73572" lon="-0.3196">
        <ele>68</ele>
        <time>2013-11-24T13:44:18Z</time>
      </trkpt>
      <trkpt lat="44.73584" lon="-0.31965">
        <ele>68</ele>
        <time>2013-11-24T13:44:24Z</time>
      </trkpt>
      <trkpt lat="44.73584" lon="-0.31968">
        <ele>69</ele>
        <time>2013-11-24T13:44:25Z</time>
      </trkpt>
      <trkpt lat="44.73584" lon="-0.31971">
        <ele>69</ele>
        <time>2013-11-24T13:44:26Z</time>
      </trkpt>
      <trkpt lat="44.73584" lon="-0.31975">
        <ele>69</ele>
        <time>2013-11-24T13:44:27Z</time>
      </trkpt>
      <trkpt lat="44.73584" lon="-0.31978">
        <ele>70</ele>
        <time>2013-11-24T13:44:28Z</time>
      </trkpt>
      <trkpt lat="44.73589" lon="-0.32003">
        <ele>72</ele>
        <time>2013-11-24T13:44:37Z</time>
      </trkpt>
      <trkpt lat="44.73593" lon="-0.32026">
        <ele>74</ele>
        <time>2013-11-24T13:44:46Z</time>
      </trkpt>
      <trkpt lat="44.73596" lon="-0.32045">
        <ele>74</ele>
        <time>2013-11-24T13:44:54Z</time>
      </trkpt>
      <trkpt lat="44.73598" lon="-0.32066">
        <ele>75</ele>
        <time>2013-11-24T13:45:02Z</time>
      </trkpt>
      <trkpt lat="44.736" lon="-0.32088">
        <ele>76</ele>
        <time>2013-11-24T13:45:10Z</time>
      </trkpt>
      <trkpt lat="44.73598" lon="-0.32109">
        <ele>77</ele>
        <time>2013-11-24T13:45:18Z</time>
      </trkpt>
      <trkpt lat="44.73595" lon="-0.32126">
        <ele>77</ele>
        <time>2013-11-24T13:45:24Z</time>
      </trkpt>
      <trkpt lat="44.73586" lon="-0.32146">
        <ele>77</ele>
        <time>2013-11-24T13:45:32Z</time>
      </trkpt>
      <trkpt lat="44.73575" lon="-0.32169">
        <ele>77</ele>
        <time>2013-11-24T13:45:41Z</time>
      </trkpt>
      <trkpt lat="44.73563" lon="-0.32188">
        <ele>77</ele>
        <time>2013-11-24T13:45:50Z</time>
      </trkpt>
      <trkpt lat="44.7355" lon="-0.32204">
        <ele>78</ele>
        <time>2013-11-24T13:45:58Z</time>
      </trkpt>
      <trkpt lat="44.73537" lon="-0.3222">
        <ele>79</ele>
        <time>2013-11-24T13:46:05Z</time>
      </trkpt>
      <trkpt lat="44.73523" lon="-0.32236">
        <ele>81</ele>
        <time>2013-11-24T13:46:12Z</time>
      </trkpt>
      <trkpt lat="44.73513" lon="-0.32249">
        <ele>82</ele>
        <time>2013-11-24T13:46:17Z</time>
      </trkpt>
      <trkpt lat="44.73503" lon="-0.32261">
        <ele>84</ele>
        <time>2013-11-24T13:46:23Z</time>
      </trkpt>
      <trkpt lat="44.73499" lon="-0.32268">
        <ele>84</ele>
        <time>2013-11-24T13:46:29Z</time>
      </trkpt>
      <trkpt lat="44.73485" lon="-0.32283">
        <ele>85</ele>
        <time>2013-11-24T13:46:37Z</time>
      </trkpt>
      <trkpt lat="44.7347" lon="-0.32298">
        <ele>86</ele>
        <time>2013-11-24T13:46:44Z</time>
      </trkpt>
      <trkpt lat="44.73459" lon="-0.32313">
        <ele>85</ele>
        <time>2013-11-24T13:46:49Z</time>
      </trkpt>
      <trkpt lat="44.73442" lon="-0.3233">
        <ele>84</ele>
        <time>2013-11-24T13:46:54Z</time>
      </trkpt>
      <trkpt lat="44.73438" lon="-0.32334">
        <ele>84</ele>
        <time>2013-11-24T13:46:55Z</time>
      </trkpt>
      <trkpt lat="44.73418" lon="-0.3235">
        <ele>81</ele>
        <time>2013-11-24T13:47:01Z</time>
      </trkpt>
      <trkpt lat="44.73408" lon="-0.32365">
        <ele>80</ele>
        <time>2013-11-24T13:47:06Z</time>
      </trkpt>
      <trkpt lat="44.73399" lon="-0.3238">
        <ele>80</ele>
        <time>2013-11-24T13:47:12Z</time>
      </trkpt>
      <trkpt lat="44.73398" lon="-0.32382">
        <ele>80</ele>
        <time>2013-11-24T13:47:13Z</time>
      </trkpt>
      <trkpt lat="44.73396" lon="-0.32386">
        <ele>80</ele>
        <time>2013-11-24T13:47:15Z</time>
      </trkpt>
      <trkpt lat="44.73395" lon="-0.3239">
        <ele>80</ele>
        <time>2013-11-24T13:47:16Z</time>
      </trkpt>
      <trkpt lat="44.73383" lon="-0.32407">
        <ele>80</ele>
        <time>2013-11-24T13:47:22Z</time>
      </trkpt>
      <trkpt lat="44.73373" lon="-0.32425">
        <ele>80</ele>
        <time>2013-11-24T13:47:29Z</time>
      </trkpt>
      <trkpt lat="44.73363" lon="-0.32437">
        <ele>80</ele>
        <time>2013-11-24T13:47:36Z</time>
      </trkpt>
      <trkpt lat="44.73357" lon="-0.32445">
        <ele>80</ele>
        <time>2013-11-24T13:47:43Z</time>
      </trkpt>
      <trkpt lat="44.73354" lon="-0.32447">
        <ele>80</ele>
        <time>2013-11-24T13:47:50Z</time>
      </trkpt>
      <trkpt lat="44.73354" lon="-0.32447">
        <ele>80</ele>
        <time>2013-11-24T13:47:57Z</time>
      </trkpt>
      <trkpt lat="44.73353" lon="-0.32448">
        <ele>80</ele>
        <time>2013-11-24T13:48:04Z</time>
      </trkpt>
      <trkpt lat="44.73353" lon="-0.32449">
        <ele>80</ele>
        <time>2013-11-24T13:48:11Z</time>
      </trkpt>
      <trkpt lat="44.73353" lon="-0.32451">
        <ele>80</ele>
        <time>2013-11-24T13:48:22Z</time>
      </trkpt>
      <trkpt lat="44.73353" lon="-0.32452">
        <ele>80</ele>
        <time>2013-11-24T13:48:29Z</time>
      </trkpt>
      <trkpt lat="44.73353" lon="-0.32457">
        <ele>80</ele>
        <time>2013-11-24T13:48:37Z</time>
      </trkpt>
      <trkpt lat="44.73354" lon="-0.32459">
        <ele>80</ele>
        <time>2013-11-24T13:48:43Z</time>
      </trkpt>
      <trkpt lat="44.73354" lon="-0.32461">
        <ele>80</ele>
        <time>2013-11-24T13:48:49Z</time>
      </trkpt>
      <trkpt lat="44.73355" lon="-0.32463">
        <ele>81</ele>
        <time>2013-11-24T13:48:58Z</time>
      </trkpt>
      <trkpt lat="44.73355" lon="-0.3247">
        <ele>81</ele>
        <time>2013-11-24T13:49:02Z</time>
      </trkpt>
      <trkpt lat="44.73356" lon="-0.32477">
        <ele>82</ele>
        <time>2013-11-24T13:49:05Z</time>
      </trkpt>
      <trkpt lat="44.73357" lon="-0.32479">
        <ele>82</ele>
        <time>2013-11-24T13:49:06Z</time>
      </trkpt>
      <trkpt lat="44.73358" lon="-0.32481">
        <ele>82</ele>
        <time>2013-11-24T13:49:07Z</time>
      </trkpt>
      <trkpt lat="44.7336" lon="-0.32483">
        <ele>83</ele>
        <time>2013-11-24T13:49:08Z</time>
      </trkpt>
      <trkpt lat="44.73361" lon="-0.32486">
        <ele>83</ele>
        <time>2013-11-24T13:49:09Z</time>
      </trkpt>
      <trkpt lat="44.73362" lon="-0.32488">
        <ele>83</ele>
        <time>2013-11-24T13:49:10Z</time>
      </trkpt>
      <trkpt lat="44.73363" lon="-0.32491">
        <ele>84</ele>
        <time>2013-11-24T13:49:11Z</time>
      </trkpt>
      <trkpt lat="44.73364" lon="-0.32492">
        <ele>84</ele>
        <time>2013-11-24T13:49:12Z</time>
      </trkpt>
      <trkpt lat="44.73366" lon="-0.32495">
        <ele>84</ele>
        <time>2013-11-24T13:49:13Z</time>
      </trkpt>
      <trkpt lat="44.73369" lon="-0.32497">
        <ele>85</ele>
        <time>2013-11-24T13:49:14Z</time>
      </trkpt>
      <trkpt lat="44.73371" lon="-0.32499">
        <ele>86</ele>
        <time>2013-11-24T13:49:15Z</time>
      </trkpt>
      <trkpt lat="44.73373" lon="-0.32501">
        <ele>86</ele>
        <time>2013-11-24T13:49:16Z</time>
      </trkpt>
      <trkpt lat="44.73374" lon="-0.32504">
        <ele>87</ele>
        <time>2013-11-24T13:49:17Z</time>
      </trkpt>
      <trkpt lat="44.73376" lon="-0.32507">
        <ele>87</ele>
        <time>2013-11-24T13:49:18Z</time>
      </trkpt>
      <trkpt lat="44.73378" lon="-0.32511">
        <ele>87</ele>
        <time>2013-11-24T13:49:19Z</time>
      </trkpt>
      <trkpt lat="44.7338" lon="-0.32514">
        <ele>87</ele>
        <time>2013-11-24T13:49:20Z</time>
      </trkpt>
      <trkpt lat="44.73383" lon="-0.32516">
        <ele>87</ele>
        <time>2013-11-24T13:49:21Z</time>
      </trkpt>
      <trkpt lat="44.73387" lon="-0.32519">
        <ele>88</ele>
        <time>2013-11-24T13:49:22Z</time>
      </trkpt>
      <trkpt lat="44.7339" lon="-0.32523">
        <ele>88</ele>
        <time>2013-11-24T13:49:23Z</time>
      </trkpt>
      <trkpt lat="44.73399" lon="-0.32541">
        <ele>87</ele>
        <time>2013-11-24T13:49:27Z</time>
      </trkpt>
      <trkpt lat="44.73405" lon="-0.32567">
        <ele>86</ele>
        <time>2013-11-24T13:49:33Z</time>
      </trkpt>
      <trkpt lat="44.73417" lon="-0.32591">
        <ele>84</ele>
        <time>2013-11-24T13:49:38Z</time>
      </trkpt>
      <trkpt lat="44.73418" lon="-0.32597">
        <ele>84</ele>
        <time>2013-11-24T13:49:40Z</time>
      </trkpt>
      <trkpt lat="44.73419" lon="-0.32599">
        <ele>83</ele>
        <time>2013-11-24T13:49:41Z</time>
      </trkpt>
      <trkpt lat="44.73418" lon="-0.32603">
        <ele>83</ele>
        <time>2013-11-24T13:49:42Z</time>
      </trkpt>
      <trkpt lat="44.73412" lon="-0.32633">
        <ele>79</ele>
        <time>2013-11-24T13:49:48Z</time>
      </trkpt>
      <trkpt lat="44.73408" lon="-0.32651">
        <ele>77</ele>
        <time>2013-11-24T13:49:54Z</time>
      </trkpt>
      <trkpt lat="44.73402" lon="-0.32671">
        <ele>74</ele>
        <time>2013-11-24T13:50:00Z</time>
      </trkpt>
      <trkpt lat="44.73395" lon="-0.32698">
        <ele>71</ele>
        <time>2013-11-24T13:50:06Z</time>
      </trkpt>
      <trkpt lat="44.73388" lon="-0.3272">
        <ele>68</ele>
        <time>2013-11-24T13:50:11Z</time>
      </trkpt>
      <trkpt lat="44.73386" lon="-0.32724">
        <ele>68</ele>
        <time>2013-11-24T13:50:12Z</time>
      </trkpt>
      <trkpt lat="44.73384" lon="-0.32755">
        <ele>64</ele>
        <time>2013-11-24T13:50:20Z</time>
      </trkpt>
      <trkpt lat="44.73388" lon="-0.32784">
        <ele>60</ele>
        <time>2013-11-24T13:50:27Z</time>
      </trkpt>
      <trkpt lat="44.73391" lon="-0.32796">
        <ele>59</ele>
        <time>2013-11-24T13:50:31Z</time>
      </trkpt>
      <trkpt lat="44.73391" lon="-0.32799">
        <ele>58</ele>
        <time>2013-11-24T13:50:32Z</time>
      </trkpt>
      <trkpt lat="44.7339" lon="-0.32803">
        <ele>58</ele>
        <time>2013-11-24T13:50:33Z</time>
      </trkpt>
      <trkpt lat="44.73389" lon="-0.32806">
        <ele>57</ele>
        <time>2013-11-24T13:50:34Z</time>
      </trkpt>
      <trkpt lat="44.73389" lon="-0.32808">
        <ele>57</ele>
        <time>2013-11-24T13:50:35Z</time>
      </trkpt>
      <trkpt lat="44.73388" lon="-0.32811">
        <ele>56</ele>
        <time>2013-11-24T13:50:36Z</time>
      </trkpt>
      <trkpt lat="44.73387" lon="-0.32814">
        <ele>56</ele>
        <time>2013-11-24T13:50:37Z</time>
      </trkpt>
      <trkpt lat="44.73385" lon="-0.32831">
        <ele>54</ele>
        <time>2013-11-24T13:50:41Z</time>
      </trkpt>
      <trkpt lat="44.73387" lon="-0.32839">
        <ele>53</ele>
        <time>2013-11-24T13:50:46Z</time>
      </trkpt>
      <trkpt lat="44.73391" lon="-0.3284">
        <ele>52</ele>
        <time>2013-11-24T13:50:51Z</time>
      </trkpt>
      <trkpt lat="44.73392" lon="-0.32842">
        <ele>52</ele>
        <time>2013-11-24T13:50:53Z</time>
      </trkpt>
      <trkpt lat="44.73395" lon="-0.32843">
        <ele>52</ele>
        <time>2013-11-24T13:50:54Z</time>
      </trkpt>
      <trkpt lat="44.73397" lon="-0.32843">
        <ele>52</ele>
        <time>2013-11-24T13:50:55Z</time>
      </trkpt>
      <trkpt lat="44.73399" lon="-0.32845">
        <ele>52</ele>
        <time>2013-11-24T13:50:56Z</time>
      </trkpt>
      <trkpt lat="44.73401" lon="-0.32846">
        <ele>52</ele>
        <time>2013-11-24T13:50:57Z</time>
      </trkpt>
      <trkpt lat="44.73403" lon="-0.32847">
        <ele>52</ele>
        <time>2013-11-24T13:50:58Z</time>
      </trkpt>
      <trkpt lat="44.73405" lon="-0.32847">
        <ele>52</ele>
        <time>2013-11-24T13:50:59Z</time>
      </trkpt>
      <trkpt lat="44.73408" lon="-0.32848">
        <ele>52</ele>
        <time>2013-11-24T13:51:00Z</time>
      </trkpt>
      <trkpt lat="44.73412" lon="-0.32848">
        <ele>52</ele>
        <time>2013-11-24T13:51:01Z</time>
      </trkpt>
      <trkpt lat="44.73422" lon="-0.32846">
        <ele>52</ele>
        <time>2013-11-24T13:51:05Z</time>
      </trkpt>
      <trkpt lat="44.7343" lon="-0.32849">
        <ele>52</ele>
        <time>2013-11-24T13:51:12Z</time>
      </trkpt>
      <trkpt lat="44.73449" lon="-0.32822">
        <ele>55</ele>
        <time>2013-11-24T14:01:08Z</time>
      </trkpt>
      <trkpt lat="44.73455" lon="-0.32815">
        <ele>56</ele>
        <time>2013-11-24T14:01:13Z</time>
      </trkpt>
      <trkpt lat="44.7346" lon="-0.32807">
        <ele>57</ele>
        <time>2013-11-24T14:01:18Z</time>
      </trkpt>
      <trkpt lat="44.73464" lon="-0.32802">
        <ele>57</ele>
        <time>2013-11-24T14:01:22Z</time>
      </trkpt>
      <trkpt lat="44.73468" lon="-0.32798">
        <ele>58</ele>
        <time>2013-11-24T14:01:25Z</time>
      </trkpt>
      <trkpt lat="44.73479" lon="-0.32787">
        <ele>59</ele>
        <time>2013-11-24T14:01:34Z</time>
      </trkpt>
      <trkpt lat="44.73485" lon="-0.32778">
        <ele>60</ele>
        <time>2013-11-24T14:01:41Z</time>
      </trkpt>
      <trkpt lat="44.73488" lon="-0.32773">
        <ele>61</ele>
        <time>2013-11-24T14:01:44Z</time>
      </trkpt>
      <trkpt lat="44.73492" lon="-0.3277">
        <ele>61</ele>
        <time>2013-11-24T14:01:47Z</time>
      </trkpt>
      <trkpt lat="44.73504" lon="-0.32764">
        <ele>61</ele>
        <time>2013-11-24T14:01:53Z</time>
      </trkpt>
      <trkpt lat="44.73513" lon="-0.32758">
        <ele>61</ele>
        <time>2013-11-24T14:01:57Z</time>
      </trkpt>
      <trkpt lat="44.7353" lon="-0.3275">
        <ele>61</ele>
        <time>2013-11-24T14:02:04Z</time>
      </trkpt>
      <trkpt lat="44.73541" lon="-0.3274">
        <ele>61</ele>
        <time>2013-11-24T14:02:10Z</time>
      </trkpt>
      <trkpt lat="44.73544" lon="-0.32738">
        <ele>61</ele>
        <time>2013-11-24T14:02:12Z</time>
      </trkpt>
      <trkpt lat="44.73551" lon="-0.32731">
        <ele>62</ele>
        <time>2013-11-24T14:02:17Z</time>
      </trkpt>
      <trkpt lat="44.73562" lon="-0.32719">
        <ele>62</ele>
        <time>2013-11-24T14:02:23Z</time>
      </trkpt>
      <trkpt lat="44.7357" lon="-0.32711">
        <ele>63</ele>
        <time>2013-11-24T14:02:28Z</time>
      </trkpt>
      <trkpt lat="44.73576" lon="-0.32701">
        <ele>64</ele>
        <time>2013-11-24T14:02:35Z</time>
      </trkpt>
      <trkpt lat="44.73577" lon="-0.32701">
        <ele>64</ele>
        <time>2013-11-24T14:02:36Z</time>
      </trkpt>
      <trkpt lat="44.7359" lon="-0.32694">
        <ele>63</ele>
        <time>2013-11-24T14:02:44Z</time>
      </trkpt>
      <trkpt lat="44.73595" lon="-0.32691">
        <ele>63</ele>
        <time>2013-11-24T14:02:47Z</time>
      </trkpt>
      <trkpt lat="44.73599" lon="-0.32687">
        <ele>64</ele>
        <time>2013-11-24T14:02:52Z</time>
      </trkpt>
      <trkpt lat="44.736" lon="-0.3268">
        <ele>64</ele>
        <time>2013-11-24T14:02:59Z</time>
      </trkpt>
      <trkpt lat="44.73599" lon="-0.32677">
        <ele>65</ele>
        <time>2013-11-24T14:03:06Z</time>
      </trkpt>
      <trkpt lat="44.73599" lon="-0.32677">
        <ele>65</ele>
        <time>2013-11-24T14:03:11Z</time>
      </trkpt>
      <trkpt lat="44.73599" lon="-0.32677">
        <ele>65</ele>
        <time>2013-11-24T14:03:20Z</time>
      </trkpt>
      <trkpt lat="44.73601" lon="-0.32677">
        <ele>65</ele>
        <time>2013-11-24T14:03:24Z</time>
      </trkpt>
      <trkpt lat="44.73606" lon="-0.32676">
        <ele>65</ele>
        <time>2013-11-24T14:03:27Z</time>
      </trkpt>
      <trkpt lat="44.73615" lon="-0.32664">
        <ele>66</ele>
        <time>2013-11-24T14:03:34Z</time>
      </trkpt>
      <trkpt lat="44.73624" lon="-0.32652">
        <ele>67</ele>
        <time>2013-11-24T14:03:41Z</time>
      </trkpt>
      <trkpt lat="44.7363" lon="-0.32643">
        <ele>68</ele>
        <time>2013-11-24T14:03:48Z</time>
      </trkpt>
      <trkpt lat="44.73633" lon="-0.32641">
        <ele>68</ele>
        <time>2013-11-24T14:03:50Z</time>
      </trkpt>
      <trkpt lat="44.73643" lon="-0.32631">
        <ele>69</ele>
        <time>2013-11-24T14:03:58Z</time>
      </trkpt>
      <trkpt lat="44.73646" lon="-0.32627">
        <ele>69</ele>
        <time>2013-11-24T14:04:02Z</time>
      </trkpt>
      <trkpt lat="44.73649" lon="-0.32624">
        <ele>69</ele>
        <time>2013-11-24T14:04:05Z</time>
      </trkpt>
      <trkpt lat="44.73652" lon="-0.32617">
        <ele>70</ele>
        <time>2013-11-24T14:04:09Z</time>
      </trkpt>
      <trkpt lat="44.73656" lon="-0.32603">
        <ele>71</ele>
        <time>2013-11-24T14:04:16Z</time>
      </trkpt>
      <trkpt lat="44.73659" lon="-0.32591">
        <ele>72</ele>
        <time>2013-11-24T14:04:22Z</time>
      </trkpt>
      <trkpt lat="44.73661" lon="-0.32577">
        <ele>73</ele>
        <time>2013-11-24T14:04:28Z</time>
      </trkpt>
      <trkpt lat="44.73663" lon="-0.32566">
        <ele>74</ele>
        <time>2013-11-24T14:04:33Z</time>
      </trkpt>
      <trkpt lat="44.73672" lon="-0.32544">
        <ele>74</ele>
        <time>2013-11-24T14:04:39Z</time>
      </trkpt>
      <trkpt lat="44.73676" lon="-0.32537">
        <ele>75</ele>
        <time>2013-11-24T14:04:41Z</time>
      </trkpt>
      <trkpt lat="44.73681" lon="-0.32528">
        <ele>75</ele>
        <time>2013-11-24T14:04:44Z</time>
      </trkpt>
      <trkpt lat="44.73691" lon="-0.32518">
        <ele>74</ele>
        <time>2013-11-24T14:04:49Z</time>
      </trkpt>
      <trkpt lat="44.73704" lon="-0.32502">
        <ele>74</ele>
        <time>2013-11-24T14:04:57Z</time>
      </trkpt>
      <trkpt lat="44.73712" lon="-0.32494">
        <ele>74</ele>
        <time>2013-11-24T14:05:03Z</time>
      </trkpt>
      <trkpt lat="44.73716" lon="-0.3249">
        <ele>74</ele>
        <time>2013-11-24T14:05:06Z</time>
      </trkpt>
      <trkpt lat="44.7372" lon="-0.32479">
        <ele>74</ele>
        <time>2013-11-24T14:05:12Z</time>
      </trkpt>
      <trkpt lat="44.73723" lon="-0.32476">
        <ele>74</ele>
        <time>2013-11-24T14:05:19Z</time>
      </trkpt>
      <trkpt lat="44.73725" lon="-0.32468">
        <ele>74</ele>
        <time>2013-11-24T14:05:26Z</time>
      </trkpt>
      <trkpt lat="44.7373" lon="-0.32458">
        <ele>75</ele>
        <time>2013-11-24T14:05:34Z</time>
      </trkpt>
      <trkpt lat="44.7373" lon="-0.32452">
        <ele>75</ele>
        <time>2013-11-24T14:05:41Z</time>
      </trkpt>
      <trkpt lat="44.73732" lon="-0.32447">
        <ele>76</ele>
        <time>2013-11-24T14:05:48Z</time>
      </trkpt>
      <trkpt lat="44.73735" lon="-0.32441">
        <ele>76</ele>
        <time>2013-11-24T14:05:55Z</time>
      </trkpt>
      <trkpt lat="44.73737" lon="-0.32437">
        <ele>76</ele>
        <time>2013-11-24T14:06:01Z</time>
      </trkpt>
      <trkpt lat="44.73739" lon="-0.32433">
        <ele>76</ele>
        <time>2013-11-24T14:06:05Z</time>
      </trkpt>
      <trkpt lat="44.73742" lon="-0.32428">
        <ele>76</ele>
        <time>2013-11-24T14:06:08Z</time>
      </trkpt>
      <trkpt lat="44.73744" lon="-0.32419">
        <ele>76</ele>
        <time>2013-11-24T14:06:13Z</time>
      </trkpt>
      <trkpt lat="44.73742" lon="-0.32409">
        <ele>78</ele>
        <time>2013-11-24T14:06:20Z</time>
      </trkpt>
      <trkpt lat="44.73743" lon="-0.32404">
        <ele>78</ele>
        <time>2013-11-24T14:06:31Z</time>
      </trkpt>
      <trkpt lat="44.73743" lon="-0.32404">
        <ele>78</ele>
        <time>2013-11-24T14:06:34Z</time>
      </trkpt>
      <trkpt lat="44.73744" lon="-0.32393">
        <ele>79</ele>
        <time>2013-11-24T14:06:41Z</time>
      </trkpt>
      <trkpt lat="44.73745" lon="-0.32384">
        <ele>79</ele>
        <time>2013-11-24T14:06:46Z</time>
      </trkpt>
      <trkpt lat="44.73753" lon="-0.32374">
        <ele>79</ele>
        <time>2013-11-24T14:06:54Z</time>
      </trkpt>
      <trkpt lat="44.7376" lon="-0.32362">
        <ele>79</ele>
        <time>2013-11-24T14:07:00Z</time>
      </trkpt>
      <trkpt lat="44.7377" lon="-0.32346">
        <ele>79</ele>
        <time>2013-11-24T14:07:07Z</time>
      </trkpt>
      <trkpt lat="44.73776" lon="-0.32339">
        <ele>78</ele>
        <time>2013-11-24T14:07:12Z</time>
      </trkpt>
      <trkpt lat="44.73786" lon="-0.32325">
        <ele>78</ele>
        <time>2013-11-24T14:07:22Z</time>
      </trkpt>
      <trkpt lat="44.73796" lon="-0.32311">
        <ele>78</ele>
        <time>2013-11-24T14:07:29Z</time>
      </trkpt>
      <trkpt lat="44.73804" lon="-0.32298">
        <ele>79</ele>
        <time>2013-11-24T14:07:35Z</time>
      </trkpt>
      <trkpt lat="44.73811" lon="-0.32288">
        <ele>79</ele>
        <time>2013-11-24T14:07:42Z</time>
      </trkpt>
      <trkpt lat="44.73812" lon="-0.32286">
        <ele>79</ele>
        <time>2013-11-24T14:07:43Z</time>
      </trkpt>
      <trkpt lat="44.73818" lon="-0.32289">
        <ele>79</ele>
        <time>2013-11-24T14:07:49Z</time>
      </trkpt>
      <trkpt lat="44.73819" lon="-0.32291">
        <ele>79</ele>
        <time>2013-11-24T14:07:57Z</time>
      </trkpt>
      <trkpt lat="44.73819" lon="-0.32291">
        <ele>79</ele>
        <time>2013-11-24T14:08:07Z</time>
      </trkpt>
      <trkpt lat="44.7382" lon="-0.32291">
        <ele>79</ele>
        <time>2013-11-24T14:08:14Z</time>
      </trkpt>
      <trkpt lat="44.7382" lon="-0.32292">
        <ele>79</ele>
        <time>2013-11-24T14:08:19Z</time>
      </trkpt>
      <trkpt lat="44.73826" lon="-0.323">
        <ele>78</ele>
        <time>2013-11-24T14:08:26Z</time>
      </trkpt>
      <trkpt lat="44.73826" lon="-0.323">
        <ele>78</ele>
        <time>2013-11-24T14:08:27Z</time>
      </trkpt>
      <trkpt lat="44.73827" lon="-0.32302">
        <ele>77</ele>
        <time>2013-11-24T14:08:30Z</time>
      </trkpt>
      <trkpt lat="44.73828" lon="-0.32307">
        <ele>77</ele>
        <time>2013-11-24T14:08:37Z</time>
      </trkpt>
      <trkpt lat="44.73828" lon="-0.32307">
        <ele>77</ele>
        <time>2013-11-24T14:08:50Z</time>
      </trkpt>
      <trkpt lat="44.73829" lon="-0.32308">
        <ele>77</ele>
        <time>2013-11-24T14:09:11Z</time>
      </trkpt>
      <trkpt lat="44.73831" lon="-0.32313">
        <ele>77</ele>
        <time>2013-11-24T14:09:16Z</time>
      </trkpt>
      <trkpt lat="44.73832" lon="-0.32313">
        <ele>77</ele>
        <time>2013-11-24T14:09:17Z</time>
      </trkpt>
      <trkpt lat="44.73838" lon="-0.32327">
        <ele>75</ele>
        <time>2013-11-24T14:09:25Z</time>
      </trkpt>
      <trkpt lat="44.73845" lon="-0.32344">
        <ele>74</ele>
        <time>2013-11-24T14:09:32Z</time>
      </trkpt>
      <trkpt lat="44.73858" lon="-0.32373">
        <ele>72</ele>
        <time>2013-11-24T14:09:39Z</time>
      </trkpt>
      <trkpt lat="44.73869" lon="-0.32397">
        <ele>70</ele>
        <time>2013-11-24T14:09:45Z</time>
      </trkpt>
      <trkpt lat="44.73883" lon="-0.32419">
        <ele>67</ele>
        <time>2013-11-24T14:09:52Z</time>
      </trkpt>
      <trkpt lat="44.73897" lon="-0.32453">
        <ele>65</ele>
        <time>2013-11-24T14:09:58Z</time>
      </trkpt>
      <trkpt lat="44.739" lon="-0.32459">
        <ele>65</ele>
        <time>2013-11-24T14:09:59Z</time>
      </trkpt>
      <trkpt lat="44.73903" lon="-0.32465">
        <ele>65</ele>
        <time>2013-11-24T14:10:00Z</time>
      </trkpt>
      <trkpt lat="44.73905" lon="-0.32471">
        <ele>64</ele>
        <time>2013-11-24T14:10:01Z</time>
      </trkpt>
      <trkpt lat="44.73907" lon="-0.32476">
        <ele>64</ele>
        <time>2013-11-24T14:10:02Z</time>
      </trkpt>
      <trkpt lat="44.73909" lon="-0.3248">
        <ele>64</ele>
        <time>2013-11-24T14:10:03Z</time>
      </trkpt>
      <trkpt lat="44.73911" lon="-0.32483">
        <ele>63</ele>
        <time>2013-11-24T14:10:04Z</time>
      </trkpt>
      <trkpt lat="44.73917" lon="-0.32486">
        <ele>63</ele>
        <time>2013-11-24T14:10:07Z</time>
      </trkpt>
      <trkpt lat="44.73928" lon="-0.32476">
        <ele>63</ele>
        <time>2013-11-24T14:10:13Z</time>
      </trkpt>
      <trkpt lat="44.73949" lon="-0.32459">
        <ele>61</ele>
        <time>2013-11-24T14:10:20Z</time>
      </trkpt>
      <trkpt lat="44.73977" lon="-0.32435">
        <ele>60</ele>
        <time>2013-11-24T14:10:29Z</time>
      </trkpt>
      <trkpt lat="44.73994" lon="-0.32423">
        <ele>60</ele>
        <time>2013-11-24T14:10:36Z</time>
      </trkpt>
      <trkpt lat="44.74007" lon="-0.32414">
        <ele>60</ele>
        <time>2013-11-24T14:10:42Z</time>
      </trkpt>
      <trkpt lat="44.74018" lon="-0.32404">
        <ele>61</ele>
        <time>2013-11-24T14:10:48Z</time>
      </trkpt>
      <trkpt lat="44.74029" lon="-0.32397">
        <ele>61</ele>
        <time>2013-11-24T14:10:54Z</time>
      </trkpt>
      <trkpt lat="44.74043" lon="-0.32388">
        <ele>62</ele>
        <time>2013-11-24T14:11:02Z</time>
      </trkpt>
      <trkpt lat="44.74059" lon="-0.32373">
        <ele>62</ele>
        <time>2013-11-24T14:11:11Z</time>
      </trkpt>
      <trkpt lat="44.74083" lon="-0.32354">
        <ele>62</ele>
        <time>2013-11-24T14:11:20Z</time>
      </trkpt>
      <trkpt lat="44.74105" lon="-0.32338">
        <ele>61</ele>
        <time>2013-11-24T14:11:28Z</time>
      </trkpt>
      <trkpt lat="44.7412" lon="-0.32325">
        <ele>62</ele>
        <time>2013-11-24T14:11:35Z</time>
      </trkpt>
      <trkpt lat="44.74139" lon="-0.3231">
        <ele>64</ele>
        <time>2013-11-24T14:11:44Z</time>
      </trkpt>
      <trkpt lat="44.74155" lon="-0.32298">
        <ele>65</ele>
        <time>2013-11-24T14:11:52Z</time>
      </trkpt>
      <trkpt lat="44.74171" lon="-0.32287">
        <ele>65</ele>
        <time>2013-11-24T14:12:00Z</time>
      </trkpt>
      <trkpt lat="44.74191" lon="-0.32272">
        <ele>65</ele>
        <time>2013-11-24T14:12:10Z</time>
      </trkpt>
      <trkpt lat="44.74208" lon="-0.32259">
        <ele>64</ele>
        <time>2013-11-24T14:12:19Z</time>
      </trkpt>
      <trkpt lat="44.74226" lon="-0.32246">
        <ele>64</ele>
        <time>2013-11-24T14:12:27Z</time>
      </trkpt>
      <trkpt lat="44.74242" lon="-0.32234">
        <ele>64</ele>
        <time>2013-11-24T14:12:34Z</time>
      </trkpt>
      <trkpt lat="44.74253" lon="-0.32228">
        <ele>63</ele>
        <time>2013-11-24T14:12:40Z</time>
      </trkpt>
      <trkpt lat="44.74261" lon="-0.32244">
        <ele>62</ele>
        <time>2013-11-24T14:12:46Z</time>
      </trkpt>
      <trkpt lat="44.74267" lon="-0.32269">
        <ele>61</ele>
        <time>2013-11-24T14:12:53Z</time>
      </trkpt>
      <trkpt lat="44.74273" lon="-0.32289">
        <ele>60</ele>
        <time>2013-11-24T14:13:01Z</time>
      </trkpt>
      <trkpt lat="44.74276" lon="-0.32296">
        <ele>60</ele>
        <time>2013-11-24T14:13:04Z</time>
      </trkpt>
      <trkpt lat="44.7428" lon="-0.32308">
        <ele>60</ele>
        <time>2013-11-24T14:13:11Z</time>
      </trkpt>
      <trkpt lat="44.74283" lon="-0.32308">
        <ele>60</ele>
        <time>2013-11-24T14:13:19Z</time>
      </trkpt>
      <trkpt lat="44.74286" lon="-0.32307">
        <ele>60</ele>
        <time>2013-11-24T14:13:26Z</time>
      </trkpt>
      <trkpt lat="44.74294" lon="-0.32301">
        <ele>60</ele>
        <time>2013-11-24T14:13:33Z</time>
      </trkpt>
      <trkpt lat="44.74298" lon="-0.32303">
        <ele>60</ele>
        <time>2013-11-24T14:13:39Z</time>
      </trkpt>
      <trkpt lat="44.74303" lon="-0.32307">
        <ele>60</ele>
        <time>2013-11-24T14:13:46Z</time>
      </trkpt>
      <trkpt lat="44.74306" lon="-0.32309">
        <ele>59</ele>
        <time>2013-11-24T14:13:53Z</time>
      </trkpt>
      <trkpt lat="44.74308" lon="-0.32309">
        <ele>59</ele>
        <time>2013-11-24T14:14:00Z</time>
      </trkpt>
      <trkpt lat="44.7431" lon="-0.32311">
        <ele>59</ele>
        <time>2013-11-24T14:14:06Z</time>
      </trkpt>
      <trkpt lat="44.74311" lon="-0.32313">
        <ele>59</ele>
        <time>2013-11-24T14:14:16Z</time>
      </trkpt>
      <trkpt lat="44.74313" lon="-0.32312">
        <ele>59</ele>
        <time>2013-11-24T14:14:25Z</time>
      </trkpt>
      <trkpt lat="44.74313" lon="-0.32314">
        <ele>60</ele>
        <time>2013-11-24T14:14:31Z</time>
      </trkpt>
      <trkpt lat="44.74314" lon="-0.32316">
        <ele>60</ele>
        <time>2013-11-24T14:14:36Z</time>
      </trkpt>
      <trkpt lat="44.74315" lon="-0.32319">
        <ele>60</ele>
        <time>2013-11-24T14:14:43Z</time>
      </trkpt>
      <trkpt lat="44.74315" lon="-0.32322">
        <ele>60</ele>
        <time>2013-11-24T14:14:49Z</time>
      </trkpt>
      <trkpt lat="44.74316" lon="-0.3232">
        <ele>60</ele>
        <time>2013-11-24T14:14:55Z</time>
      </trkpt>
      <trkpt lat="44.74315" lon="-0.3232">
        <ele>60</ele>
        <time>2013-11-24T14:15:02Z</time>
      </trkpt>
      <trkpt lat="44.74315" lon="-0.32322">
        <ele>60</ele>
        <time>2013-11-24T14:15:09Z</time>
      </trkpt>
      <trkpt lat="44.74316" lon="-0.32324">
        <ele>60</ele>
        <time>2013-11-24T14:15:16Z</time>
      </trkpt>
      <trkpt lat="44.74318" lon="-0.32329">
        <ele>60</ele>
        <time>2013-11-24T14:15:24Z</time>
      </trkpt>
      <trkpt lat="44.74321" lon="-0.32329">
        <ele>60</ele>
        <time>2013-11-24T14:15:30Z</time>
      </trkpt>
      <trkpt lat="44.74323" lon="-0.3233">
        <ele>60</ele>
        <time>2013-11-24T14:15:40Z</time>
      </trkpt>
      <trkpt lat="44.74325" lon="-0.32334">
        <ele>60</ele>
        <time>2013-11-24T14:15:46Z</time>
      </trkpt>
      <trkpt lat="44.7433" lon="-0.32341">
        <ele>60</ele>
        <time>2013-11-24T14:16:56Z</time>
      </trkpt>
      <trkpt lat="44.74336" lon="-0.32349">
        <ele>61</ele>
        <time>2013-11-24T14:17:01Z</time>
      </trkpt>
      <trkpt lat="44.74337" lon="-0.3235">
        <ele>61</ele>
        <time>2013-11-24T14:17:02Z</time>
      </trkpt>
      <trkpt lat="44.74347" lon="-0.32359">
        <ele>61</ele>
        <time>2013-11-24T14:17:09Z</time>
      </trkpt>
      <trkpt lat="44.74349" lon="-0.32367">
        <ele>62</ele>
        <time>2013-11-24T14:17:12Z</time>
      </trkpt>
      <trkpt lat="44.74354" lon="-0.32375">
        <ele>62</ele>
        <time>2013-11-24T14:17:15Z</time>
      </trkpt>
      <trkpt lat="44.7436" lon="-0.32387">
        <ele>63</ele>
        <time>2013-11-24T14:17:20Z</time>
      </trkpt>
      <trkpt lat="44.74364" lon="-0.32399">
        <ele>63</ele>
        <time>2013-11-24T14:17:25Z</time>
      </trkpt>
      <trkpt lat="44.74367" lon="-0.32419">
        <ele>64</ele>
        <time>2013-11-24T14:17:32Z</time>
      </trkpt>
      <trkpt lat="44.74366" lon="-0.32423">
        <ele>64</ele>
        <time>2013-11-24T14:17:33Z</time>
      </trkpt>
      <trkpt lat="44.74358" lon="-0.32439">
        <ele>65</ele>
        <time>2013-11-24T14:17:41Z</time>
      </trkpt>
      <trkpt lat="44.74352" lon="-0.32446">
        <ele>65</ele>
        <time>2013-11-24T14:17:47Z</time>
      </trkpt>
      <trkpt lat="44.74345" lon="-0.32453">
        <ele>65</ele>
        <time>2013-11-24T14:17:54Z</time>
      </trkpt>
      <trkpt lat="44.74343" lon="-0.32454">
        <ele>66</ele>
        <time>2013-11-24T14:17:56Z</time>
      </trkpt>
      <trkpt lat="44.74336" lon="-0.32466">
        <ele>66</ele>
        <time>2013-11-24T14:18:03Z</time>
      </trkpt>
      <trkpt lat="44.74332" lon="-0.32469">
        <ele>67</ele>
        <time>2013-11-24T14:18:06Z</time>
      </trkpt>
      <trkpt lat="44.74326" lon="-0.32472">
        <ele>67</ele>
        <time>2013-11-24T14:18:10Z</time>
      </trkpt>
      <trkpt lat="44.74316" lon="-0.32477">
        <ele>66</ele>
        <time>2013-11-24T14:18:17Z</time>
      </trkpt>
      <trkpt lat="44.7431" lon="-0.32485">
        <ele>66</ele>
        <time>2013-11-24T14:18:23Z</time>
      </trkpt>
      <trkpt lat="44.74302" lon="-0.32494">
        <ele>65</ele>
        <time>2013-11-24T14:18:28Z</time>
      </trkpt>
      <trkpt lat="44.74299" lon="-0.32502">
        <ele>64</ele>
        <time>2013-11-24T14:18:33Z</time>
      </trkpt>
      <trkpt lat="44.74292" lon="-0.32507">
        <ele>63</ele>
        <time>2013-11-24T14:18:36Z</time>
      </trkpt>
      <trkpt lat="44.74274" lon="-0.32513">
        <ele>60</ele>
        <time>2013-11-24T14:18:42Z</time>
      </trkpt>
      <trkpt lat="44.74267" lon="-0.32521">
        <ele>60</ele>
        <time>2013-11-24T14:18:46Z</time>
      </trkpt>
      <trkpt lat="44.7426" lon="-0.32524">
        <ele>60</ele>
        <time>2013-11-24T14:18:49Z</time>
      </trkpt>
      <trkpt lat="44.74257" lon="-0.32524">
        <ele>60</ele>
        <time>2013-11-24T14:18:51Z</time>
      </trkpt>
      <trkpt lat="44.74251" lon="-0.3252">
        <ele>60</ele>
        <time>2013-11-24T14:18:55Z</time>
      </trkpt>
      <trkpt lat="44.74241" lon="-0.32524">
        <ele>59</ele>
        <time>2013-11-24T14:18:57Z</time>
      </trkpt>
      <trkpt lat="44.74233" lon="-0.32526">
        <ele>59</ele>
        <time>2013-11-24T14:19:01Z</time>
      </trkpt>
      <trkpt lat="44.74227" lon="-0.32528">
        <ele>59</ele>
        <time>2013-11-24T14:19:03Z</time>
      </trkpt>
      <trkpt lat="44.74207" lon="-0.32537">
        <ele>60</ele>
        <time>2013-11-24T14:19:09Z</time>
      </trkpt>
      <trkpt lat="44.74195" lon="-0.3254">
        <ele>60</ele>
        <time>2013-11-24T14:19:14Z</time>
      </trkpt>
      <trkpt lat="44.74188" lon="-0.32551">
        <ele>61</ele>
        <time>2013-11-24T14:19:20Z</time>
      </trkpt>
      <trkpt lat="44.74185" lon="-0.32556">
        <ele>62</ele>
        <time>2013-11-24T14:19:23Z</time>
      </trkpt>
      <trkpt lat="44.74171" lon="-0.32569">
        <ele>63</ele>
        <time>2013-11-24T14:19:30Z</time>
      </trkpt>
      <trkpt lat="44.74169" lon="-0.32575">
        <ele>64</ele>
        <time>2013-11-24T14:19:34Z</time>
      </trkpt>
      <trkpt lat="44.74169" lon="-0.32579">
        <ele>64</ele>
        <time>2013-11-24T14:19:36Z</time>
      </trkpt>
      <trkpt lat="44.7416" lon="-0.3259">
        <ele>65</ele>
        <time>2013-11-24T14:19:42Z</time>
      </trkpt>
      <trkpt lat="44.74159" lon="-0.32602">
        <ele>67</ele>
        <time>2013-11-24T14:19:48Z</time>
      </trkpt>
      <trkpt lat="44.74146" lon="-0.32614">
        <ele>68</ele>
        <time>2013-11-24T14:19:55Z</time>
      </trkpt>
      <trkpt lat="44.74144" lon="-0.32615">
        <ele>68</ele>
        <time>2013-11-24T14:19:56Z</time>
      </trkpt>
      <trkpt lat="44.74137" lon="-0.32621">
        <ele>69</ele>
        <time>2013-11-24T14:20:01Z</time>
      </trkpt>
      <trkpt lat="44.74134" lon="-0.32617">
        <ele>68</ele>
        <time>2013-11-24T14:20:09Z</time>
      </trkpt>
      <trkpt lat="44.74134" lon="-0.32618">
        <ele>68</ele>
        <time>2013-11-24T14:20:16Z</time>
      </trkpt>
      <trkpt lat="44.74134" lon="-0.3262">
        <ele>69</ele>
        <time>2013-11-24T14:20:28Z</time>
      </trkpt>
      <trkpt lat="44.74134" lon="-0.32621">
        <ele>69</ele>
        <time>2013-11-24T14:20:39Z</time>
      </trkpt>
      <trkpt lat="44.74135" lon="-0.32621">
        <ele>69</ele>
        <time>2013-11-24T14:20:56Z</time>
      </trkpt>
      <trkpt lat="44.74135" lon="-0.32621">
        <ele>69</ele>
        <time>2013-11-24T14:21:10Z</time>
      </trkpt>
      <trkpt lat="44.74134" lon="-0.32621">
        <ele>69</ele>
        <time>2013-11-24T14:21:24Z</time>
      </trkpt>
      <trkpt lat="44.74135" lon="-0.32621">
        <ele>69</ele>
        <time>2013-11-24T14:21:35Z</time>
      </trkpt>
      <trkpt lat="44.74135" lon="-0.3262">
        <ele>68</ele>
        <time>2013-11-24T14:21:48Z</time>
      </trkpt>
      <trkpt lat="44.74134" lon="-0.3262">
        <ele>68</ele>
        <time>2013-11-24T14:21:55Z</time>
      </trkpt>
      <trkpt lat="44.74134" lon="-0.32619">
        <ele>68</ele>
        <time>2013-11-24T14:22:09Z</time>
      </trkpt>
      <trkpt lat="44.74134" lon="-0.32619">
        <ele>68</ele>
        <time>2013-11-24T14:22:18Z</time>
      </trkpt>
      <trkpt lat="44.74134" lon="-0.32617">
        <ele>68</ele>
        <time>2013-11-24T14:22:32Z</time>
      </trkpt>
      <trkpt lat="44.74133" lon="-0.32614">
        <ele>68</ele>
        <time>2013-11-24T14:22:34Z</time>
      </trkpt>
      <trkpt lat="44.74134" lon="-0.32595">
        <ele>65</ele>
        <time>2013-11-24T14:22:41Z</time>
      </trkpt>
      <trkpt lat="44.74132" lon="-0.32577">
        <ele>63</ele>
        <time>2013-11-24T14:22:46Z</time>
      </trkpt>
      <trkpt lat="44.7413" lon="-0.32573">
        <ele>62</ele>
        <time>2013-11-24T14:22:47Z</time>
      </trkpt>
      <trkpt lat="44.7412" lon="-0.32551">
        <ele>59</ele>
        <time>2013-11-24T14:22:51Z</time>
      </trkpt>
      <trkpt lat="44.74116" lon="-0.32538">
        <ele>57</ele>
        <time>2013-11-24T14:22:55Z</time>
      </trkpt>
      <trkpt lat="44.7411" lon="-0.32542">
        <ele>57</ele>
        <time>2013-11-24T14:23:00Z</time>
      </trkpt>
      <trkpt lat="44.74107" lon="-0.32548">
        <ele>58</ele>
        <time>2013-11-24T14:23:04Z</time>
      </trkpt>
      <trkpt lat="44.74099" lon="-0.32555">
        <ele>58</ele>
        <time>2013-11-24T14:23:10Z</time>
      </trkpt>
      <trkpt lat="44.74091" lon="-0.32559">
        <ele>59</ele>
        <time>2013-11-24T14:23:16Z</time>
      </trkpt>
      <trkpt lat="44.74084" lon="-0.32565">
        <ele>59</ele>
        <time>2013-11-24T14:23:22Z</time>
      </trkpt>
      <trkpt lat="44.74079" lon="-0.32566">
        <ele>59</ele>
        <time>2013-11-24T14:23:30Z</time>
      </trkpt>
      <trkpt lat="44.74076" lon="-0.32566">
        <ele>59</ele>
        <time>2013-11-24T14:23:32Z</time>
      </trkpt>
      <trkpt lat="44.74067" lon="-0.32568">
        <ele>59</ele>
        <time>2013-11-24T14:23:37Z</time>
      </trkpt>
      <trkpt lat="44.74061" lon="-0.32572">
        <ele>59</ele>
        <time>2013-11-24T14:23:41Z</time>
      </trkpt>
      <trkpt lat="44.74049" lon="-0.32582">
        <ele>60</ele>
        <time>2013-11-24T14:23:48Z</time>
      </trkpt>
      <trkpt lat="44.74049" lon="-0.32582">
        <ele>60</ele>
        <time>2013-11-24T14:23:49Z</time>
      </trkpt>
      <trkpt lat="44.74046" lon="-0.32595">
        <ele>61</ele>
        <time>2013-11-24T14:23:55Z</time>
      </trkpt>
      <trkpt lat="44.74038" lon="-0.32607">
        <ele>62</ele>
        <time>2013-11-24T14:24:01Z</time>
      </trkpt>
      <trkpt lat="44.74027" lon="-0.32612">
        <ele>62</ele>
        <time>2013-11-24T14:24:06Z</time>
      </trkpt>
      <trkpt lat="44.74021" lon="-0.32613">
        <ele>62</ele>
        <time>2013-11-24T14:24:11Z</time>
      </trkpt>
      <trkpt lat="44.74021" lon="-0.32611">
        <ele>61</ele>
        <time>2013-11-24T14:24:13Z</time>
      </trkpt>
      <trkpt lat="44.74009" lon="-0.32608">
        <ele>60</ele>
        <time>2013-11-24T14:24:18Z</time>
      </trkpt>
      <trkpt lat="44.74" lon="-0.32602">
        <ele>59</ele>
        <time>2013-11-24T14:24:23Z</time>
      </trkpt>
      <trkpt lat="44.73989" lon="-0.32603">
        <ele>59</ele>
        <time>2013-11-24T14:24:28Z</time>
      </trkpt>
      <trkpt lat="44.73981" lon="-0.32597">
        <ele>57</ele>
        <time>2013-11-24T14:24:32Z</time>
      </trkpt>
      <trkpt lat="44.73969" lon="-0.32605">
        <ele>57</ele>
        <time>2013-11-24T14:24:41Z</time>
      </trkpt>
      <trkpt lat="44.73967" lon="-0.32606">
        <ele>57</ele>
        <time>2013-11-24T14:24:42Z</time>
      </trkpt>
      <trkpt lat="44.73952" lon="-0.32621">
        <ele>58</ele>
        <time>2013-11-24T14:24:48Z</time>
      </trkpt>
      <trkpt lat="44.73945" lon="-0.32626">
        <ele>58</ele>
        <time>2013-11-24T14:24:51Z</time>
      </trkpt>
      <trkpt lat="44.73926" lon="-0.32642">
        <ele>57</ele>
        <time>2013-11-24T14:24:59Z</time>
      </trkpt>
      <trkpt lat="44.73914" lon="-0.32656">
        <ele>55</ele>
        <time>2013-11-24T14:25:05Z</time>
      </trkpt>
      <trkpt lat="44.73903" lon="-0.32667">
        <ele>55</ele>
        <time>2013-11-24T14:25:11Z</time>
      </trkpt>
      <trkpt lat="44.73901" lon="-0.32668">
        <ele>55</ele>
        <time>2013-11-24T14:25:12Z</time>
      </trkpt>
      <trkpt lat="44.73899" lon="-0.32672">
        <ele>55</ele>
        <time>2013-11-24T14:25:14Z</time>
      </trkpt>
      <trkpt lat="44.73898" lon="-0.32691">
        <ele>56</ele>
        <time>2013-11-24T14:25:21Z</time>
      </trkpt>
      <trkpt lat="44.73899" lon="-0.32695">
        <ele>57</ele>
        <time>2013-11-24T14:25:23Z</time>
      </trkpt>
      <trkpt lat="44.73899" lon="-0.32702">
        <ele>57</ele>
        <time>2013-11-24T14:25:26Z</time>
      </trkpt>
      <trkpt lat="44.73904" lon="-0.32709">
        <ele>58</ele>
        <time>2013-11-24T14:25:30Z</time>
      </trkpt>
      <trkpt lat="44.73913" lon="-0.32722">
        <ele>59</ele>
        <time>2013-11-24T14:25:37Z</time>
      </trkpt>
      <trkpt lat="44.73916" lon="-0.3273">
        <ele>60</ele>
        <time>2013-11-24T14:25:41Z</time>
      </trkpt>
      <trkpt lat="44.73924" lon="-0.32745">
        <ele>60</ele>
        <time>2013-11-24T14:25:48Z</time>
      </trkpt>
      <trkpt lat="44.73936" lon="-0.32751">
        <ele>61</ele>
        <time>2013-11-24T14:25:56Z</time>
      </trkpt>
      <trkpt lat="44.73947" lon="-0.32755">
        <ele>61</ele>
        <time>2013-11-24T14:26:04Z</time>
      </trkpt>
      <trkpt lat="44.73957" lon="-0.3275">
        <ele>62</ele>
        <time>2013-11-24T14:26:10Z</time>
      </trkpt>
      <trkpt lat="44.73968" lon="-0.32738">
        <ele>63</ele>
        <time>2013-11-24T14:26:19Z</time>
      </trkpt>
      <trkpt lat="44.73971" lon="-0.32733">
        <ele>64</ele>
        <time>2013-11-24T14:26:22Z</time>
      </trkpt>
      <trkpt lat="44.73982" lon="-0.32725">
        <ele>65</ele>
        <time>2013-11-24T14:26:29Z</time>
      </trkpt>
      <trkpt lat="44.73988" lon="-0.3272">
        <ele>66</ele>
        <time>2013-11-24T14:26:34Z</time>
      </trkpt>
      <trkpt lat="44.73998" lon="-0.32713">
        <ele>66</ele>
        <time>2013-11-24T14:26:41Z</time>
      </trkpt>
      <trkpt lat="44.74004" lon="-0.32709">
        <ele>67</ele>
        <time>2013-11-24T14:26:48Z</time>
      </trkpt>
      <trkpt lat="44.74011" lon="-0.32705">
        <ele>68</ele>
        <time>2013-11-24T14:26:54Z</time>
      </trkpt>
      <trkpt lat="44.74017" lon="-0.32703">
        <ele>68</ele>
        <time>2013-11-24T14:26:58Z</time>
      </trkpt>
      <trkpt lat="44.74025" lon="-0.32703">
        <ele>69</ele>
        <time>2013-11-24T14:27:04Z</time>
      </trkpt>
      <trkpt lat="44.74038" lon="-0.32704">
        <ele>70</ele>
        <time>2013-11-24T14:27:12Z</time>
      </trkpt>
      <trkpt lat="44.74048" lon="-0.32707">
        <ele>71</ele>
        <time>2013-11-24T14:27:18Z</time>
      </trkpt>
      <trkpt lat="44.74058" lon="-0.32716">
        <ele>72</ele>
        <time>2013-11-24T14:27:24Z</time>
      </trkpt>
      <trkpt lat="44.74061" lon="-0.32721">
        <ele>72</ele>
        <time>2013-11-24T14:27:27Z</time>
      </trkpt>
      <trkpt lat="44.74064" lon="-0.32733">
        <ele>73</ele>
        <time>2013-11-24T14:27:33Z</time>
      </trkpt>
      <trkpt lat="44.74071" lon="-0.32752">
        <ele>74</ele>
        <time>2013-11-24T14:27:42Z</time>
      </trkpt>
      <trkpt lat="44.74073" lon="-0.32763">
        <ele>74</ele>
        <time>2013-11-24T14:27:48Z</time>
      </trkpt>
      <trkpt lat="44.74081" lon="-0.32772">
        <ele>75</ele>
        <time>2013-11-24T14:27:54Z</time>
      </trkpt>
      <trkpt lat="44.74088" lon="-0.32781">
        <ele>76</ele>
        <time>2013-11-24T14:28:00Z</time>
      </trkpt>
      <trkpt lat="44.74095" lon="-0.32785">
        <ele>77</ele>
        <time>2013-11-24T14:28:08Z</time>
      </trkpt>
      <trkpt lat="44.741" lon="-0.32783">
        <ele>77</ele>
        <time>2013-11-24T14:28:11Z</time>
      </trkpt>
      <trkpt lat="44.74116" lon="-0.32779">
        <ele>79</ele>
        <time>2013-11-24T14:28:19Z</time>
      </trkpt>
      <trkpt lat="44.74118" lon="-0.32778">
        <ele>79</ele>
        <time>2013-11-24T14:28:20Z</time>
      </trkpt>
      <trkpt lat="44.74141" lon="-0.32768">
        <ele>80</ele>
        <time>2013-11-24T14:28:30Z</time>
      </trkpt>
      <trkpt lat="44.74149" lon="-0.32763">
        <ele>80</ele>
        <time>2013-11-24T14:28:36Z</time>
      </trkpt>
      <trkpt lat="44.74153" lon="-0.3276">
        <ele>80</ele>
        <time>2013-11-24T14:28:38Z</time>
      </trkpt>
      <trkpt lat="44.74168" lon="-0.3276">
        <ele>81</ele>
        <time>2013-11-24T14:28:45Z</time>
      </trkpt>
      <trkpt lat="44.74171" lon="-0.32763">
        <ele>81</ele>
        <time>2013-11-24T14:28:47Z</time>
      </trkpt>
      <trkpt lat="44.74178" lon="-0.32778">
        <ele>82</ele>
        <time>2013-11-24T14:28:55Z</time>
      </trkpt>
      <trkpt lat="44.74182" lon="-0.32794">
        <ele>84</ele>
        <time>2013-11-24T14:29:03Z</time>
      </trkpt>
      <trkpt lat="44.74187" lon="-0.3281">
        <ele>85</ele>
        <time>2013-11-24T14:29:11Z</time>
      </trkpt>
      <trkpt lat="44.74189" lon="-0.32814">
        <ele>85</ele>
        <time>2013-11-24T14:29:13Z</time>
      </trkpt>
      <trkpt lat="44.74193" lon="-0.32828">
        <ele>86</ele>
        <time>2013-11-24T14:29:21Z</time>
      </trkpt>
      <trkpt lat="44.74196" lon="-0.32836">
        <ele>87</ele>
        <time>2013-11-24T14:29:26Z</time>
      </trkpt>
      <trkpt lat="44.74201" lon="-0.32854">
        <ele>88</ele>
        <time>2013-11-24T14:29:35Z</time>
      </trkpt>
      <trkpt lat="44.74204" lon="-0.32874">
        <ele>89</ele>
        <time>2013-11-24T14:29:45Z</time>
      </trkpt>
      <trkpt lat="44.74206" lon="-0.32879">
        <ele>89</ele>
        <time>2013-11-24T14:29:48Z</time>
      </trkpt>
      <trkpt lat="44.7421" lon="-0.32892">
        <ele>90</ele>
        <time>2013-11-24T14:29:56Z</time>
      </trkpt>
      <trkpt lat="44.74212" lon="-0.32899">
        <ele>91</ele>
        <time>2013-11-24T14:29:59Z</time>
      </trkpt>
      <trkpt lat="44.74212" lon="-0.32905">
        <ele>91</ele>
        <time>2013-11-24T14:30:02Z</time>
      </trkpt>
      <trkpt lat="44.74214" lon="-0.32908">
        <ele>91</ele>
        <time>2013-11-24T14:30:09Z</time>
      </trkpt>
      <trkpt lat="44.74217" lon="-0.32917">
        <ele>92</ele>
        <time>2013-11-24T14:30:17Z</time>
      </trkpt>
      <trkpt lat="44.74219" lon="-0.32924">
        <ele>93</ele>
        <time>2013-11-24T14:30:22Z</time>
      </trkpt>
      <trkpt lat="44.7422" lon="-0.32931">
        <ele>93</ele>
        <time>2013-11-24T14:30:31Z</time>
      </trkpt>
      <trkpt lat="44.74222" lon="-0.32935">
        <ele>93</ele>
        <time>2013-11-24T14:30:37Z</time>
      </trkpt>
      <trkpt lat="44.74228" lon="-0.32951">
        <ele>93</ele>
        <time>2013-11-24T14:30:44Z</time>
      </trkpt>
      <trkpt lat="44.74232" lon="-0.3297">
        <ele>93</ele>
        <time>2013-11-24T14:30:52Z</time>
      </trkpt>
      <trkpt lat="44.74239" lon="-0.32995">
        <ele>93</ele>
        <time>2013-11-24T14:31:01Z</time>
      </trkpt>
      <trkpt lat="44.74249" lon="-0.3302">
        <ele>93</ele>
        <time>2013-11-24T14:31:10Z</time>
      </trkpt>
      <trkpt lat="44.74257" lon="-0.3304">
        <ele>94</ele>
        <time>2013-11-24T14:31:17Z</time>
      </trkpt>
      <trkpt lat="44.74263" lon="-0.33073">
        <ele>94</ele>
        <time>2013-11-24T14:31:27Z</time>
      </trkpt>
      <trkpt lat="44.74267" lon="-0.33102">
        <ele>94</ele>
        <time>2013-11-24T14:31:35Z</time>
      </trkpt>
      <trkpt lat="44.74272" lon="-0.33135">
        <ele>95</ele>
        <time>2013-11-24T14:31:46Z</time>
      </trkpt>
      <trkpt lat="44.74278" lon="-0.33166">
        <ele>96</ele>
        <time>2013-11-24T14:31:56Z</time>
      </trkpt>
      <trkpt lat="44.74279" lon="-0.33187">
        <ele>97</ele>
        <time>2013-11-24T14:32:03Z</time>
      </trkpt>
      <trkpt lat="44.74284" lon="-0.33213">
        <ele>98</ele>
        <time>2013-11-24T14:32:12Z</time>
      </trkpt>
      <trkpt lat="44.74287" lon="-0.33232">
        <ele>99</ele>
        <time>2013-11-24T14:32:20Z</time>
      </trkpt>
      <trkpt lat="44.74292" lon="-0.33252">
        <ele>100</ele>
        <time>2013-11-24T14:32:28Z</time>
      </trkpt>
      <trkpt lat="44.74294" lon="-0.33265">
        <ele>101</ele>
        <time>2013-11-24T14:32:35Z</time>
      </trkpt>
      <trkpt lat="44.74299" lon="-0.33282">
        <ele>102</ele>
        <time>2013-11-24T14:32:44Z</time>
      </trkpt>
      <trkpt lat="44.74304" lon="-0.33296">
        <ele>103</ele>
        <time>2013-11-24T14:32:51Z</time>
      </trkpt>
      <trkpt lat="44.7431" lon="-0.3331">
        <ele>103</ele>
        <time>2013-11-24T14:32:59Z</time>
      </trkpt>
      <trkpt lat="44.74314" lon="-0.33319">
        <ele>104</ele>
        <time>2013-11-24T14:33:04Z</time>
      </trkpt>
      <trkpt lat="44.74324" lon="-0.33335">
        <ele>104</ele>
        <time>2013-11-24T14:33:13Z</time>
      </trkpt>
      <trkpt lat="44.74334" lon="-0.33352">
        <ele>105</ele>
        <time>2013-11-24T14:33:22Z</time>
      </trkpt>
      <trkpt lat="44.74343" lon="-0.3337">
        <ele>106</ele>
        <time>2013-11-24T14:33:30Z</time>
      </trkpt>
      <trkpt lat="44.74347" lon="-0.3338">
        <ele>106</ele>
        <time>2013-11-24T14:33:35Z</time>
      </trkpt>
      <trkpt lat="44.74327" lon="-0.33389">
        <ele>106</ele>
        <time>2013-11-24T14:40:26Z</time>
      </trkpt>
      <trkpt lat="44.74325" lon="-0.3339">
        <ele>106</ele>
        <time>2013-11-24T14:40:27Z</time>
      </trkpt>
      <trkpt lat="44.74301" lon="-0.33398">
        <ele>106</ele>
        <time>2013-11-24T14:40:36Z</time>
      </trkpt>
      <trkpt lat="44.7428" lon="-0.33406">
        <ele>106</ele>
        <time>2013-11-24T14:40:43Z</time>
      </trkpt>
      <trkpt lat="44.74261" lon="-0.33414">
        <ele>105</ele>
        <time>2013-11-24T14:40:48Z</time>
      </trkpt>
      <trkpt lat="44.74253" lon="-0.33418">
        <ele>105</ele>
        <time>2013-11-24T14:40:50Z</time>
      </trkpt>
      <trkpt lat="44.74248" lon="-0.3342">
        <ele>105</ele>
        <time>2013-11-24T14:40:51Z</time>
      </trkpt>
      <trkpt lat="44.74231" lon="-0.33423">
        <ele>104</ele>
        <time>2013-11-24T14:40:55Z</time>
      </trkpt>
      <trkpt lat="44.74227" lon="-0.33419">
        <ele>104</ele>
        <time>2013-11-24T14:40:56Z</time>
      </trkpt>
      <trkpt lat="44.74224" lon="-0.33413">
        <ele>103</ele>
        <time>2013-11-24T14:40:57Z</time>
      </trkpt>
      <trkpt lat="44.74215" lon="-0.33393">
        <ele>103</ele>
        <time>2013-11-24T14:41:00Z</time>
      </trkpt>
      <trkpt lat="44.74211" lon="-0.33387">
        <ele>102</ele>
        <time>2013-11-24T14:41:01Z</time>
      </trkpt>
      <trkpt lat="44.74206" lon="-0.33382">
        <ele>102</ele>
        <time>2013-11-24T14:41:02Z</time>
      </trkpt>
      <trkpt lat="44.74201" lon="-0.33377">
        <ele>102</ele>
        <time>2013-11-24T14:41:03Z</time>
      </trkpt>
      <trkpt lat="44.74195" lon="-0.33372">
        <ele>101</ele>
        <time>2013-11-24T14:41:04Z</time>
      </trkpt>
      <trkpt lat="44.74162" lon="-0.33347">
        <ele>99</ele>
        <time>2013-11-24T14:41:09Z</time>
      </trkpt>
      <trkpt lat="44.74116" lon="-0.33311">
        <ele>97</ele>
        <time>2013-11-24T14:41:16Z</time>
      </trkpt>
      <trkpt lat="44.74076" lon="-0.33273">
        <ele>94</ele>
        <time>2013-11-24T14:41:23Z</time>
      </trkpt>
      <trkpt lat="44.74071" lon="-0.33269">
        <ele>94</ele>
        <time>2013-11-24T14:41:24Z</time>
      </trkpt>
      <trkpt lat="44.74066" lon="-0.33267">
        <ele>94</ele>
        <time>2013-11-24T14:41:25Z</time>
      </trkpt>
      <trkpt lat="44.74063" lon="-0.33264">
        <ele>93</ele>
        <time>2013-11-24T14:41:26Z</time>
      </trkpt>
      <trkpt lat="44.74062" lon="-0.33261">
        <ele>93</ele>
        <time>2013-11-24T14:41:27Z</time>
      </trkpt>
      <trkpt lat="44.74062" lon="-0.3326">
        <ele>93</ele>
        <time>2013-11-24T14:41:28Z</time>
      </trkpt>
      <trkpt lat="44.74062" lon="-0.33258">
        <ele>93</ele>
        <time>2013-11-24T14:41:29Z</time>
      </trkpt>
      <trkpt lat="44.7406" lon="-0.33252">
        <ele>93</ele>
        <time>2013-11-24T14:41:31Z</time>
      </trkpt>
      <trkpt lat="44.74058" lon="-0.33249">
        <ele>93</ele>
        <time>2013-11-24T14:41:32Z</time>
      </trkpt>
      <trkpt lat="44.74039" lon="-0.33229">
        <ele>92</ele>
        <time>2013-11-24T14:41:38Z</time>
      </trkpt>
      <trkpt lat="44.74017" lon="-0.33204">
        <ele>90</ele>
        <time>2013-11-24T14:41:46Z</time>
      </trkpt>
      <trkpt lat="44.73997" lon="-0.33179">
        <ele>90</ele>
        <time>2013-11-24T14:41:53Z</time>
      </trkpt>
      <trkpt lat="44.73994" lon="-0.33174">
        <ele>90</ele>
        <time>2013-11-24T14:41:54Z</time>
      </trkpt>
      <trkpt lat="44.73972" lon="-0.33144">
        <ele>88</ele>
        <time>2013-11-24T14:42:02Z</time>
      </trkpt>
      <trkpt lat="44.7395" lon="-0.33109">
        <ele>86</ele>
        <time>2013-11-24T14:42:10Z</time>
      </trkpt>
      <trkpt lat="44.7393" lon="-0.33075">
        <ele>83</ele>
        <time>2013-11-24T14:42:17Z</time>
      </trkpt>
      <trkpt lat="44.73927" lon="-0.33071">
        <ele>83</ele>
        <time>2013-11-24T14:42:18Z</time>
      </trkpt>
      <trkpt lat="44.73908" lon="-0.33049">
        <ele>80</ele>
        <time>2013-11-24T14:42:24Z</time>
      </trkpt>
      <trkpt lat="44.73883" lon="-0.3302">
        <ele>77</ele>
        <time>2013-11-24T14:42:32Z</time>
      </trkpt>
      <trkpt lat="44.73877" lon="-0.33009">
        <ele>76</ele>
        <time>2013-11-24T14:42:34Z</time>
      </trkpt>
      <trkpt lat="44.7387" lon="-0.32999">
        <ele>76</ele>
        <time>2013-11-24T14:42:36Z</time>
      </trkpt>
      <trkpt lat="44.73854" lon="-0.32977">
        <ele>74</ele>
        <time>2013-11-24T14:42:40Z</time>
      </trkpt>
      <trkpt lat="44.73841" lon="-0.32945">
        <ele>71</ele>
        <time>2013-11-24T14:42:46Z</time>
      </trkpt>
      <trkpt lat="44.73819" lon="-0.32942">
        <ele>70</ele>
        <time>2013-11-24T14:42:52Z</time>
      </trkpt>
      <trkpt lat="44.73809" lon="-0.32945">
        <ele>70</ele>
        <time>2013-11-24T14:42:54Z</time>
      </trkpt>
      <trkpt lat="44.73786" lon="-0.32947">
        <ele>68</ele>
        <time>2013-11-24T14:42:58Z</time>
      </trkpt>
      <trkpt lat="44.73759" lon="-0.32957">
        <ele>66</ele>
        <time>2013-11-24T14:43:04Z</time>
      </trkpt>
      <trkpt lat="44.73729" lon="-0.3297">
        <ele>63</ele>
        <time>2013-11-24T14:43:11Z</time>
      </trkpt>
      <trkpt lat="44.73699" lon="-0.32988">
        <ele>58</ele>
        <time>2013-11-24T14:43:18Z</time>
      </trkpt>
      <trkpt lat="44.73672" lon="-0.32996">
        <ele>55</ele>
        <time>2013-11-24T14:43:24Z</time>
      </trkpt>
      <trkpt lat="44.73658" lon="-0.32983">
        <ele>55</ele>
        <time>2013-11-24T14:43:29Z</time>
      </trkpt>
      <trkpt lat="44.73653" lon="-0.32979">
        <ele>55</ele>
        <time>2013-11-24T14:43:31Z</time>
      </trkpt>
      <trkpt lat="44.73635" lon="-0.32973">
        <ele>54</ele>
        <time>2013-11-24T14:43:37Z</time>
      </trkpt>
      <trkpt lat="44.73625" lon="-0.32969">
        <ele>54</ele>
        <time>2013-11-24T14:43:42Z</time>
      </trkpt>
      <trkpt lat="44.73616" lon="-0.32967">
        <ele>54</ele>
        <time>2013-11-24T14:43:47Z</time>
      </trkpt>
      <trkpt lat="44.73598" lon="-0.32962">
        <ele>54</ele>
        <time>2013-11-24T14:43:54Z</time>
      </trkpt>
      <trkpt lat="44.73576" lon="-0.32966">
        <ele>55</ele>
        <time>2013-11-24T14:44:01Z</time>
      </trkpt>
      <trkpt lat="44.73553" lon="-0.32972">
        <ele>54</ele>
        <time>2013-11-24T14:44:08Z</time>
      </trkpt>
      <trkpt lat="44.73521" lon="-0.32977">
        <ele>54</ele>
        <time>2013-11-24T14:44:16Z</time>
      </trkpt>
      <trkpt lat="44.73497" lon="-0.32979">
        <ele>53</ele>
        <time>2013-11-24T14:44:22Z</time>
      </trkpt>
      <trkpt lat="44.73473" lon="-0.32986">
        <ele>54</ele>
        <time>2013-11-24T14:44:28Z</time>
      </trkpt>
      <trkpt lat="44.73456" lon="-0.32988">
        <ele>54</ele>
        <time>2013-11-24T14:44:33Z</time>
      </trkpt>
      <trkpt lat="44.7344" lon="-0.32995">
        <ele>55</ele>
        <time>2013-11-24T14:44:39Z</time>
      </trkpt>
      <trkpt lat="44.73425" lon="-0.33005">
        <ele>56</ele>
        <time>2013-11-24T14:44:44Z</time>
      </trkpt>
      <trkpt lat="44.73408" lon="-0.33016">
        <ele>56</ele>
        <time>2013-11-24T14:44:50Z</time>
      </trkpt>
      <trkpt lat="44.73395" lon="-0.33027">
        <ele>57</ele>
        <time>2013-11-24T14:44:56Z</time>
      </trkpt>
      <trkpt lat="44.73382" lon="-0.33032">
        <ele>58</ele>
        <time>2013-11-24T14:45:03Z</time>
      </trkpt>
      <trkpt lat="44.73366" lon="-0.33035">
        <ele>58</ele>
        <time>2013-11-24T14:45:12Z</time>
      </trkpt>
      <trkpt lat="44.73356" lon="-0.3304">
        <ele>59</ele>
        <time>2013-11-24T14:45:19Z</time>
      </trkpt>
      <trkpt lat="44.7335" lon="-0.33046">
        <ele>59</ele>
        <time>2013-11-24T14:45:25Z</time>
      </trkpt>
      <trkpt lat="44.7335" lon="-0.3307">
        <ele>61</ele>
        <time>2013-11-24T14:45:36Z</time>
      </trkpt>
      <trkpt lat="44.73349" lon="-0.33079">
        <ele>61</ele>
        <time>2013-11-24T14:45:40Z</time>
      </trkpt>
      <trkpt lat="44.73345" lon="-0.33098">
        <ele>62</ele>
        <time>2013-11-24T14:45:48Z</time>
      </trkpt>
      <trkpt lat="44.73341" lon="-0.33114">
        <ele>63</ele>
        <time>2013-11-24T14:45:55Z</time>
      </trkpt>
      <trkpt lat="44.73341" lon="-0.33123">
        <ele>63</ele>
        <time>2013-11-24T14:45:59Z</time>
      </trkpt>
      <trkpt lat="44.73352" lon="-0.33132">
        <ele>64</ele>
        <time>2013-11-24T14:46:07Z</time>
      </trkpt>
      <trkpt lat="44.73375" lon="-0.33138">
        <ele>64</ele>
        <time>2013-11-24T14:46:18Z</time>
      </trkpt>
      <trkpt lat="44.73392" lon="-0.33144">
        <ele>64</ele>
        <time>2013-11-24T14:46:26Z</time>
      </trkpt>
      <trkpt lat="44.73412" lon="-0.33153">
        <ele>65</ele>
        <time>2013-11-24T14:46:35Z</time>
      </trkpt>
      <trkpt lat="44.73425" lon="-0.3316">
        <ele>67</ele>
        <time>2013-11-24T14:46:42Z</time>
      </trkpt>
      <trkpt lat="44.73439" lon="-0.3317">
        <ele>70</ele>
        <time>2013-11-24T14:46:50Z</time>
      </trkpt>
      <trkpt lat="44.73452" lon="-0.33179">
        <ele>72</ele>
        <time>2013-11-24T14:46:57Z</time>
      </trkpt>
      <trkpt lat="44.73462" lon="-0.33188">
        <ele>72</ele>
        <time>2013-11-24T14:47:03Z</time>
      </trkpt>
      <trkpt lat="44.73469" lon="-0.33212">
        <ele>74</ele>
        <time>2013-11-24T14:47:11Z</time>
      </trkpt>
      <trkpt lat="44.7347" lon="-0.33232">
        <ele>75</ele>
        <time>2013-11-24T14:47:19Z</time>
      </trkpt>
      <trkpt lat="44.73472" lon="-0.33261">
        <ele>77</ele>
        <time>2013-11-24T14:47:30Z</time>
      </trkpt>
      <trkpt lat="44.73473" lon="-0.33281">
        <ele>79</ele>
        <time>2013-11-24T14:47:38Z</time>
      </trkpt>
      <trkpt lat="44.73474" lon="-0.33302">
        <ele>81</ele>
        <time>2013-11-24T14:47:46Z</time>
      </trkpt>
      <trkpt lat="44.73476" lon="-0.3333">
        <ele>84</ele>
        <time>2013-11-24T14:47:57Z</time>
      </trkpt>
      <trkpt lat="44.73477" lon="-0.33351">
        <ele>85</ele>
        <time>2013-11-24T14:48:06Z</time>
      </trkpt>
      <trkpt lat="44.73476" lon="-0.33367">
        <ele>86</ele>
        <time>2013-11-24T14:48:14Z</time>
      </trkpt>
      <trkpt lat="44.73476" lon="-0.33374">
        <ele>86</ele>
        <time>2013-11-24T14:48:18Z</time>
      </trkpt>
      <trkpt lat="44.73472" lon="-0.33391">
        <ele>88</ele>
        <time>2013-11-24T14:48:26Z</time>
      </trkpt>
      <trkpt lat="44.73464" lon="-0.33408">
        <ele>88</ele>
        <time>2013-11-24T14:48:35Z</time>
      </trkpt>
      <trkpt lat="44.73455" lon="-0.33423">
        <ele>89</ele>
        <time>2013-11-24T14:48:43Z</time>
      </trkpt>
      <trkpt lat="44.73443" lon="-0.33444">
        <ele>91</ele>
        <time>2013-11-24T14:48:53Z</time>
      </trkpt>
      <trkpt lat="44.7343" lon="-0.33464">
        <ele>91</ele>
        <time>2013-11-24T14:49:02Z</time>
      </trkpt>
      <trkpt lat="44.7342" lon="-0.33479">
        <ele>92</ele>
        <time>2013-11-24T14:49:09Z</time>
      </trkpt>
      <trkpt lat="44.73415" lon="-0.33486">
        <ele>92</ele>
        <time>2013-11-24T14:49:12Z</time>
      </trkpt>
      <trkpt lat="44.73407" lon="-0.33495">
        <ele>92</ele>
        <time>2013-11-24T14:49:17Z</time>
      </trkpt>
      <trkpt lat="44.73392" lon="-0.33517">
        <ele>93</ele>
        <time>2013-11-24T14:49:26Z</time>
      </trkpt>
      <trkpt lat="44.73382" lon="-0.3354">
        <ele>94</ele>
        <time>2013-11-24T14:49:34Z</time>
      </trkpt>
      <trkpt lat="44.7338" lon="-0.33551">
        <ele>95</ele>
        <time>2013-11-24T14:49:39Z</time>
      </trkpt>
      <trkpt lat="44.73385" lon="-0.3356">
        <ele>94</ele>
        <time>2013-11-24T14:49:45Z</time>
      </trkpt>
      <trkpt lat="44.73394" lon="-0.33576">
        <ele>94</ele>
        <time>2013-11-24T14:49:53Z</time>
      </trkpt>
      <trkpt lat="44.73398" lon="-0.33581">
        <ele>94</ele>
        <time>2013-11-24T14:49:56Z</time>
      </trkpt>
      <trkpt lat="44.734" lon="-0.33584">
        <ele>94</ele>
        <time>2013-11-24T14:50:03Z</time>
      </trkpt>
      <trkpt lat="44.73401" lon="-0.33586">
        <ele>94</ele>
        <time>2013-11-24T14:50:14Z</time>
      </trkpt>
      <trkpt lat="44.73393" lon="-0.33601">
        <ele>95</ele>
        <time>2013-11-24T14:50:22Z</time>
      </trkpt>
      <trkpt lat="44.7338" lon="-0.33617">
        <ele>96</ele>
        <time>2013-11-24T14:50:28Z</time>
      </trkpt>
      <trkpt lat="44.73369" lon="-0.33645">
        <ele>98</ele>
        <time>2013-11-24T14:50:36Z</time>
      </trkpt>
      <trkpt lat="44.7337" lon="-0.3367">
        <ele>97</ele>
        <time>2013-11-24T14:50:42Z</time>
      </trkpt>
      <trkpt lat="44.73374" lon="-0.33707">
        <ele>97</ele>
        <time>2013-11-24T14:50:49Z</time>
      </trkpt>
      <trkpt lat="44.73377" lon="-0.33751">
        <ele>94</ele>
        <time>2013-11-24T14:50:56Z</time>
      </trkpt>
      <trkpt lat="44.73375" lon="-0.33756">
        <ele>94</ele>
        <time>2013-11-24T14:50:57Z</time>
      </trkpt>
      <trkpt lat="44.73371" lon="-0.33759">
        <ele>94</ele>
        <time>2013-11-24T14:50:58Z</time>
      </trkpt>
      <trkpt lat="44.73367" lon="-0.3376">
        <ele>93</ele>
        <time>2013-11-24T14:50:59Z</time>
      </trkpt>
      <trkpt lat="44.73363" lon="-0.3376">
        <ele>93</ele>
        <time>2013-11-24T14:51:00Z</time>
      </trkpt>
      <trkpt lat="44.73358" lon="-0.33759">
        <ele>93</ele>
        <time>2013-11-24T14:51:01Z</time>
      </trkpt>
      <trkpt lat="44.73331" lon="-0.33753">
        <ele>93</ele>
        <time>2013-11-24T14:51:08Z</time>
      </trkpt>
      <trkpt lat="44.73308" lon="-0.33756">
        <ele>93</ele>
        <time>2013-11-24T14:51:14Z</time>
      </trkpt>
      <trkpt lat="44.7329" lon="-0.33767">
        <ele>93</ele>
        <time>2013-11-24T14:51:19Z</time>
      </trkpt>
      <trkpt lat="44.73278" lon="-0.33774">
        <ele>93</ele>
        <time>2013-11-24T14:51:22Z</time>
      </trkpt>
      <trkpt lat="44.73249" lon="-0.33796">
        <ele>92</ele>
        <time>2013-11-24T14:51:30Z</time>
      </trkpt>
      <trkpt lat="44.73223" lon="-0.33815">
        <ele>91</ele>
        <time>2013-11-24T14:51:37Z</time>
      </trkpt>
      <trkpt lat="44.73193" lon="-0.33837">
        <ele>91</ele>
        <time>2013-11-24T14:51:44Z</time>
      </trkpt>
      <trkpt lat="44.73148" lon="-0.33871">
        <ele>90</ele>
        <time>2013-11-24T14:51:54Z</time>
      </trkpt>
      <trkpt lat="44.73119" lon="-0.33895">
        <ele>90</ele>
        <time>2013-11-24T14:52:01Z</time>
      </trkpt>
      <trkpt lat="44.73086" lon="-0.3392">
        <ele>89</ele>
        <time>2013-11-24T14:52:09Z</time>
      </trkpt>
      <trkpt lat="44.7306" lon="-0.3394">
        <ele>89</ele>
        <time>2013-11-24T14:52:15Z</time>
      </trkpt>
      <trkpt lat="44.73036" lon="-0.33959">
        <ele>88</ele>
        <time>2013-11-24T14:52:22Z</time>
      </trkpt>
      <trkpt lat="44.7302" lon="-0.33969">
        <ele>88</ele>
        <time>2013-11-24T14:52:27Z</time>
      </trkpt>
      <trkpt lat="44.72999" lon="-0.33982">
        <ele>86</ele>
        <time>2013-11-24T14:52:32Z</time>
      </trkpt>
      <trkpt lat="44.72976" lon="-0.33993">
        <ele>85</ele>
        <time>2013-11-24T14:52:38Z</time>
      </trkpt>
      <trkpt lat="44.72959" lon="-0.33992">
        <ele>84</ele>
        <time>2013-11-24T14:52:42Z</time>
      </trkpt>
      <trkpt lat="44.72954" lon="-0.33991">
        <ele>83</ele>
        <time>2013-11-24T14:52:43Z</time>
      </trkpt>
      <trkpt lat="44.72949" lon="-0.33991">
        <ele>83</ele>
        <time>2013-11-24T14:52:44Z</time>
      </trkpt>
      <trkpt lat="44.72922" lon="-0.33994">
        <ele>80</ele>
        <time>2013-11-24T14:52:49Z</time>
      </trkpt>
      <trkpt lat="44.72917" lon="-0.33994">
        <ele>80</ele>
        <time>2013-11-24T14:52:50Z</time>
      </trkpt>
      <trkpt lat="44.72893" lon="-0.33997">
        <ele>78</ele>
        <time>2013-11-24T14:52:56Z</time>
      </trkpt>
      <trkpt lat="44.72884" lon="-0.33999">
        <ele>78</ele>
        <time>2013-11-24T14:52:58Z</time>
      </trkpt>
      <trkpt lat="44.72879" lon="-0.33999">
        <ele>77</ele>
        <time>2013-11-24T14:52:59Z</time>
      </trkpt>
      <trkpt lat="44.72857" lon="-0.34004">
        <ele>77</ele>
        <time>2013-11-24T14:53:04Z</time>
      </trkpt>
      <trkpt lat="44.72841" lon="-0.34005">
        <ele>76</ele>
        <time>2013-11-24T14:53:07Z</time>
      </trkpt>
      <trkpt lat="44.72836" lon="-0.34005">
        <ele>76</ele>
        <time>2013-11-24T14:53:08Z</time>
      </trkpt>
      <trkpt lat="44.72831" lon="-0.34006">
        <ele>76</ele>
        <time>2013-11-24T14:53:09Z</time>
      </trkpt>
      <trkpt lat="44.72813" lon="-0.3401">
        <ele>75</ele>
        <time>2013-11-24T14:53:14Z</time>
      </trkpt>
      <trkpt lat="44.72791" lon="-0.34018">
        <ele>74</ele>
        <time>2013-11-24T14:53:21Z</time>
      </trkpt>
      <trkpt lat="44.72774" lon="-0.34024">
        <ele>73</ele>
        <time>2013-11-24T14:53:27Z</time>
      </trkpt>
      <trkpt lat="44.72759" lon="-0.34029">
        <ele>72</ele>
        <time>2013-11-24T14:53:33Z</time>
      </trkpt>
      <trkpt lat="44.7274" lon="-0.3403">
        <ele>70</ele>
        <time>2013-11-24T14:53:40Z</time>
      </trkpt>
      <trkpt lat="44.72723" lon="-0.34032">
        <ele>68</ele>
        <time>2013-11-24T14:53:45Z</time>
      </trkpt>
      <trkpt lat="44.727" lon="-0.34031">
        <ele>65</ele>
        <time>2013-11-24T14:53:52Z</time>
      </trkpt>
      <trkpt lat="44.72677" lon="-0.34038">
        <ele>63</ele>
        <time>2013-11-24T14:53:58Z</time>
      </trkpt>
      <trkpt lat="44.72657" lon="-0.34048">
        <ele>61</ele>
        <time>2013-11-24T14:54:03Z</time>
      </trkpt>
      <trkpt lat="44.72653" lon="-0.3405">
        <ele>60</ele>
        <time>2013-11-24T14:54:04Z</time>
      </trkpt>
      <trkpt lat="44.72643" lon="-0.34056">
        <ele>60</ele>
        <time>2013-11-24T14:54:06Z</time>
      </trkpt>
      <trkpt lat="44.72639" lon="-0.34057">
        <ele>59</ele>
        <time>2013-11-24T14:54:07Z</time>
      </trkpt>
      <trkpt lat="44.72635" lon="-0.3406">
        <ele>59</ele>
        <time>2013-11-24T14:54:11Z</time>
      </trkpt>
      <trkpt lat="44.72632" lon="-0.34064">
        <ele>59</ele>
        <time>2013-11-24T14:54:16Z</time>
      </trkpt>
      <trkpt lat="44.72631" lon="-0.34068">
        <ele>59</ele>
        <time>2013-11-24T14:54:21Z</time>
      </trkpt>
      <trkpt lat="44.72631" lon="-0.34073">
        <ele>59</ele>
        <time>2013-11-24T14:54:27Z</time>
      </trkpt>
      <trkpt lat="44.72632" lon="-0.34076">
        <ele>59</ele>
        <time>2013-11-24T14:54:34Z</time>
      </trkpt>
      <trkpt lat="44.7263" lon="-0.34079">
        <ele>59</ele>
        <time>2013-11-24T14:54:42Z</time>
      </trkpt>
      <trkpt lat="44.7263" lon="-0.3408">
        <ele>59</ele>
        <time>2013-11-24T14:54:49Z</time>
      </trkpt>
      <trkpt lat="44.7263" lon="-0.34081">
        <ele>59</ele>
        <time>2013-11-24T14:54:56Z</time>
      </trkpt>
      <trkpt lat="44.7263" lon="-0.34081">
        <ele>59</ele>
        <time>2013-11-24T14:55:10Z</time>
      </trkpt>
      <trkpt lat="44.72631" lon="-0.34083">
        <ele>59</ele>
        <time>2013-11-24T14:55:16Z</time>
      </trkpt>
      <trkpt lat="44.72635" lon="-0.34085">
        <ele>59</ele>
        <time>2013-11-24T14:55:20Z</time>
      </trkpt>
      <trkpt lat="44.72641" lon="-0.34097">
        <ele>60</ele>
        <time>2013-11-24T14:55:26Z</time>
      </trkpt>
      <trkpt lat="44.72639" lon="-0.34107">
        <ele>59</ele>
        <time>2013-11-24T14:55:32Z</time>
      </trkpt>
      <trkpt lat="44.72638" lon="-0.3411">
        <ele>59</ele>
        <time>2013-11-24T14:55:34Z</time>
      </trkpt>
      <trkpt lat="44.72636" lon="-0.34118">
        <ele>60</ele>
        <time>2013-11-24T14:55:38Z</time>
      </trkpt>
      <trkpt lat="44.72636" lon="-0.34129">
        <ele>60</ele>
        <time>2013-11-24T14:55:44Z</time>
      </trkpt>
      <trkpt lat="44.72641" lon="-0.34139">
        <ele>61</ele>
        <time>2013-11-24T14:55:50Z</time>
      </trkpt>
      <trkpt lat="44.72649" lon="-0.34151">
        <ele>62</ele>
        <time>2013-11-24T14:55:56Z</time>
      </trkpt>
      <trkpt lat="44.72651" lon="-0.34152">
        <ele>62</ele>
        <time>2013-11-24T14:55:57Z</time>
      </trkpt>
      <trkpt lat="44.72653" lon="-0.34165">
        <ele>63</ele>
        <time>2013-11-24T14:56:02Z</time>
      </trkpt>
      <trkpt lat="44.72653" lon="-0.34175">
        <ele>63</ele>
        <time>2013-11-24T14:56:06Z</time>
      </trkpt>
      <trkpt lat="44.72658" lon="-0.34191">
        <ele>65</ele>
        <time>2013-11-24T14:56:12Z</time>
      </trkpt>
      <trkpt lat="44.7266" lon="-0.34198">
        <ele>65</ele>
        <time>2013-11-24T14:56:16Z</time>
      </trkpt>
      <trkpt lat="44.72656" lon="-0.34212">
        <ele>67</ele>
        <time>2013-11-24T14:56:23Z</time>
      </trkpt>
      <trkpt lat="44.72658" lon="-0.34225">
        <ele>68</ele>
        <time>2013-11-24T14:56:31Z</time>
      </trkpt>
      <trkpt lat="44.72663" lon="-0.34232">
        <ele>69</ele>
        <time>2013-11-24T14:56:39Z</time>
      </trkpt>
      <trkpt lat="44.72666" lon="-0.34241">
        <ele>70</ele>
        <time>2013-11-24T14:56:45Z</time>
      </trkpt>
      <trkpt lat="44.72665" lon="-0.34248">
        <ele>71</ele>
        <time>2013-11-24T14:56:52Z</time>
      </trkpt>
      <trkpt lat="44.72664" lon="-0.34251">
        <ele>71</ele>
        <time>2013-11-24T14:56:58Z</time>
      </trkpt>
      <trkpt lat="44.72664" lon="-0.34252">
        <ele>71</ele>
        <time>2013-11-24T14:57:05Z</time>
      </trkpt>
      <trkpt lat="44.72664" lon="-0.34252">
        <ele>71</ele>
        <time>2013-11-24T14:57:06Z</time>
      </trkpt>
      <trkpt lat="44.72663" lon="-0.3426">
        <ele>72</ele>
        <time>2013-11-24T14:57:14Z</time>
      </trkpt>
      <trkpt lat="44.72663" lon="-0.34267">
        <ele>73</ele>
        <time>2013-11-24T14:57:21Z</time>
      </trkpt>
      <trkpt lat="44.72663" lon="-0.34268">
        <ele>73</ele>
        <time>2013-11-24T14:57:23Z</time>
      </trkpt>
      <trkpt lat="44.7266" lon="-0.34273">
        <ele>73</ele>
        <time>2013-11-24T14:57:27Z</time>
      </trkpt>
      <trkpt lat="44.72657" lon="-0.34275">
        <ele>73</ele>
        <time>2013-11-24T14:57:29Z</time>
      </trkpt>
      <trkpt lat="44.72649" lon="-0.34283">
        <ele>74</ele>
        <time>2013-11-24T14:57:37Z</time>
      </trkpt>
      <trkpt lat="44.7265" lon="-0.34288">
        <ele>75</ele>
        <time>2013-11-24T14:57:44Z</time>
      </trkpt>
      <trkpt lat="44.72651" lon="-0.34293">
        <ele>75</ele>
        <time>2013-11-24T14:57:52Z</time>
      </trkpt>
      <trkpt lat="44.72652" lon="-0.34295">
        <ele>75</ele>
        <time>2013-11-24T14:57:58Z</time>
      </trkpt>
      <trkpt lat="44.72652" lon="-0.34297">
        <ele>76</ele>
        <time>2013-11-24T14:58:04Z</time>
      </trkpt>
      <trkpt lat="44.72652" lon="-0.343">
        <ele>76</ele>
        <time>2013-11-24T14:58:09Z</time>
      </trkpt>
      <trkpt lat="44.72652" lon="-0.34303">
        <ele>76</ele>
        <time>2013-11-24T14:58:15Z</time>
      </trkpt>
      <trkpt lat="44.72653" lon="-0.34309">
        <ele>77</ele>
        <time>2013-11-24T14:58:22Z</time>
      </trkpt>
      <trkpt lat="44.72654" lon="-0.3431">
        <ele>77</ele>
        <time>2013-11-24T14:58:30Z</time>
      </trkpt>
      <trkpt lat="44.72655" lon="-0.34312">
        <ele>77</ele>
        <time>2013-11-24T14:58:48Z</time>
      </trkpt>
      <trkpt lat="44.72658" lon="-0.34313">
        <ele>77</ele>
        <time>2013-11-24T14:58:54Z</time>
      </trkpt>
      <trkpt lat="44.72659" lon="-0.34314">
        <ele>78</ele>
        <time>2013-11-24T14:59:02Z</time>
      </trkpt>
      <trkpt lat="44.72659" lon="-0.34314">
        <ele>78</ele>
        <time>2013-11-24T14:59:12Z</time>
      </trkpt>
      <trkpt lat="44.7266" lon="-0.34315">
        <ele>78</ele>
        <time>2013-11-24T14:59:18Z</time>
      </trkpt>
      <trkpt lat="44.72664" lon="-0.34315">
        <ele>78</ele>
        <time>2013-11-24T14:59:22Z</time>
      </trkpt>
      <trkpt lat="44.72679" lon="-0.3432">
        <ele>78</ele>
        <time>2013-11-24T14:59:30Z</time>
      </trkpt>
      <trkpt lat="44.72692" lon="-0.34326">
        <ele>79</ele>
        <time>2013-11-24T14:59:36Z</time>
      </trkpt>
      <trkpt lat="44.72705" lon="-0.34328">
        <ele>79</ele>
        <time>2013-11-24T14:59:42Z</time>
      </trkpt>
      <trkpt lat="44.72721" lon="-0.34328">
        <ele>80</ele>
        <time>2013-11-24T14:59:50Z</time>
      </trkpt>
      <trkpt lat="44.72739" lon="-0.34328">
        <ele>81</ele>
        <time>2013-11-24T14:59:57Z</time>
      </trkpt>
      <trkpt lat="44.72755" lon="-0.34327">
        <ele>81</ele>
        <time>2013-11-24T15:00:04Z</time>
      </trkpt>
      <trkpt lat="44.72773" lon="-0.34324">
        <ele>81</ele>
        <time>2013-11-24T15:00:12Z</time>
      </trkpt>
      <trkpt lat="44.7279" lon="-0.34323">
        <ele>82</ele>
        <time>2013-11-24T15:00:20Z</time>
      </trkpt>
      <trkpt lat="44.72807" lon="-0.34322">
        <ele>81</ele>
        <time>2013-11-24T15:00:27Z</time>
      </trkpt>
      <trkpt lat="44.72815" lon="-0.34318">
        <ele>80</ele>
        <time>2013-11-24T15:00:30Z</time>
      </trkpt>
      <trkpt lat="44.72821" lon="-0.34307">
        <ele>80</ele>
        <time>2013-11-24T15:00:35Z</time>
      </trkpt>
      <trkpt lat="44.72823" lon="-0.34306">
        <ele>79</ele>
        <time>2013-11-24T15:00:37Z</time>
      </trkpt>
      <trkpt lat="44.72829" lon="-0.34309">
        <ele>79</ele>
        <time>2013-11-24T15:00:42Z</time>
      </trkpt>
      <trkpt lat="44.72848" lon="-0.34294">
        <ele>78</ele>
        <time>2013-11-24T15:00:49Z</time>
      </trkpt>
      <trkpt lat="44.72856" lon="-0.34287">
        <ele>77</ele>
        <time>2013-11-24T15:00:51Z</time>
      </trkpt>
      <trkpt lat="44.72886" lon="-0.34264">
        <ele>74</ele>
        <time>2013-11-24T15:00:58Z</time>
      </trkpt>
      <trkpt lat="44.72905" lon="-0.34239">
        <ele>73</ele>
        <time>2013-11-24T15:01:05Z</time>
      </trkpt>
      <trkpt lat="44.72917" lon="-0.34223">
        <ele>73</ele>
        <time>2013-11-24T15:01:11Z</time>
      </trkpt>
      <trkpt lat="44.72926" lon="-0.34218">
        <ele>72</ele>
        <time>2013-11-24T15:01:15Z</time>
      </trkpt>
      <trkpt lat="44.72948" lon="-0.34233">
        <ele>69</ele>
        <time>2013-11-24T15:01:23Z</time>
      </trkpt>
      <trkpt lat="44.72969" lon="-0.34247">
        <ele>67</ele>
        <time>2013-11-24T15:01:31Z</time>
      </trkpt>
      <trkpt lat="44.72982" lon="-0.34255">
        <ele>65</ele>
        <time>2013-11-24T15:01:37Z</time>
      </trkpt>
      <trkpt lat="44.73" lon="-0.34262">
        <ele>63</ele>
        <time>2013-11-24T15:01:43Z</time>
      </trkpt>
      <trkpt lat="44.73021" lon="-0.34274">
        <ele>61</ele>
        <time>2013-11-24T15:01:49Z</time>
      </trkpt>
      <trkpt lat="44.73043" lon="-0.34283">
        <ele>59</ele>
        <time>2013-11-24T15:01:56Z</time>
      </trkpt>
      <trkpt lat="44.73068" lon="-0.3428">
        <ele>58</ele>
        <time>2013-11-24T15:02:03Z</time>
      </trkpt>
      <trkpt lat="44.73083" lon="-0.34287">
        <ele>58</ele>
        <time>2013-11-24T15:02:09Z</time>
      </trkpt>
      <trkpt lat="44.73093" lon="-0.34299">
        <ele>57</ele>
        <time>2013-11-24T15:02:15Z</time>
      </trkpt>
      <trkpt lat="44.73095" lon="-0.34308">
        <ele>57</ele>
        <time>2013-11-24T15:02:18Z</time>
      </trkpt>
      <trkpt lat="44.73105" lon="-0.34316">
        <ele>56</ele>
        <time>2013-11-24T15:02:24Z</time>
      </trkpt>
      <trkpt lat="44.73107" lon="-0.34318">
        <ele>56</ele>
        <time>2013-11-24T15:02:25Z</time>
      </trkpt>
      <trkpt lat="44.7311" lon="-0.34322">
        <ele>56</ele>
        <time>2013-11-24T15:02:32Z</time>
      </trkpt>
      <trkpt lat="44.7311" lon="-0.34323">
        <ele>56</ele>
        <time>2013-11-24T15:02:36Z</time>
      </trkpt>
      <trkpt lat="44.73104" lon="-0.34329">
        <ele>56</ele>
        <time>2013-11-24T15:02:42Z</time>
      </trkpt>
      <trkpt lat="44.73099" lon="-0.34335">
        <ele>56</ele>
        <time>2013-11-24T15:02:47Z</time>
      </trkpt>
      <trkpt lat="44.73098" lon="-0.34349">
        <ele>56</ele>
        <time>2013-11-24T15:02:53Z</time>
      </trkpt>
      <trkpt lat="44.731" lon="-0.3438">
        <ele>55</ele>
        <time>2013-11-24T15:03:01Z</time>
      </trkpt>
      <trkpt lat="44.73103" lon="-0.34418">
        <ele>54</ele>
        <time>2013-11-24T15:03:09Z</time>
      </trkpt>
      <trkpt lat="44.73105" lon="-0.34436">
        <ele>54</ele>
        <time>2013-11-24T15:03:13Z</time>
      </trkpt>
      <trkpt lat="44.7311" lon="-0.34466">
        <ele>54</ele>
        <time>2013-11-24T15:03:20Z</time>
      </trkpt>
      <trkpt lat="44.73111" lon="-0.3449">
        <ele>53</ele>
        <time>2013-11-24T15:03:26Z</time>
      </trkpt>
      <trkpt lat="44.73117" lon="-0.34506">
        <ele>54</ele>
        <time>2013-11-24T15:03:32Z</time>
      </trkpt>
      <trkpt lat="44.73132" lon="-0.3452">
        <ele>55</ele>
        <time>2013-11-24T15:03:40Z</time>
      </trkpt>
      <trkpt lat="44.7315" lon="-0.34539">
        <ele>56</ele>
        <time>2013-11-24T15:03:49Z</time>
      </trkpt>
      <trkpt lat="44.73153" lon="-0.34555">
        <ele>56</ele>
        <time>2013-11-24T15:03:54Z</time>
      </trkpt>
      <trkpt lat="44.73153" lon="-0.34586">
        <ele>55</ele>
        <time>2013-11-24T15:04:02Z</time>
      </trkpt>
      <trkpt lat="44.73154" lon="-0.34609">
        <ele>55</ele>
        <time>2013-11-24T15:04:08Z</time>
      </trkpt>
      <trkpt lat="44.73153" lon="-0.34643">
        <ele>54</ele>
        <time>2013-11-24T15:04:16Z</time>
      </trkpt>
      <trkpt lat="44.73152" lon="-0.34684">
        <ele>53</ele>
        <time>2013-11-24T15:04:25Z</time>
      </trkpt>
      <trkpt lat="44.7315" lon="-0.34719">
        <ele>52</ele>
        <time>2013-11-24T15:04:32Z</time>
      </trkpt>
      <trkpt lat="44.73146" lon="-0.34755">
        <ele>52</ele>
        <time>2013-11-24T15:04:39Z</time>
      </trkpt>
      <trkpt lat="44.7315" lon="-0.34788">
        <ele>52</ele>
        <time>2013-11-24T15:04:47Z</time>
      </trkpt>
      <trkpt lat="44.73152" lon="-0.3481">
        <ele>52</ele>
        <time>2013-11-24T15:04:53Z</time>
      </trkpt>
      <trkpt lat="44.73159" lon="-0.34819">
        <ele>52</ele>
        <time>2013-11-24T15:04:57Z</time>
      </trkpt>
      <trkpt lat="44.73161" lon="-0.34819">
        <ele>53</ele>
        <time>2013-11-24T15:04:58Z</time>
      </trkpt>
      <trkpt lat="44.73163" lon="-0.34818">
        <ele>53</ele>
        <time>2013-11-24T15:04:59Z</time>
      </trkpt>
      <trkpt lat="44.73175" lon="-0.34813">
        <ele>54</ele>
        <time>2013-11-24T15:05:07Z</time>
      </trkpt>
      <trkpt lat="44.73177" lon="-0.34813">
        <ele>54</ele>
        <time>2013-11-24T15:05:09Z</time>
      </trkpt>
      <trkpt lat="44.73179" lon="-0.34814">
        <ele>54</ele>
        <time>2013-11-24T15:05:10Z</time>
      </trkpt>
      <trkpt lat="44.7318" lon="-0.34815">
        <ele>54</ele>
        <time>2013-11-24T15:05:11Z</time>
      </trkpt>
      <trkpt lat="44.7318" lon="-0.34817">
        <ele>54</ele>
        <time>2013-11-24T15:05:12Z</time>
      </trkpt>
      <trkpt lat="44.7318" lon="-0.3482">
        <ele>54</ele>
        <time>2013-11-24T15:05:13Z</time>
      </trkpt>
      <trkpt lat="44.73185" lon="-0.34838">
        <ele>53</ele>
        <time>2013-11-24T15:05:20Z</time>
      </trkpt>
      <trkpt lat="44.73195" lon="-0.3485">
        <ele>52</ele>
        <time>2013-11-24T15:05:26Z</time>
      </trkpt>
      <trkpt lat="44.732" lon="-0.34866">
        <ele>50</ele>
        <time>2013-11-24T15:05:31Z</time>
      </trkpt>
      <trkpt lat="44.73212" lon="-0.34869">
        <ele>50</ele>
        <time>2013-11-24T15:05:37Z</time>
      </trkpt>
      <trkpt lat="44.73226" lon="-0.34871">
        <ele>51</ele>
        <time>2013-11-24T15:05:43Z</time>
      </trkpt>
      <trkpt lat="44.7323" lon="-0.34883">
        <ele>49</ele>
        <time>2013-11-24T15:05:49Z</time>
      </trkpt>
      <trkpt lat="44.73236" lon="-0.34898">
        <ele>48</ele>
        <time>2013-11-24T15:05:56Z</time>
      </trkpt>
      <trkpt lat="44.7324" lon="-0.34905">
        <ele>47</ele>
        <time>2013-11-24T15:05:59Z</time>
      </trkpt>
      <trkpt lat="44.7325" lon="-0.34913">
        <ele>47</ele>
        <time>2013-11-24T15:06:06Z</time>
      </trkpt>
      <trkpt lat="44.73258" lon="-0.34917">
        <ele>47</ele>
        <time>2013-11-24T15:06:10Z</time>
      </trkpt>
      <trkpt lat="44.73268" lon="-0.34925">
        <ele>46</ele>
        <time>2013-11-24T15:06:14Z</time>
      </trkpt>
      <trkpt lat="44.7329" lon="-0.34921">
        <ele>48</ele>
        <time>2013-11-24T15:06:23Z</time>
      </trkpt>
      <trkpt lat="44.73301" lon="-0.34914">
        <ele>49</ele>
        <time>2013-11-24T15:06:29Z</time>
      </trkpt>
      <trkpt lat="44.73304" lon="-0.34911">
        <ele>50</ele>
        <time>2013-11-24T15:06:38Z</time>
      </trkpt>
      <trkpt lat="44.73307" lon="-0.34909">
        <ele>50</ele>
        <time>2013-11-24T15:06:47Z</time>
      </trkpt>
      <trkpt lat="44.73325" lon="-0.34898">
        <ele>52</ele>
        <time>2013-11-24T15:09:29Z</time>
      </trkpt>
      <trkpt lat="44.73333" lon="-0.34888">
        <ele>53</ele>
        <time>2013-11-24T15:09:36Z</time>
      </trkpt>
      <trkpt lat="44.73338" lon="-0.34885">
        <ele>53</ele>
        <time>2013-11-24T15:09:40Z</time>
      </trkpt>
      <trkpt lat="44.73343" lon="-0.34883">
        <ele>54</ele>
        <time>2013-11-24T15:09:44Z</time>
      </trkpt>
      <trkpt lat="44.73346" lon="-0.34884">
        <ele>54</ele>
        <time>2013-11-24T15:09:46Z</time>
      </trkpt>
      <trkpt lat="44.73344" lon="-0.34896">
        <ele>52</ele>
        <time>2013-11-24T15:09:52Z</time>
      </trkpt>
      <trkpt lat="44.73351" lon="-0.34913">
        <ele>50</ele>
        <time>2013-11-24T15:09:58Z</time>
      </trkpt>
      <trkpt lat="44.73352" lon="-0.34928">
        <ele>49</ele>
        <time>2013-11-24T15:10:02Z</time>
      </trkpt>
      <trkpt lat="44.73346" lon="-0.34942">
        <ele>47</ele>
        <time>2013-11-24T15:10:08Z</time>
      </trkpt>
      <trkpt lat="44.73338" lon="-0.34948">
        <ele>46</ele>
        <time>2013-11-24T15:10:13Z</time>
      </trkpt>
      <trkpt lat="44.73334" lon="-0.34958">
        <ele>45</ele>
        <time>2013-11-24T15:10:20Z</time>
      </trkpt>
      <trkpt lat="44.73331" lon="-0.34965">
        <ele>44</ele>
        <time>2013-11-24T15:10:26Z</time>
      </trkpt>
      <trkpt lat="44.73331" lon="-0.34967">
        <ele>44</ele>
        <time>2013-11-24T15:10:32Z</time>
      </trkpt>
      <trkpt lat="44.73329" lon="-0.34971">
        <ele>44</ele>
        <time>2013-11-24T15:10:39Z</time>
      </trkpt>
      <trkpt lat="44.73329" lon="-0.34969">
        <ele>44</ele>
        <time>2013-11-24T15:10:44Z</time>
      </trkpt>
      <trkpt lat="44.73328" lon="-0.34969">
        <ele>44</ele>
        <time>2013-11-24T15:10:48Z</time>
      </trkpt>
      <trkpt lat="44.73324" lon="-0.34968">
        <ele>43</ele>
        <time>2013-11-24T15:10:54Z</time>
      </trkpt>
      <trkpt lat="44.73322" lon="-0.3497">
        <ele>43</ele>
        <time>2013-11-24T15:11:00Z</time>
      </trkpt>
      <trkpt lat="44.73322" lon="-0.34971">
        <ele>43</ele>
        <time>2013-11-24T15:11:06Z</time>
      </trkpt>
      <trkpt lat="44.73323" lon="-0.34973">
        <ele>44</ele>
        <time>2013-11-24T15:11:24Z</time>
      </trkpt>
      <trkpt lat="44.73323" lon="-0.34973">
        <ele>44</ele>
        <time>2013-11-24T15:11:42Z</time>
      </trkpt>
      <trkpt lat="44.73322" lon="-0.34974">
        <ele>44</ele>
        <time>2013-11-24T15:12:03Z</time>
      </trkpt>
      <trkpt lat="44.73323" lon="-0.34975">
        <ele>44</ele>
        <time>2013-11-24T15:12:21Z</time>
      </trkpt>
      <trkpt lat="44.73322" lon="-0.34976">
        <ele>44</ele>
        <time>2013-11-24T15:12:40Z</time>
      </trkpt>
      <trkpt lat="44.73322" lon="-0.34975">
        <ele>44</ele>
        <time>2013-11-24T15:12:56Z</time>
      </trkpt>
      <trkpt lat="44.73322" lon="-0.34974">
        <ele>44</ele>
        <time>2013-11-24T15:13:09Z</time>
      </trkpt>
      <trkpt lat="44.73322" lon="-0.34974">
        <ele>44</ele>
        <time>2013-11-24T15:13:22Z</time>
      </trkpt>
      <trkpt lat="44.73323" lon="-0.34974">
        <ele>44</ele>
        <time>2013-11-24T15:13:29Z</time>
      </trkpt>
      <trkpt lat="44.73323" lon="-0.3498">
        <ele>44</ele>
        <time>2013-11-24T15:13:37Z</time>
      </trkpt>
      <trkpt lat="44.73323" lon="-0.34981">
        <ele>44</ele>
        <time>2013-11-24T15:13:41Z</time>
      </trkpt>
      <trkpt lat="44.7333" lon="-0.34985">
        <ele>45</ele>
        <time>2013-11-24T15:13:48Z</time>
      </trkpt>
      <trkpt lat="44.73331" lon="-0.34985">
        <ele>45</ele>
        <time>2013-11-24T15:13:53Z</time>
      </trkpt>
      <trkpt lat="44.73338" lon="-0.3498">
        <ele>45</ele>
        <time>2013-11-24T15:13:59Z</time>
      </trkpt>
      <trkpt lat="44.73341" lon="-0.34979">
        <ele>45</ele>
        <time>2013-11-24T15:14:02Z</time>
      </trkpt>
      <trkpt lat="44.73354" lon="-0.34976">
        <ele>45</ele>
        <time>2013-11-24T15:14:09Z</time>
      </trkpt>
      <trkpt lat="44.73367" lon="-0.3497">
        <ele>46</ele>
        <time>2013-11-24T15:14:17Z</time>
      </trkpt>
      <trkpt lat="44.73381" lon="-0.34962">
        <ele>46</ele>
        <time>2013-11-24T15:14:24Z</time>
      </trkpt>
      <trkpt lat="44.73384" lon="-0.34961">
        <ele>46</ele>
        <time>2013-11-24T15:14:26Z</time>
      </trkpt>
      <trkpt lat="44.73395" lon="-0.34963">
        <ele>47</ele>
        <time>2013-11-24T15:14:32Z</time>
      </trkpt>
      <trkpt lat="44.73399" lon="-0.34966">
        <ele>47</ele>
        <time>2013-11-24T15:14:39Z</time>
      </trkpt>
      <trkpt lat="44.734" lon="-0.34967">
        <ele>47</ele>
        <time>2013-11-24T15:14:41Z</time>
      </trkpt>
      <trkpt lat="44.73415" lon="-0.34974">
        <ele>48</ele>
        <time>2013-11-24T15:14:48Z</time>
      </trkpt>
      <trkpt lat="44.73421" lon="-0.34975">
        <ele>48</ele>
        <time>2013-11-24T15:14:53Z</time>
      </trkpt>
      <trkpt lat="44.73425" lon="-0.34976">
        <ele>48</ele>
        <time>2013-11-24T15:14:59Z</time>
      </trkpt>
      <trkpt lat="44.73426" lon="-0.34976">
        <ele>48</ele>
        <time>2013-11-24T15:15:04Z</time>
      </trkpt>
      <trkpt lat="44.73433" lon="-0.34978">
        <ele>49</ele>
        <time>2013-11-24T15:15:09Z</time>
      </trkpt>
      <trkpt lat="44.73437" lon="-0.34977">
        <ele>49</ele>
        <time>2013-11-24T15:15:12Z</time>
      </trkpt>
      <trkpt lat="44.7344" lon="-0.3498">
        <ele>49</ele>
        <time>2013-11-24T15:15:15Z</time>
      </trkpt>
      <trkpt lat="44.73453" lon="-0.34986">
        <ele>50</ele>
        <time>2013-11-24T15:15:21Z</time>
      </trkpt>
      <trkpt lat="44.73457" lon="-0.34985">
        <ele>50</ele>
        <time>2013-11-24T15:15:23Z</time>
      </trkpt>
      <trkpt lat="44.73463" lon="-0.34984">
        <ele>50</ele>
        <time>2013-11-24T15:15:27Z</time>
      </trkpt>
      <trkpt lat="44.73476" lon="-0.34985">
        <ele>51</ele>
        <time>2013-11-24T15:15:35Z</time>
      </trkpt>
      <trkpt lat="44.7348" lon="-0.34987">
        <ele>51</ele>
        <time>2013-11-24T15:15:41Z</time>
      </trkpt>
      <trkpt lat="44.73485" lon="-0.3499">
        <ele>52</ele>
        <time>2013-11-24T15:15:44Z</time>
      </trkpt>
      <trkpt lat="44.73488" lon="-0.34996">
        <ele>53</ele>
        <time>2013-11-24T15:15:51Z</time>
      </trkpt>
      <trkpt lat="44.73488" lon="-0.34997">
        <ele>53</ele>
        <time>2013-11-24T15:15:58Z</time>
      </trkpt>
      <trkpt lat="44.73489" lon="-0.35">
        <ele>53</ele>
        <time>2013-11-24T15:16:05Z</time>
      </trkpt>
      <trkpt lat="44.7349" lon="-0.35002">
        <ele>53</ele>
        <time>2013-11-24T15:16:12Z</time>
      </trkpt>
      <trkpt lat="44.73492" lon="-0.35006">
        <ele>54</ele>
        <time>2013-11-24T15:16:20Z</time>
      </trkpt>
      <trkpt lat="44.73492" lon="-0.35008">
        <ele>54</ele>
        <time>2013-11-24T15:16:27Z</time>
      </trkpt>
      <trkpt lat="44.73495" lon="-0.35012">
        <ele>55</ele>
        <time>2013-11-24T15:16:35Z</time>
      </trkpt>
      <trkpt lat="44.73497" lon="-0.35013">
        <ele>55</ele>
        <time>2013-11-24T15:16:40Z</time>
      </trkpt>
      <trkpt lat="44.73502" lon="-0.35018">
        <ele>56</ele>
        <time>2013-11-24T15:16:47Z</time>
      </trkpt>
      <trkpt lat="44.73507" lon="-0.35019">
        <ele>56</ele>
        <time>2013-11-24T15:16:50Z</time>
      </trkpt>
      <trkpt lat="44.73521" lon="-0.35023">
        <ele>56</ele>
        <time>2013-11-24T15:16:58Z</time>
      </trkpt>
      <trkpt lat="44.73527" lon="-0.35024">
        <ele>56</ele>
        <time>2013-11-24T15:17:03Z</time>
      </trkpt>
      <trkpt lat="44.73535" lon="-0.35023">
        <ele>56</ele>
        <time>2013-11-24T15:17:08Z</time>
      </trkpt>
      <trkpt lat="44.73545" lon="-0.35018">
        <ele>56</ele>
        <time>2013-11-24T15:17:15Z</time>
      </trkpt>
      <trkpt lat="44.73547" lon="-0.35019">
        <ele>56</ele>
        <time>2013-11-24T15:17:22Z</time>
      </trkpt>
      <trkpt lat="44.73549" lon="-0.3502">
        <ele>56</ele>
        <time>2013-11-24T15:17:27Z</time>
      </trkpt>
      <trkpt lat="44.73554" lon="-0.35028">
        <ele>57</ele>
        <time>2013-11-24T15:17:35Z</time>
      </trkpt>
      <trkpt lat="44.73556" lon="-0.35029">
        <ele>57</ele>
        <time>2013-11-24T15:17:42Z</time>
      </trkpt>
      <trkpt lat="44.73558" lon="-0.35029">
        <ele>57</ele>
        <time>2013-11-24T15:17:54Z</time>
      </trkpt>
      <trkpt lat="44.73559" lon="-0.3503">
        <ele>57</ele>
        <time>2013-11-24T15:18:08Z</time>
      </trkpt>
      <trkpt lat="44.7356" lon="-0.3503">
        <ele>57</ele>
        <time>2013-11-24T15:18:18Z</time>
      </trkpt>
      <trkpt lat="44.73561" lon="-0.35026">
        <ele>57</ele>
        <time>2013-11-24T15:18:21Z</time>
      </trkpt>
      <trkpt lat="44.73566" lon="-0.35019">
        <ele>56</ele>
        <time>2013-11-24T15:18:25Z</time>
      </trkpt>
      <trkpt lat="44.73576" lon="-0.35017">
        <ele>56</ele>
        <time>2013-11-24T15:18:32Z</time>
      </trkpt>
      <trkpt lat="44.73581" lon="-0.35013">
        <ele>56</ele>
        <time>2013-11-24T15:18:38Z</time>
      </trkpt>
      <trkpt lat="44.73588" lon="-0.35016">
        <ele>56</ele>
        <time>2013-11-24T15:18:43Z</time>
      </trkpt>
      <trkpt lat="44.73594" lon="-0.35022">
        <ele>57</ele>
        <time>2013-11-24T15:18:48Z</time>
      </trkpt>
      <trkpt lat="44.73591" lon="-0.35025">
        <ele>57</ele>
        <time>2013-11-24T15:18:53Z</time>
      </trkpt>
      <trkpt lat="44.73584" lon="-0.35032">
        <ele>58</ele>
        <time>2013-11-24T15:18:58Z</time>
      </trkpt>
      <trkpt lat="44.73582" lon="-0.35041">
        <ele>59</ele>
        <time>2013-11-24T15:19:05Z</time>
      </trkpt>
      <trkpt lat="44.73581" lon="-0.35045">
        <ele>59</ele>
        <time>2013-11-24T15:19:11Z</time>
      </trkpt>
      <trkpt lat="44.73579" lon="-0.35056">
        <ele>60</ele>
        <time>2013-11-24T15:19:18Z</time>
      </trkpt>
      <trkpt lat="44.7358" lon="-0.35056">
        <ele>60</ele>
        <time>2013-11-24T15:19:25Z</time>
      </trkpt>
      <trkpt lat="44.7358" lon="-0.3506">
        <ele>60</ele>
        <time>2013-11-24T15:19:31Z</time>
      </trkpt>
      <trkpt lat="44.73581" lon="-0.35064">
        <ele>61</ele>
        <time>2013-11-24T15:19:37Z</time>
      </trkpt>
      <trkpt lat="44.73582" lon="-0.35069">
        <ele>61</ele>
        <time>2013-11-24T15:19:45Z</time>
      </trkpt>
      <trkpt lat="44.73583" lon="-0.3507">
        <ele>61</ele>
        <time>2013-11-24T15:19:54Z</time>
      </trkpt>
      <trkpt lat="44.73581" lon="-0.35083">
        <ele>62</ele>
        <time>2013-11-24T15:20:01Z</time>
      </trkpt>
      <trkpt lat="44.73581" lon="-0.35092">
        <ele>63</ele>
        <time>2013-11-24T15:20:06Z</time>
      </trkpt>
      <trkpt lat="44.7358" lon="-0.35105">
        <ele>64</ele>
        <time>2013-11-24T15:20:13Z</time>
      </trkpt>
      <trkpt lat="44.7358" lon="-0.3511">
        <ele>64</ele>
        <time>2013-11-24T15:20:20Z</time>
      </trkpt>
      <trkpt lat="44.73585" lon="-0.35117">
        <ele>65</ele>
        <time>2013-11-24T15:20:27Z</time>
      </trkpt>
      <trkpt lat="44.73585" lon="-0.35117">
        <ele>65</ele>
        <time>2013-11-24T15:22:06Z</time>
      </trkpt>
      <trkpt lat="44.73589" lon="-0.35112">
        <ele>65</ele>
        <time>2013-11-24T15:22:11Z</time>
      </trkpt>
      <trkpt lat="44.73593" lon="-0.35106">
        <ele>64</ele>
        <time>2013-11-24T15:22:15Z</time>
      </trkpt>
      <trkpt lat="44.73604" lon="-0.35104">
        <ele>64</ele>
        <time>2013-11-24T15:22:21Z</time>
      </trkpt>
      <trkpt lat="44.73607" lon="-0.35104">
        <ele>64</ele>
        <time>2013-11-24T15:22:22Z</time>
      </trkpt>
      <trkpt lat="44.73611" lon="-0.35103">
        <ele>64</ele>
        <time>2013-11-24T15:22:24Z</time>
      </trkpt>
      <trkpt lat="44.73614" lon="-0.35086">
        <ele>62</ele>
        <time>2013-11-24T15:22:30Z</time>
      </trkpt>
      <trkpt lat="44.73617" lon="-0.35069">
        <ele>61</ele>
        <time>2013-11-24T15:22:37Z</time>
      </trkpt>
      <trkpt lat="44.73623" lon="-0.35056">
        <ele>60</ele>
        <time>2013-11-24T15:22:45Z</time>
      </trkpt>
      <trkpt lat="44.73623" lon="-0.35051">
        <ele>60</ele>
        <time>2013-11-24T15:22:46Z</time>
      </trkpt>
      <trkpt lat="44.73627" lon="-0.35029">
        <ele>58</ele>
        <time>2013-11-24T15:22:52Z</time>
      </trkpt>
      <trkpt lat="44.73633" lon="-0.35015">
        <ele>56</ele>
        <time>2013-11-24T15:22:58Z</time>
      </trkpt>
      <trkpt lat="44.73636" lon="-0.3501">
        <ele>56</ele>
        <time>2013-11-24T15:23:00Z</time>
      </trkpt>
      <trkpt lat="44.73644" lon="-0.35">
        <ele>55</ele>
        <time>2013-11-24T15:23:06Z</time>
      </trkpt>
      <trkpt lat="44.73652" lon="-0.34994">
        <ele>54</ele>
        <time>2013-11-24T15:23:12Z</time>
      </trkpt>
      <trkpt lat="44.73661" lon="-0.34979">
        <ele>53</ele>
        <time>2013-11-24T15:23:19Z</time>
      </trkpt>
      <trkpt lat="44.73661" lon="-0.34977">
        <ele>53</ele>
        <time>2013-11-24T15:23:20Z</time>
      </trkpt>
      <trkpt lat="44.73662" lon="-0.34969">
        <ele>52</ele>
        <time>2013-11-24T15:23:24Z</time>
      </trkpt>
      <trkpt lat="44.73669" lon="-0.34963">
        <ele>52</ele>
        <time>2013-11-24T15:23:27Z</time>
      </trkpt>
      <trkpt lat="44.73676" lon="-0.34951">
        <ele>52</ele>
        <time>2013-11-24T15:23:33Z</time>
      </trkpt>
      <trkpt lat="44.73677" lon="-0.34948">
        <ele>52</ele>
        <time>2013-11-24T15:23:37Z</time>
      </trkpt>
      <trkpt lat="44.73673" lon="-0.34939">
        <ele>52</ele>
        <time>2013-11-24T15:23:44Z</time>
      </trkpt>
      <trkpt lat="44.73673" lon="-0.34937">
        <ele>51</ele>
        <time>2013-11-24T15:23:46Z</time>
      </trkpt>
      <trkpt lat="44.73674" lon="-0.34931">
        <ele>51</ele>
        <time>2013-11-24T15:23:49Z</time>
      </trkpt>
      <trkpt lat="44.73677" lon="-0.34919">
        <ele>51</ele>
        <time>2013-11-24T15:23:56Z</time>
      </trkpt>
      <trkpt lat="44.73678" lon="-0.34917">
        <ele>51</ele>
        <time>2013-11-24T15:23:57Z</time>
      </trkpt>
      <trkpt lat="44.73685" lon="-0.34904">
        <ele>51</ele>
        <time>2013-11-24T15:24:04Z</time>
      </trkpt>
      <trkpt lat="44.73686" lon="-0.349">
        <ele>51</ele>
        <time>2013-11-24T15:24:10Z</time>
      </trkpt>
      <trkpt lat="44.73688" lon="-0.34895">
        <ele>51</ele>
        <time>2013-11-24T15:24:17Z</time>
      </trkpt>
      <trkpt lat="44.7369" lon="-0.34892">
        <ele>51</ele>
        <time>2013-11-24T15:24:20Z</time>
      </trkpt>
      <trkpt lat="44.73699" lon="-0.34879">
        <ele>51</ele>
        <time>2013-11-24T15:24:27Z</time>
      </trkpt>
      <trkpt lat="44.73708" lon="-0.34867">
        <ele>51</ele>
        <time>2013-11-24T15:24:33Z</time>
      </trkpt>
      <trkpt lat="44.73709" lon="-0.34865">
        <ele>51</ele>
        <time>2013-11-24T15:24:34Z</time>
      </trkpt>
      <trkpt lat="44.7371" lon="-0.34844">
        <ele>51</ele>
        <time>2013-11-24T15:24:40Z</time>
      </trkpt>
      <trkpt lat="44.73712" lon="-0.34842">
        <ele>51</ele>
        <time>2013-11-24T15:24:45Z</time>
      </trkpt>
      <trkpt lat="44.73715" lon="-0.34842">
        <ele>51</ele>
        <time>2013-11-24T15:24:49Z</time>
      </trkpt>
      <trkpt lat="44.73719" lon="-0.34839">
        <ele>51</ele>
        <time>2013-11-24T15:24:55Z</time>
      </trkpt>
      <trkpt lat="44.73724" lon="-0.34834">
        <ele>51</ele>
        <time>2013-11-24T15:25:01Z</time>
      </trkpt>
      <trkpt lat="44.73728" lon="-0.34831">
        <ele>51</ele>
        <time>2013-11-24T15:25:03Z</time>
      </trkpt>
      <trkpt lat="44.73745" lon="-0.34828">
        <ele>51</ele>
        <time>2013-11-24T15:25:11Z</time>
      </trkpt>
      <trkpt lat="44.73754" lon="-0.34825">
        <ele>51</ele>
        <time>2013-11-24T15:25:15Z</time>
      </trkpt>
      <trkpt lat="44.73764" lon="-0.34817">
        <ele>51</ele>
        <time>2013-11-24T15:25:21Z</time>
      </trkpt>
      <trkpt lat="44.73771" lon="-0.34813">
        <ele>51</ele>
        <time>2013-11-24T15:25:25Z</time>
      </trkpt>
      <trkpt lat="44.73778" lon="-0.34809">
        <ele>50</ele>
        <time>2013-11-24T15:25:28Z</time>
      </trkpt>
      <trkpt lat="44.73783" lon="-0.34817">
        <ele>51</ele>
        <time>2013-11-24T15:25:34Z</time>
      </trkpt>
      <trkpt lat="44.73788" lon="-0.34828">
        <ele>52</ele>
        <time>2013-11-24T15:25:40Z</time>
      </trkpt>
      <trkpt lat="44.73791" lon="-0.34848">
        <ele>54</ele>
        <time>2013-11-24T15:25:48Z</time>
      </trkpt>
      <trkpt lat="44.73791" lon="-0.3486">
        <ele>55</ele>
        <time>2013-11-24T15:25:53Z</time>
      </trkpt>
      <trkpt lat="44.73797" lon="-0.34872">
        <ele>57</ele>
        <time>2013-11-24T15:26:01Z</time>
      </trkpt>
      <trkpt lat="44.73797" lon="-0.34873">
        <ele>57</ele>
        <time>2013-11-24T15:26:02Z</time>
      </trkpt>
      <trkpt lat="44.73796" lon="-0.3488">
        <ele>58</ele>
        <time>2013-11-24T15:26:08Z</time>
      </trkpt>
      <trkpt lat="44.73795" lon="-0.34885">
        <ele>58</ele>
        <time>2013-11-24T15:26:15Z</time>
      </trkpt>
      <trkpt lat="44.73796" lon="-0.34891">
        <ele>59</ele>
        <time>2013-11-24T15:26:20Z</time>
      </trkpt>
      <trkpt lat="44.73796" lon="-0.34896">
        <ele>59</ele>
        <time>2013-11-24T15:26:26Z</time>
      </trkpt>
      <trkpt lat="44.73798" lon="-0.34902">
        <ele>60</ele>
        <time>2013-11-24T15:26:30Z</time>
      </trkpt>
      <trkpt lat="44.73802" lon="-0.34913">
        <ele>61</ele>
        <time>2013-11-24T15:26:37Z</time>
      </trkpt>
      <trkpt lat="44.73807" lon="-0.34927">
        <ele>63</ele>
        <time>2013-11-24T15:26:45Z</time>
      </trkpt>
      <trkpt lat="44.73812" lon="-0.34934">
        <ele>63</ele>
        <time>2013-11-24T15:26:51Z</time>
      </trkpt>
      <trkpt lat="44.73814" lon="-0.34934">
        <ele>63</ele>
        <time>2013-11-24T15:26:55Z</time>
      </trkpt>
      <trkpt lat="44.73822" lon="-0.3493">
        <ele>63</ele>
        <time>2013-11-24T15:27:01Z</time>
      </trkpt>
      <trkpt lat="44.73832" lon="-0.34925">
        <ele>62</ele>
        <time>2013-11-24T15:27:06Z</time>
      </trkpt>
      <trkpt lat="44.73839" lon="-0.34921">
        <ele>61</ele>
        <time>2013-11-24T15:27:09Z</time>
      </trkpt>
      <trkpt lat="44.73858" lon="-0.34924">
        <ele>60</ele>
        <time>2013-11-24T15:27:16Z</time>
      </trkpt>
      <trkpt lat="44.73869" lon="-0.3492">
        <ele>59</ele>
        <time>2013-11-24T15:27:21Z</time>
      </trkpt>
      <trkpt lat="44.73873" lon="-0.34906">
        <ele>57</ele>
        <time>2013-11-24T15:27:26Z</time>
      </trkpt>
      <trkpt lat="44.7387" lon="-0.34895">
        <ele>56</ele>
        <time>2013-11-24T15:27:31Z</time>
      </trkpt>
      <trkpt lat="44.7387" lon="-0.34884">
        <ele>55</ele>
        <time>2013-11-24T15:27:35Z</time>
      </trkpt>
      <trkpt lat="44.73872" lon="-0.34875">
        <ele>54</ele>
        <time>2013-11-24T15:27:38Z</time>
      </trkpt>
      <trkpt lat="44.73887" lon="-0.34878">
        <ele>53</ele>
        <time>2013-11-24T15:27:46Z</time>
      </trkpt>
      <trkpt lat="44.73888" lon="-0.34878">
        <ele>53</ele>
        <time>2013-11-24T15:27:47Z</time>
      </trkpt>
      <trkpt lat="44.73889" lon="-0.34883">
        <ele>54</ele>
        <time>2013-11-24T15:27:49Z</time>
      </trkpt>
      <trkpt lat="44.73901" lon="-0.34891">
        <ele>54</ele>
        <time>2013-11-24T15:27:54Z</time>
      </trkpt>
      <trkpt lat="44.73914" lon="-0.34897">
        <ele>55</ele>
        <time>2013-11-24T15:28:02Z</time>
      </trkpt>
      <trkpt lat="44.73916" lon="-0.34901">
        <ele>56</ele>
        <time>2013-11-24T15:28:10Z</time>
      </trkpt>
      <trkpt lat="44.73918" lon="-0.34904">
        <ele>56</ele>
        <time>2013-11-24T15:28:17Z</time>
      </trkpt>
      <trkpt lat="44.73918" lon="-0.34906">
        <ele>56</ele>
        <time>2013-11-24T15:28:27Z</time>
      </trkpt>
      <trkpt lat="44.7392" lon="-0.3491">
        <ele>57</ele>
        <time>2013-11-24T15:28:34Z</time>
      </trkpt>
      <trkpt lat="44.73924" lon="-0.34913">
        <ele>57</ele>
        <time>2013-11-24T15:28:41Z</time>
      </trkpt>
      <trkpt lat="44.73933" lon="-0.34917">
        <ele>58</ele>
        <time>2013-11-24T15:28:49Z</time>
      </trkpt>
      <trkpt lat="44.73936" lon="-0.34919">
        <ele>58</ele>
        <time>2013-11-24T15:28:53Z</time>
      </trkpt>
      <trkpt lat="44.73938" lon="-0.34918">
        <ele>58</ele>
        <time>2013-11-24T15:28:55Z</time>
      </trkpt>
      <trkpt lat="44.73947" lon="-0.34916">
        <ele>57</ele>
        <time>2013-11-24T15:29:01Z</time>
      </trkpt>
      <trkpt lat="44.73948" lon="-0.34916">
        <ele>57</ele>
        <time>2013-11-24T15:29:03Z</time>
      </trkpt>
      <trkpt lat="44.73951" lon="-0.34915">
        <ele>57</ele>
        <time>2013-11-24T15:29:09Z</time>
      </trkpt>
      <trkpt lat="44.73953" lon="-0.34916">
        <ele>57</ele>
        <time>2013-11-24T15:29:13Z</time>
      </trkpt>
      <trkpt lat="44.73953" lon="-0.34904">
        <ele>56</ele>
        <time>2013-11-24T15:29:20Z</time>
      </trkpt>
      <trkpt lat="44.73953" lon="-0.34892">
        <ele>55</ele>
        <time>2013-11-24T15:29:26Z</time>
      </trkpt>
      <trkpt lat="44.73953" lon="-0.34885">
        <ele>54</ele>
        <time>2013-11-24T15:29:30Z</time>
      </trkpt>
      <trkpt lat="44.73955" lon="-0.3488">
        <ele>54</ele>
        <time>2013-11-24T15:29:35Z</time>
      </trkpt>
      <trkpt lat="44.73957" lon="-0.34876">
        <ele>53</ele>
        <time>2013-11-24T15:29:40Z</time>
      </trkpt>
      <trkpt lat="44.73969" lon="-0.3487">
        <ele>53</ele>
        <time>2013-11-24T15:29:48Z</time>
      </trkpt>
      <trkpt lat="44.73976" lon="-0.34866">
        <ele>53</ele>
        <time>2013-11-24T15:29:54Z</time>
      </trkpt>
      <trkpt lat="44.73993" lon="-0.3486">
        <ele>53</ele>
        <time>2013-11-24T15:30:04Z</time>
      </trkpt>
      <trkpt lat="44.74004" lon="-0.34857">
        <ele>54</ele>
        <time>2013-11-24T15:30:11Z</time>
      </trkpt>
      <trkpt lat="44.74018" lon="-0.34855">
        <ele>55</ele>
        <time>2013-11-24T15:30:20Z</time>
      </trkpt>
      <trkpt lat="44.74029" lon="-0.3485">
        <ele>56</ele>
        <time>2013-11-24T15:30:27Z</time>
      </trkpt>
      <trkpt lat="44.7404" lon="-0.34845">
        <ele>56</ele>
        <time>2013-11-24T15:30:34Z</time>
      </trkpt>
      <trkpt lat="44.74054" lon="-0.34838">
        <ele>57</ele>
        <time>2013-11-24T15:30:42Z</time>
      </trkpt>
      <trkpt lat="44.74067" lon="-0.34832">
        <ele>57</ele>
        <time>2013-11-24T15:30:49Z</time>
      </trkpt>
      <trkpt lat="44.74079" lon="-0.34826">
        <ele>56</ele>
        <time>2013-11-24T15:30:56Z</time>
      </trkpt>
      <trkpt lat="44.74084" lon="-0.34822">
        <ele>56</ele>
        <time>2013-11-24T15:31:02Z</time>
      </trkpt>
      <trkpt lat="44.74088" lon="-0.34818">
        <ele>56</ele>
        <time>2013-11-24T15:31:07Z</time>
      </trkpt>
      <trkpt lat="44.74091" lon="-0.34812">
        <ele>55</ele>
        <time>2013-11-24T15:31:13Z</time>
      </trkpt>
      <trkpt lat="44.74092" lon="-0.34809">
        <ele>56</ele>
        <time>2013-11-24T15:31:19Z</time>
      </trkpt>
      <trkpt lat="44.74094" lon="-0.34805">
        <ele>56</ele>
        <time>2013-11-24T15:31:29Z</time>
      </trkpt>
      <trkpt lat="44.74096" lon="-0.34803">
        <ele>56</ele>
        <time>2013-11-24T15:31:36Z</time>
      </trkpt>
      <trkpt lat="44.74097" lon="-0.34801">
        <ele>57</ele>
        <time>2013-11-24T15:31:44Z</time>
      </trkpt>
      <trkpt lat="44.74097" lon="-0.34798">
        <ele>57</ele>
        <time>2013-11-24T15:31:54Z</time>
      </trkpt>
      <trkpt lat="44.74097" lon="-0.34796">
        <ele>57</ele>
        <time>2013-11-24T15:32:04Z</time>
      </trkpt>
      <trkpt lat="44.74096" lon="-0.34795">
        <ele>57</ele>
        <time>2013-11-24T15:32:17Z</time>
      </trkpt>
      <trkpt lat="44.74096" lon="-0.34794">
        <ele>57</ele>
        <time>2013-11-24T15:32:27Z</time>
      </trkpt>
      <trkpt lat="44.74097" lon="-0.34794">
        <ele>57</ele>
        <time>2013-11-24T15:32:38Z</time>
      </trkpt>
      <trkpt lat="44.74099" lon="-0.34793">
        <ele>57</ele>
        <time>2013-11-24T15:32:45Z</time>
      </trkpt>
      <trkpt lat="44.741" lon="-0.34791">
        <ele>57</ele>
        <time>2013-11-24T15:32:58Z</time>
      </trkpt>
      <trkpt lat="44.74101" lon="-0.3479">
        <ele>58</ele>
        <time>2013-11-24T15:33:06Z</time>
      </trkpt>
      <trkpt lat="44.7411" lon="-0.34786">
        <ele>58</ele>
        <time>2013-11-24T15:33:12Z</time>
      </trkpt>
      <trkpt lat="44.74112" lon="-0.3478">
        <ele>58</ele>
        <time>2013-11-24T15:33:17Z</time>
      </trkpt>
      <trkpt lat="44.74115" lon="-0.34777">
        <ele>58</ele>
        <time>2013-11-24T15:33:19Z</time>
      </trkpt>
      <trkpt lat="44.74122" lon="-0.3477">
        <ele>58</ele>
        <time>2013-11-24T15:33:23Z</time>
      </trkpt>
      <trkpt lat="44.74126" lon="-0.34761">
        <ele>58</ele>
        <time>2013-11-24T15:33:28Z</time>
      </trkpt>
      <trkpt lat="44.7414" lon="-0.34747">
        <ele>58</ele>
        <time>2013-11-24T15:33:34Z</time>
      </trkpt>
      <trkpt lat="44.74151" lon="-0.34729">
        <ele>60</ele>
        <time>2013-11-24T15:33:39Z</time>
      </trkpt>
      <trkpt lat="44.74163" lon="-0.34711">
        <ele>60</ele>
        <time>2013-11-24T15:33:45Z</time>
      </trkpt>
      <trkpt lat="44.74177" lon="-0.34693">
        <ele>60</ele>
        <time>2013-11-24T15:33:53Z</time>
      </trkpt>
      <trkpt lat="44.74182" lon="-0.3468">
        <ele>61</ele>
        <time>2013-11-24T15:33:59Z</time>
      </trkpt>
      <trkpt lat="44.74186" lon="-0.34671">
        <ele>61</ele>
        <time>2013-11-24T15:34:06Z</time>
      </trkpt>
      <trkpt lat="44.74189" lon="-0.34653">
        <ele>63</ele>
        <time>2013-11-24T15:34:11Z</time>
      </trkpt>
      <trkpt lat="44.74199" lon="-0.34639">
        <ele>63</ele>
        <time>2013-11-24T15:34:19Z</time>
      </trkpt>
      <trkpt lat="44.74202" lon="-0.34627">
        <ele>63</ele>
        <time>2013-11-24T15:34:26Z</time>
      </trkpt>
      <trkpt lat="44.74206" lon="-0.34627">
        <ele>63</ele>
        <time>2013-11-24T15:34:31Z</time>
      </trkpt>
      <trkpt lat="44.74207" lon="-0.34627">
        <ele>63</ele>
        <time>2013-11-24T15:34:33Z</time>
      </trkpt>
      <trkpt lat="44.74215" lon="-0.34619">
        <ele>63</ele>
        <time>2013-11-24T15:34:40Z</time>
      </trkpt>
      <trkpt lat="44.74217" lon="-0.34614">
        <ele>63</ele>
        <time>2013-11-24T15:34:44Z</time>
      </trkpt>
      <trkpt lat="44.74224" lon="-0.34609">
        <ele>62</ele>
        <time>2013-11-24T15:34:49Z</time>
      </trkpt>
      <trkpt lat="44.74227" lon="-0.34602">
        <ele>63</ele>
        <time>2013-11-24T15:34:53Z</time>
      </trkpt>
      <trkpt lat="44.74236" lon="-0.34595">
        <ele>63</ele>
        <time>2013-11-24T15:34:59Z</time>
      </trkpt>
      <trkpt lat="44.74237" lon="-0.34594">
        <ele>63</ele>
        <time>2013-11-24T15:35:00Z</time>
      </trkpt>
      <trkpt lat="44.74245" lon="-0.34599">
        <ele>63</ele>
        <time>2013-11-24T15:35:06Z</time>
      </trkpt>
      <trkpt lat="44.74248" lon="-0.34598">
        <ele>63</ele>
        <time>2013-11-24T15:35:08Z</time>
      </trkpt>
      <trkpt lat="44.74253" lon="-0.34597">
        <ele>63</ele>
        <time>2013-11-24T15:35:15Z</time>
      </trkpt>
      <trkpt lat="44.74255" lon="-0.34598">
        <ele>63</ele>
        <time>2013-11-24T15:35:21Z</time>
      </trkpt>
      <trkpt lat="44.74256" lon="-0.34599">
        <ele>63</ele>
        <time>2013-11-24T15:35:27Z</time>
      </trkpt>
      <trkpt lat="44.74259" lon="-0.34597">
        <ele>63</ele>
        <time>2013-11-24T15:35:35Z</time>
      </trkpt>
      <trkpt lat="44.7426" lon="-0.34597">
        <ele>63</ele>
        <time>2013-11-24T15:35:44Z</time>
      </trkpt>
      <trkpt lat="44.74265" lon="-0.34601">
        <ele>63</ele>
        <time>2013-11-24T15:35:51Z</time>
      </trkpt>
      <trkpt lat="44.74267" lon="-0.34603">
        <ele>62</ele>
        <time>2013-11-24T15:35:58Z</time>
      </trkpt>
      <trkpt lat="44.74272" lon="-0.34602">
        <ele>63</ele>
        <time>2013-11-24T15:36:03Z</time>
      </trkpt>
      <trkpt lat="44.74277" lon="-0.34602">
        <ele>63</ele>
        <time>2013-11-24T15:36:07Z</time>
      </trkpt>
      <trkpt lat="44.74283" lon="-0.34602">
        <ele>63</ele>
        <time>2013-11-24T15:36:11Z</time>
      </trkpt>
      <trkpt lat="44.74294" lon="-0.34602">
        <ele>63</ele>
        <time>2013-11-24T15:36:18Z</time>
      </trkpt>
      <trkpt lat="44.74306" lon="-0.34607">
        <ele>64</ele>
        <time>2013-11-24T15:36:24Z</time>
      </trkpt>
      <trkpt lat="44.74316" lon="-0.3461">
        <ele>64</ele>
        <time>2013-11-24T15:36:30Z</time>
      </trkpt>
      <trkpt lat="44.74325" lon="-0.34618">
        <ele>65</ele>
        <time>2013-11-24T15:36:37Z</time>
      </trkpt>
      <trkpt lat="44.74335" lon="-0.34628">
        <ele>66</ele>
        <time>2013-11-24T15:36:44Z</time>
      </trkpt>
      <trkpt lat="44.74338" lon="-0.34629">
        <ele>66</ele>
        <time>2013-11-24T15:36:50Z</time>
      </trkpt>
      <trkpt lat="44.74342" lon="-0.34631">
        <ele>67</ele>
        <time>2013-11-24T15:36:56Z</time>
      </trkpt>
      <trkpt lat="44.74347" lon="-0.34628">
        <ele>67</ele>
        <time>2013-11-24T15:37:02Z</time>
      </trkpt>
      <trkpt lat="44.74357" lon="-0.34632">
        <ele>68</ele>
        <time>2013-11-24T15:37:09Z</time>
      </trkpt>
      <trkpt lat="44.74365" lon="-0.34635">
        <ele>69</ele>
        <time>2013-11-24T15:37:16Z</time>
      </trkpt>
      <trkpt lat="44.74368" lon="-0.3463">
        <ele>69</ele>
        <time>2013-11-24T15:37:22Z</time>
      </trkpt>
      <trkpt lat="44.74373" lon="-0.34625">
        <ele>70</ele>
        <time>2013-11-24T15:37:32Z</time>
      </trkpt>
      <trkpt lat="44.74373" lon="-0.34622">
        <ele>70</ele>
        <time>2013-11-24T15:37:40Z</time>
      </trkpt>
      <trkpt lat="44.74372" lon="-0.34621">
        <ele>70</ele>
        <time>2013-11-24T15:37:42Z</time>
      </trkpt>
      <trkpt lat="44.74364" lon="-0.34606">
        <ele>68</ele>
        <time>2013-11-24T15:37:50Z</time>
      </trkpt>
      <trkpt lat="44.74364" lon="-0.34606">
        <ele>68</ele>
        <time>2013-11-24T15:37:51Z</time>
      </trkpt>
      <trkpt lat="44.74356" lon="-0.34598">
        <ele>67</ele>
        <time>2013-11-24T15:37:57Z</time>
      </trkpt>
      <trkpt lat="44.74355" lon="-0.34597">
        <ele>67</ele>
        <time>2013-11-24T15:37:58Z</time>
      </trkpt>
      <trkpt lat="44.74349" lon="-0.34595">
        <ele>66</ele>
        <time>2013-11-24T15:38:02Z</time>
      </trkpt>
      <trkpt lat="44.74344" lon="-0.34589">
        <ele>66</ele>
        <time>2013-11-24T15:38:06Z</time>
      </trkpt>
      <trkpt lat="44.74339" lon="-0.34579">
        <ele>65</ele>
        <time>2013-11-24T15:38:12Z</time>
      </trkpt>
      <trkpt lat="44.74338" lon="-0.34578">
        <ele>65</ele>
        <time>2013-11-24T15:38:13Z</time>
      </trkpt>
      <trkpt lat="44.74337" lon="-0.34573">
        <ele>65</ele>
        <time>2013-11-24T15:38:15Z</time>
      </trkpt>
      <trkpt lat="44.74331" lon="-0.34555">
        <ele>65</ele>
        <time>2013-11-24T15:38:21Z</time>
      </trkpt>
      <trkpt lat="44.74338" lon="-0.34548">
        <ele>65</ele>
        <time>2013-11-24T15:38:29Z</time>
      </trkpt>
      <trkpt lat="44.74343" lon="-0.34546">
        <ele>65</ele>
        <time>2013-11-24T15:38:36Z</time>
      </trkpt>
      <trkpt lat="44.74344" lon="-0.34543">
        <ele>66</ele>
        <time>2013-11-24T15:38:40Z</time>
      </trkpt>
      <trkpt lat="44.74348" lon="-0.3453">
        <ele>66</ele>
        <time>2013-11-24T15:38:48Z</time>
      </trkpt>
      <trkpt lat="44.74346" lon="-0.34515">
        <ele>66</ele>
        <time>2013-11-24T15:38:55Z</time>
      </trkpt>
      <trkpt lat="44.74348" lon="-0.34507">
        <ele>66</ele>
        <time>2013-11-24T15:39:01Z</time>
      </trkpt>
      <trkpt lat="44.74348" lon="-0.34505">
        <ele>66</ele>
        <time>2013-11-24T15:39:02Z</time>
      </trkpt>
      <trkpt lat="44.74354" lon="-0.34496">
        <ele>66</ele>
        <time>2013-11-24T15:39:09Z</time>
      </trkpt>
      <trkpt lat="44.74358" lon="-0.34484">
        <ele>66</ele>
        <time>2013-11-24T15:39:17Z</time>
      </trkpt>
      <trkpt lat="44.74364" lon="-0.34473">
        <ele>66</ele>
        <time>2013-11-24T15:39:24Z</time>
      </trkpt>
      <trkpt lat="44.74373" lon="-0.34458">
        <ele>67</ele>
        <time>2013-11-24T15:39:31Z</time>
      </trkpt>
      <trkpt lat="44.7438" lon="-0.34444">
        <ele>68</ele>
        <time>2013-11-24T15:39:38Z</time>
      </trkpt>
      <trkpt lat="44.74386" lon="-0.34428">
        <ele>69</ele>
        <time>2013-11-24T15:39:45Z</time>
      </trkpt>
      <trkpt lat="44.74392" lon="-0.34416">
        <ele>70</ele>
        <time>2013-11-24T15:39:50Z</time>
      </trkpt>
      <trkpt lat="44.74393" lon="-0.34406">
        <ele>70</ele>
        <time>2013-11-24T15:39:53Z</time>
      </trkpt>
      <trkpt lat="44.74399" lon="-0.34394">
        <ele>69</ele>
        <time>2013-11-24T15:40:00Z</time>
      </trkpt>
      <trkpt lat="44.74405" lon="-0.34387">
        <ele>69</ele>
        <time>2013-11-24T15:40:05Z</time>
      </trkpt>
      <trkpt lat="44.7441" lon="-0.34384">
        <ele>69</ele>
        <time>2013-11-24T15:40:11Z</time>
      </trkpt>
      <trkpt lat="44.74417" lon="-0.34373">
        <ele>70</ele>
        <time>2013-11-24T15:40:18Z</time>
      </trkpt>
      <trkpt lat="44.74422" lon="-0.34365">
        <ele>71</ele>
        <time>2013-11-24T15:40:25Z</time>
      </trkpt>
      <trkpt lat="44.7443" lon="-0.34354">
        <ele>72</ele>
        <time>2013-11-24T15:40:32Z</time>
      </trkpt>
      <trkpt lat="44.74443" lon="-0.34344">
        <ele>74</ele>
        <time>2013-11-24T15:40:40Z</time>
      </trkpt>
      <trkpt lat="44.74448" lon="-0.3434">
        <ele>75</ele>
        <time>2013-11-24T15:40:43Z</time>
      </trkpt>
      <trkpt lat="44.74456" lon="-0.34337">
        <ele>76</ele>
        <time>2013-11-24T15:40:49Z</time>
      </trkpt>
      <trkpt lat="44.74461" lon="-0.34342">
        <ele>77</ele>
        <time>2013-11-24T15:40:55Z</time>
      </trkpt>
      <trkpt lat="44.74468" lon="-0.34345">
        <ele>78</ele>
        <time>2013-11-24T15:41:02Z</time>
      </trkpt>
      <trkpt lat="44.74472" lon="-0.34354">
        <ele>78</ele>
        <time>2013-11-24T15:41:09Z</time>
      </trkpt>
      <trkpt lat="44.74477" lon="-0.3436">
        <ele>79</ele>
        <time>2013-11-24T15:41:15Z</time>
      </trkpt>
      <trkpt lat="44.74483" lon="-0.34366">
        <ele>79</ele>
        <time>2013-11-24T15:41:20Z</time>
      </trkpt>
      <trkpt lat="44.74485" lon="-0.34367">
        <ele>80</ele>
        <time>2013-11-24T15:41:26Z</time>
      </trkpt>
      <trkpt lat="44.74487" lon="-0.34369">
        <ele>80</ele>
        <time>2013-11-24T15:41:32Z</time>
      </trkpt>
      <trkpt lat="44.7449" lon="-0.34372">
        <ele>80</ele>
        <time>2013-11-24T15:41:39Z</time>
      </trkpt>
      <trkpt lat="44.74492" lon="-0.34377">
        <ele>80</ele>
        <time>2013-11-24T15:41:43Z</time>
      </trkpt>
      <trkpt lat="44.74492" lon="-0.34383">
        <ele>80</ele>
        <time>2013-11-24T15:41:49Z</time>
      </trkpt>
      <trkpt lat="44.74496" lon="-0.34392">
        <ele>81</ele>
        <time>2013-11-24T15:41:56Z</time>
      </trkpt>
      <trkpt lat="44.74497" lon="-0.34395">
        <ele>81</ele>
        <time>2013-11-24T15:42:03Z</time>
      </trkpt>
      <trkpt lat="44.745" lon="-0.34398">
        <ele>81</ele>
        <time>2013-11-24T15:42:05Z</time>
      </trkpt>
      <trkpt lat="44.74504" lon="-0.34408">
        <ele>83</ele>
        <time>2013-11-24T15:42:12Z</time>
      </trkpt>
      <trkpt lat="44.74506" lon="-0.34418">
        <ele>83</ele>
        <time>2013-11-24T15:42:20Z</time>
      </trkpt>
      <trkpt lat="44.74504" lon="-0.34418">
        <ele>83</ele>
        <time>2013-11-24T15:42:27Z</time>
      </trkpt>
      <trkpt lat="44.74505" lon="-0.3442">
        <ele>83</ele>
        <time>2013-11-24T15:42:34Z</time>
      </trkpt>
      <trkpt lat="44.74506" lon="-0.34427">
        <ele>84</ele>
        <time>2013-11-24T15:42:41Z</time>
      </trkpt>
      <trkpt lat="44.74507" lon="-0.34434">
        <ele>84</ele>
        <time>2013-11-24T15:42:47Z</time>
      </trkpt>
      <trkpt lat="44.74509" lon="-0.3444">
        <ele>85</ele>
        <time>2013-11-24T15:42:52Z</time>
      </trkpt>
      <trkpt lat="44.74512" lon="-0.34447">
        <ele>86</ele>
        <time>2013-11-24T15:42:59Z</time>
      </trkpt>
      <trkpt lat="44.74515" lon="-0.34452">
        <ele>86</ele>
        <time>2013-11-24T15:43:05Z</time>
      </trkpt>
      <trkpt lat="44.74515" lon="-0.34453">
        <ele>86</ele>
        <time>2013-11-24T15:43:06Z</time>
      </trkpt>
      <trkpt lat="44.74519" lon="-0.34459">
        <ele>87</ele>
        <time>2013-11-24T15:43:14Z</time>
      </trkpt>
      <trkpt lat="44.74519" lon="-0.3446">
        <ele>87</ele>
        <time>2013-11-24T15:43:15Z</time>
      </trkpt>
      <trkpt lat="44.74528" lon="-0.34461">
        <ele>88</ele>
        <time>2013-11-24T15:43:22Z</time>
      </trkpt>
      <trkpt lat="44.74541" lon="-0.34465">
        <ele>89</ele>
        <time>2013-11-24T15:43:30Z</time>
      </trkpt>
      <trkpt lat="44.74555" lon="-0.34471">
        <ele>91</ele>
        <time>2013-11-24T15:43:38Z</time>
      </trkpt>
      <trkpt lat="44.7456" lon="-0.34474">
        <ele>92</ele>
        <time>2013-11-24T15:43:41Z</time>
      </trkpt>
      <trkpt lat="44.74568" lon="-0.34467">
        <ele>92</ele>
        <time>2013-11-24T15:43:48Z</time>
      </trkpt>
      <trkpt lat="44.74568" lon="-0.34464">
        <ele>92</ele>
        <time>2013-11-24T15:43:49Z</time>
      </trkpt>
      <trkpt lat="44.74576" lon="-0.34441">
        <ele>91</ele>
        <time>2013-11-24T15:43:56Z</time>
      </trkpt>
      <trkpt lat="44.74587" lon="-0.34433">
        <ele>91</ele>
        <time>2013-11-24T15:44:01Z</time>
      </trkpt>
      <trkpt lat="44.74592" lon="-0.34431">
        <ele>92</ele>
        <time>2013-11-24T15:44:05Z</time>
      </trkpt>
      <trkpt lat="44.74598" lon="-0.34432">
        <ele>92</ele>
        <time>2013-11-24T15:44:09Z</time>
      </trkpt>
      <trkpt lat="44.7461" lon="-0.34435">
        <ele>94</ele>
        <time>2013-11-24T15:44:17Z</time>
      </trkpt>
      <trkpt lat="44.7462" lon="-0.3444">
        <ele>95</ele>
        <time>2013-11-24T15:44:24Z</time>
      </trkpt>
      <trkpt lat="44.74628" lon="-0.34444">
        <ele>96</ele>
        <time>2013-11-24T15:44:31Z</time>
      </trkpt>
      <trkpt lat="44.74636" lon="-0.34447">
        <ele>97</ele>
        <time>2013-11-24T15:44:37Z</time>
      </trkpt>
      <trkpt lat="44.74638" lon="-0.34448">
        <ele>97</ele>
        <time>2013-11-24T15:44:39Z</time>
      </trkpt>
      <trkpt lat="44.74642" lon="-0.34449">
        <ele>97</ele>
        <time>2013-11-24T15:44:42Z</time>
      </trkpt>
      <trkpt lat="44.74653" lon="-0.34451">
        <ele>98</ele>
        <time>2013-11-24T15:44:51Z</time>
      </trkpt>
      <trkpt lat="44.74653" lon="-0.3445">
        <ele>98</ele>
        <time>2013-11-24T15:44:52Z</time>
      </trkpt>
      <trkpt lat="44.74658" lon="-0.34435">
        <ele>98</ele>
        <time>2013-11-24T15:45:03Z</time>
      </trkpt>
      <trkpt lat="44.74658" lon="-0.34434">
        <ele>98</ele>
        <time>2013-11-24T15:45:09Z</time>
      </trkpt>
      <trkpt lat="44.74659" lon="-0.34432">
        <ele>98</ele>
        <time>2013-11-24T15:45:16Z</time>
      </trkpt>
      <trkpt lat="44.74659" lon="-0.34431">
        <ele>98</ele>
        <time>2013-11-24T15:45:24Z</time>
      </trkpt>
      <trkpt lat="44.74659" lon="-0.34431">
        <ele>98</ele>
        <time>2013-11-24T15:45:34Z</time>
      </trkpt>
      <trkpt lat="44.74659" lon="-0.34431">
        <ele>98</ele>
        <time>2013-11-24T15:45:43Z</time>
      </trkpt>
      <trkpt lat="44.74659" lon="-0.34431">
        <ele>98</ele>
        <time>2013-11-24T15:45:52Z</time>
      </trkpt>
      <trkpt lat="44.74659" lon="-0.34431">
        <ele>98</ele>
        <time>2013-11-24T15:46:04Z</time>
      </trkpt>
      <trkpt lat="44.74659" lon="-0.34431">
        <ele>98</ele>
        <time>2013-11-24T15:46:21Z</time>
      </trkpt>
      <trkpt lat="44.74659" lon="-0.3443">
        <ele>98</ele>
        <time>2013-11-24T15:46:41Z</time>
      </trkpt>
      <trkpt lat="44.7466" lon="-0.3443">
        <ele>98</ele>
        <time>2013-11-24T15:47:02Z</time>
      </trkpt>
      <trkpt lat="44.7466" lon="-0.34429">
        <ele>98</ele>
        <time>2013-11-24T15:47:17Z</time>
      </trkpt>
      <trkpt lat="44.7466" lon="-0.3443">
        <ele>98</ele>
        <time>2013-11-24T15:47:38Z</time>
      </trkpt>
      <trkpt lat="44.7466" lon="-0.3443">
        <ele>98</ele>
        <time>2013-11-24T15:47:52Z</time>
      </trkpt>
      <trkpt lat="44.7466" lon="-0.34429">
        <ele>98</ele>
        <time>2013-11-24T15:48:01Z</time>
      </trkpt>
      <trkpt lat="44.74661" lon="-0.34423">
        <ele>98</ele>
        <time>2013-11-24T15:48:06Z</time>
      </trkpt>
      <trkpt lat="44.74663" lon="-0.34408">
        <ele>98</ele>
        <time>2013-11-24T15:48:13Z</time>
      </trkpt>
      <trkpt lat="44.74667" lon="-0.34383">
        <ele>98</ele>
        <time>2013-11-24T15:48:22Z</time>
      </trkpt>
      <trkpt lat="44.74671" lon="-0.34376">
        <ele>99</ele>
        <time>2013-11-24T15:48:25Z</time>
      </trkpt>
      <trkpt lat="44.74686" lon="-0.34377">
        <ele>100</ele>
        <time>2013-11-24T15:48:32Z</time>
      </trkpt>
      <trkpt lat="44.74703" lon="-0.34383">
        <ele>100</ele>
        <time>2013-11-24T15:48:39Z</time>
      </trkpt>
      <trkpt lat="44.74722" lon="-0.3439">
        <ele>101</ele>
        <time>2013-11-24T15:48:47Z</time>
      </trkpt>
      <trkpt lat="44.74739" lon="-0.34397">
        <ele>101</ele>
        <time>2013-11-24T15:48:54Z</time>
      </trkpt>
      <trkpt lat="44.74761" lon="-0.34402">
        <ele>101</ele>
        <time>2013-11-24T15:49:03Z</time>
      </trkpt>
      <trkpt lat="44.7477" lon="-0.3439">
        <ele>101</ele>
        <time>2013-11-24T15:49:08Z</time>
      </trkpt>
      <trkpt lat="44.74786" lon="-0.34363">
        <ele>102</ele>
        <time>2013-11-24T15:49:17Z</time>
      </trkpt>
      <trkpt lat="44.74789" lon="-0.34357">
        <ele>102</ele>
        <time>2013-11-24T15:49:19Z</time>
      </trkpt>
      <trkpt lat="44.74802" lon="-0.34357">
        <ele>102</ele>
        <time>2013-11-24T15:49:24Z</time>
      </trkpt>
      <trkpt lat="44.74805" lon="-0.34353">
        <ele>102</ele>
        <time>2013-11-24T15:49:26Z</time>
      </trkpt>
      <trkpt lat="44.74812" lon="-0.34337">
        <ele>102</ele>
        <time>2013-11-24T15:49:32Z</time>
      </trkpt>
      <trkpt lat="44.74824" lon="-0.34336">
        <ele>102</ele>
        <time>2013-11-24T15:49:38Z</time>
      </trkpt>
      <trkpt lat="44.74841" lon="-0.34348">
        <ele>101</ele>
        <time>2013-11-24T15:49:46Z</time>
      </trkpt>
      <trkpt lat="44.74857" lon="-0.34356">
        <ele>101</ele>
        <time>2013-11-24T15:49:53Z</time>
      </trkpt>
      <trkpt lat="44.74879" lon="-0.34369">
        <ele>101</ele>
        <time>2013-11-24T15:50:01Z</time>
      </trkpt>
      <trkpt lat="44.74901" lon="-0.34382">
        <ele>101</ele>
        <time>2013-11-24T15:50:08Z</time>
      </trkpt>
      <trkpt lat="44.74921" lon="-0.34396">
        <ele>101</ele>
        <time>2013-11-24T15:50:15Z</time>
      </trkpt>
      <trkpt lat="44.74941" lon="-0.34408">
        <ele>100</ele>
        <time>2013-11-24T15:50:22Z</time>
      </trkpt>
      <trkpt lat="44.74953" lon="-0.3442">
        <ele>100</ele>
        <time>2013-11-24T15:50:28Z</time>
      </trkpt>
      <trkpt lat="44.74968" lon="-0.34436">
        <ele>99</ele>
        <time>2013-11-24T15:50:35Z</time>
      </trkpt>
      <trkpt lat="44.7499" lon="-0.34466">
        <ele>98</ele>
        <time>2013-11-24T15:50:44Z</time>
      </trkpt>
      <trkpt lat="44.74996" lon="-0.3447">
        <ele>98</ele>
        <time>2013-11-24T15:50:46Z</time>
      </trkpt>
      <trkpt lat="44.7502" lon="-0.34499">
        <ele>96</ele>
        <time>2013-11-24T15:50:55Z</time>
      </trkpt>
      <trkpt lat="44.75023" lon="-0.34501">
        <ele>96</ele>
        <time>2013-11-24T15:50:56Z</time>
      </trkpt>
      <trkpt lat="44.75046" lon="-0.34499">
        <ele>95</ele>
        <time>2013-11-24T15:51:03Z</time>
      </trkpt>
      <trkpt lat="44.7508" lon="-0.34496">
        <ele>92</ele>
        <time>2013-11-24T15:51:12Z</time>
      </trkpt>
      <trkpt lat="44.75106" lon="-0.34489">
        <ele>89</ele>
        <time>2013-11-24T15:51:19Z</time>
      </trkpt>
      <trkpt lat="44.7512" lon="-0.34489">
        <ele>88</ele>
        <time>2013-11-24T15:51:23Z</time>
      </trkpt>
      <trkpt lat="44.75128" lon="-0.34507">
        <ele>87</ele>
        <time>2013-11-24T15:51:28Z</time>
      </trkpt>
      <trkpt lat="44.75133" lon="-0.34549">
        <ele>86</ele>
        <time>2013-11-24T15:51:36Z</time>
      </trkpt>
      <trkpt lat="44.75135" lon="-0.34568">
        <ele>86</ele>
        <time>2013-11-24T15:51:39Z</time>
      </trkpt>
      <trkpt lat="44.75144" lon="-0.34619">
        <ele>84</ele>
        <time>2013-11-24T15:51:46Z</time>
      </trkpt>
      <trkpt lat="44.75147" lon="-0.34634">
        <ele>84</ele>
        <time>2013-11-24T15:51:48Z</time>
      </trkpt>
      <trkpt lat="44.75149" lon="-0.34639">
        <ele>83</ele>
        <time>2013-11-24T15:51:54Z</time>
      </trkpt>
      <trkpt lat="44.7515" lon="-0.3464">
        <ele>83</ele>
        <time>2013-11-24T15:52:01Z</time>
      </trkpt>
      <trkpt lat="44.7515" lon="-0.3464">
        <ele>83</ele>
        <time>2013-11-24T15:52:08Z</time>
      </trkpt>
      <trkpt lat="44.75153" lon="-0.34637">
        <ele>83</ele>
        <time>2013-11-24T15:52:15Z</time>
      </trkpt>
      <trkpt lat="44.75154" lon="-0.34635">
        <ele>83</ele>
        <time>2013-11-24T15:52:20Z</time>
      </trkpt>
      <trkpt lat="44.75156" lon="-0.3463">
        <ele>82</ele>
        <time>2013-11-24T15:52:25Z</time>
      </trkpt>
      <trkpt lat="44.75158" lon="-0.34628">
        <ele>82</ele>
        <time>2013-11-24T15:52:30Z</time>
      </trkpt>
      <trkpt lat="44.75159" lon="-0.34625">
        <ele>82</ele>
        <time>2013-11-24T15:52:39Z</time>
      </trkpt>
      <trkpt lat="44.7516" lon="-0.34623">
        <ele>82</ele>
        <time>2013-11-24T15:52:46Z</time>
      </trkpt>
      <trkpt lat="44.75162" lon="-0.3462">
        <ele>82</ele>
        <time>2013-11-24T15:52:52Z</time>
      </trkpt>
      <trkpt lat="44.75163" lon="-0.34617">
        <ele>82</ele>
        <time>2013-11-24T15:52:55Z</time>
      </trkpt>
      <trkpt lat="44.75165" lon="-0.34607">
        <ele>82</ele>
        <time>2013-11-24T15:53:00Z</time>
      </trkpt>
      <trkpt lat="44.75165" lon="-0.34592">
        <ele>83</ele>
        <time>2013-11-24T15:53:08Z</time>
      </trkpt>
      <trkpt lat="44.75167" lon="-0.34576">
        <ele>83</ele>
        <time>2013-11-24T15:53:15Z</time>
      </trkpt>
      <trkpt lat="44.75168" lon="-0.34565">
        <ele>84</ele>
        <time>2013-11-24T15:53:22Z</time>
      </trkpt>
      <trkpt lat="44.75173" lon="-0.34557">
        <ele>85</ele>
        <time>2013-11-24T15:53:29Z</time>
      </trkpt>
      <trkpt lat="44.75175" lon="-0.34547">
        <ele>86</ele>
        <time>2013-11-24T15:53:34Z</time>
      </trkpt>
      <trkpt lat="44.75176" lon="-0.34539">
        <ele>86</ele>
        <time>2013-11-24T15:53:39Z</time>
      </trkpt>
      <trkpt lat="44.75178" lon="-0.34539">
        <ele>87</ele>
        <time>2013-11-24T15:53:41Z</time>
      </trkpt>
      <trkpt lat="44.75185" lon="-0.34536">
        <ele>88</ele>
        <time>2013-11-24T15:53:47Z</time>
      </trkpt>
      <trkpt lat="44.75193" lon="-0.34536">
        <ele>89</ele>
        <time>2013-11-24T15:53:53Z</time>
      </trkpt>
      <trkpt lat="44.75194" lon="-0.34537">
        <ele>89</ele>
        <time>2013-11-24T15:53:54Z</time>
      </trkpt>
      <trkpt lat="44.75205" lon="-0.34538">
        <ele>91</ele>
        <time>2013-11-24T15:54:02Z</time>
      </trkpt>
      <trkpt lat="44.75207" lon="-0.34541">
        <ele>91</ele>
        <time>2013-11-24T15:54:04Z</time>
      </trkpt>
      <trkpt lat="44.75213" lon="-0.34548">
        <ele>92</ele>
        <time>2013-11-24T15:54:10Z</time>
      </trkpt>
      <trkpt lat="44.75219" lon="-0.34561">
        <ele>92</ele>
        <time>2013-11-24T15:54:18Z</time>
      </trkpt>
      <trkpt lat="44.75221" lon="-0.34573">
        <ele>91</ele>
        <time>2013-11-24T15:54:24Z</time>
      </trkpt>
      <trkpt lat="44.75225" lon="-0.34591">
        <ele>91</ele>
        <time>2013-11-24T15:54:32Z</time>
      </trkpt>
      <trkpt lat="44.75231" lon="-0.34606">
        <ele>91</ele>
        <time>2013-11-24T15:54:39Z</time>
      </trkpt>
      <trkpt lat="44.75234" lon="-0.34608">
        <ele>91</ele>
        <time>2013-11-24T15:54:41Z</time>
      </trkpt>
      <trkpt lat="44.75256" lon="-0.34598">
        <ele>95</ele>
        <time>2013-11-24T15:54:54Z</time>
      </trkpt>
      <trkpt lat="44.75273" lon="-0.34589">
        <ele>95</ele>
        <time>2013-11-24T15:55:04Z</time>
      </trkpt>
      <trkpt lat="44.75282" lon="-0.34584">
        <ele>95</ele>
        <time>2013-11-24T15:55:10Z</time>
      </trkpt>
      <trkpt lat="44.7529" lon="-0.34587">
        <ele>95</ele>
        <time>2013-11-24T15:55:16Z</time>
      </trkpt>
      <trkpt lat="44.75291" lon="-0.34604">
        <ele>95</ele>
        <time>2013-11-24T15:55:23Z</time>
      </trkpt>
      <trkpt lat="44.75293" lon="-0.34627">
        <ele>95</ele>
        <time>2013-11-24T15:55:31Z</time>
      </trkpt>
      <trkpt lat="44.75295" lon="-0.34639">
        <ele>95</ele>
        <time>2013-11-24T15:55:38Z</time>
      </trkpt>
      <trkpt lat="44.75294" lon="-0.34639">
        <ele>95</ele>
        <time>2013-11-24T15:55:48Z</time>
      </trkpt>
      <trkpt lat="44.75295" lon="-0.34639">
        <ele>95</ele>
        <time>2013-11-24T15:56:01Z</time>
      </trkpt>
      <trkpt lat="44.75295" lon="-0.3464">
        <ele>95</ele>
        <time>2013-11-24T15:56:11Z</time>
      </trkpt>
      <trkpt lat="44.75295" lon="-0.3464">
        <ele>95</ele>
        <time>2013-11-24T15:56:23Z</time>
      </trkpt>
      <trkpt lat="44.75295" lon="-0.34641">
        <ele>95</ele>
        <time>2013-11-24T15:56:33Z</time>
      </trkpt>
      <trkpt lat="44.75295" lon="-0.34641">
        <ele>95</ele>
        <time>2013-11-24T15:56:45Z</time>
      </trkpt>
      <trkpt lat="44.75294" lon="-0.34643">
        <ele>95</ele>
        <time>2013-11-24T15:56:53Z</time>
      </trkpt>
      <trkpt lat="44.75296" lon="-0.3466">
        <ele>95</ele>
        <time>2013-11-24T15:56:59Z</time>
      </trkpt>
      <trkpt lat="44.75297" lon="-0.34661">
        <ele>95</ele>
        <time>2013-11-24T15:57:04Z</time>
      </trkpt>
      <trkpt lat="44.75297" lon="-0.34661">
        <ele>95</ele>
        <time>2013-11-24T15:57:06Z</time>
      </trkpt>
      <trkpt lat="44.75294" lon="-0.34654">
        <ele>95</ele>
        <time>2013-11-24T15:57:12Z</time>
      </trkpt>
      <trkpt lat="44.75294" lon="-0.34649">
        <ele>95</ele>
        <time>2013-11-24T15:57:14Z</time>
      </trkpt>
      <trkpt lat="44.75295" lon="-0.3464">
        <ele>95</ele>
        <time>2013-11-24T15:57:22Z</time>
      </trkpt>
      <trkpt lat="44.75295" lon="-0.34641">
        <ele>95</ele>
        <time>2013-11-24T15:57:33Z</time>
      </trkpt>
      <trkpt lat="44.75295" lon="-0.34641">
        <ele>95</ele>
        <time>2013-11-24T15:57:47Z</time>
      </trkpt>
      <trkpt lat="44.75295" lon="-0.3464">
        <ele>95</ele>
        <time>2013-11-24T15:57:58Z</time>
      </trkpt>
      <trkpt lat="44.75295" lon="-0.34641">
        <ele>95</ele>
        <time>2013-11-24T15:58:09Z</time>
      </trkpt>
      <trkpt lat="44.75295" lon="-0.34641">
        <ele>95</ele>
        <time>2013-11-24T15:58:22Z</time>
      </trkpt>
      <trkpt lat="44.75295" lon="-0.34643">
        <ele>95</ele>
        <time>2013-11-24T15:58:33Z</time>
      </trkpt>
      <trkpt lat="44.75294" lon="-0.34643">
        <ele>95</ele>
        <time>2013-11-24T15:58:39Z</time>
      </trkpt>
      <trkpt lat="44.75294" lon="-0.34643">
        <ele>95</ele>
        <time>2013-11-24T15:58:50Z</time>
      </trkpt>
      <trkpt lat="44.75295" lon="-0.34643">
        <ele>95</ele>
        <time>2013-11-24T15:59:01Z</time>
      </trkpt>
      <trkpt lat="44.75295" lon="-0.34643">
        <ele>95</ele>
        <time>2013-11-24T15:59:12Z</time>
      </trkpt>
      <trkpt lat="44.75294" lon="-0.34643">
        <ele>95</ele>
        <time>2013-11-24T15:59:23Z</time>
      </trkpt>
      <trkpt lat="44.75296" lon="-0.34662">
        <ele>95</ele>
        <time>2013-11-24T15:59:32Z</time>
      </trkpt>
      <trkpt lat="44.75297" lon="-0.34674">
        <ele>95</ele>
        <time>2013-11-24T15:59:36Z</time>
      </trkpt>
      <trkpt lat="44.753" lon="-0.34707">
        <ele>94</ele>
        <time>2013-11-24T15:59:45Z</time>
      </trkpt>
      <trkpt lat="44.75307" lon="-0.34712">
        <ele>94</ele>
        <time>2013-11-24T15:59:49Z</time>
      </trkpt>
      <trkpt lat="44.7531" lon="-0.3471">
        <ele>94</ele>
        <time>2013-11-24T15:59:51Z</time>
      </trkpt>
      <trkpt lat="44.75323" lon="-0.34697">
        <ele>94</ele>
        <time>2013-11-24T15:59:59Z</time>
      </trkpt>
      <trkpt lat="44.75344" lon="-0.34681">
        <ele>93</ele>
        <time>2013-11-24T16:00:06Z</time>
      </trkpt>
      <trkpt lat="44.75367" lon="-0.34665">
        <ele>92</ele>
        <time>2013-11-24T16:00:13Z</time>
      </trkpt>
      <trkpt lat="44.75375" lon="-0.34659">
        <ele>91</ele>
        <time>2013-11-24T16:00:18Z</time>
      </trkpt>
      <trkpt lat="44.75379" lon="-0.34653">
        <ele>90</ele>
        <time>2013-11-24T16:00:25Z</time>
      </trkpt>
      <trkpt lat="44.75381" lon="-0.34648">
        <ele>90</ele>
        <time>2013-11-24T16:00:28Z</time>
      </trkpt>
      <trkpt lat="44.75386" lon="-0.34643">
        <ele>90</ele>
        <time>2013-11-24T16:00:34Z</time>
      </trkpt>
      <trkpt lat="44.75387" lon="-0.34643">
        <ele>90</ele>
        <time>2013-11-24T16:00:36Z</time>
      </trkpt>
      <trkpt lat="44.75389" lon="-0.34639">
        <ele>89</ele>
        <time>2013-11-24T16:00:43Z</time>
      </trkpt>
      <trkpt lat="44.75389" lon="-0.34636">
        <ele>89</ele>
        <time>2013-11-24T16:00:52Z</time>
      </trkpt>
      <trkpt lat="44.75394" lon="-0.34633">
        <ele>88</ele>
        <time>2013-11-24T16:00:55Z</time>
      </trkpt>
      <trkpt lat="44.75406" lon="-0.34633">
        <ele>88</ele>
        <time>2013-11-24T16:01:01Z</time>
      </trkpt>
      <trkpt lat="44.75412" lon="-0.34627">
        <ele>87</ele>
        <time>2013-11-24T16:01:08Z</time>
      </trkpt>
      <trkpt lat="44.7542" lon="-0.34624">
        <ele>86</ele>
        <time>2013-11-24T16:01:12Z</time>
      </trkpt>
      <trkpt lat="44.75428" lon="-0.34619">
        <ele>85</ele>
        <time>2013-11-24T16:01:16Z</time>
      </trkpt>
      <trkpt lat="44.75431" lon="-0.34618">
        <ele>84</ele>
        <time>2013-11-24T16:01:20Z</time>
      </trkpt>
      <trkpt lat="44.7544" lon="-0.34617">
        <ele>84</ele>
        <time>2013-11-24T16:01:28Z</time>
      </trkpt>
      <trkpt lat="44.75456" lon="-0.3462">
        <ele>83</ele>
        <time>2013-11-24T16:01:34Z</time>
      </trkpt>
      <trkpt lat="44.75459" lon="-0.34619">
        <ele>83</ele>
        <time>2013-11-24T16:01:36Z</time>
      </trkpt>
      <trkpt lat="44.7547" lon="-0.34623">
        <ele>82</ele>
        <time>2013-11-24T16:01:42Z</time>
      </trkpt>
      <trkpt lat="44.75476" lon="-0.34629">
        <ele>83</ele>
        <time>2013-11-24T16:01:45Z</time>
      </trkpt>
      <trkpt lat="44.75482" lon="-0.34635">
        <ele>83</ele>
        <time>2013-11-24T16:01:48Z</time>
      </trkpt>
      <trkpt lat="44.75494" lon="-0.34628">
        <ele>82</ele>
        <time>2013-11-24T16:01:55Z</time>
      </trkpt>
      <trkpt lat="44.75496" lon="-0.34626">
        <ele>82</ele>
        <time>2013-11-24T16:01:56Z</time>
      </trkpt>
      <trkpt lat="44.75499" lon="-0.3462">
        <ele>81</ele>
        <time>2013-11-24T16:02:02Z</time>
      </trkpt>
      <trkpt lat="44.75504" lon="-0.34619">
        <ele>81</ele>
        <time>2013-11-24T16:02:04Z</time>
      </trkpt>
      <trkpt lat="44.75513" lon="-0.34614">
        <ele>80</ele>
        <time>2013-11-24T16:02:12Z</time>
      </trkpt>
      <trkpt lat="44.75517" lon="-0.34612">
        <ele>80</ele>
        <time>2013-11-24T16:02:18Z</time>
      </trkpt>
      <trkpt lat="44.75529" lon="-0.34605">
        <ele>79</ele>
        <time>2013-11-24T16:02:23Z</time>
      </trkpt>
      <trkpt lat="44.75531" lon="-0.34602">
        <ele>78</ele>
        <time>2013-11-24T16:02:25Z</time>
      </trkpt>
      <trkpt lat="44.75538" lon="-0.34591">
        <ele>77</ele>
        <time>2013-11-24T16:02:30Z</time>
      </trkpt>
      <trkpt lat="44.75547" lon="-0.34574">
        <ele>75</ele>
        <time>2013-11-24T16:02:35Z</time>
      </trkpt>
      <trkpt lat="44.75556" lon="-0.34559">
        <ele>74</ele>
        <time>2013-11-24T16:02:40Z</time>
      </trkpt>
      <trkpt lat="44.75562" lon="-0.34556">
        <ele>74</ele>
        <time>2013-11-24T16:02:43Z</time>
      </trkpt>
      <trkpt lat="44.75575" lon="-0.34558">
        <ele>74</ele>
        <time>2013-11-24T16:02:48Z</time>
      </trkpt>
      <trkpt lat="44.75594" lon="-0.34557">
        <ele>73</ele>
        <time>2013-11-24T16:02:53Z</time>
      </trkpt>
      <trkpt lat="44.75611" lon="-0.34556">
        <ele>73</ele>
        <time>2013-11-24T16:02:57Z</time>
      </trkpt>
      <trkpt lat="44.75632" lon="-0.3454">
        <ele>71</ele>
        <time>2013-11-24T16:03:04Z</time>
      </trkpt>
      <trkpt lat="44.75643" lon="-0.34534">
        <ele>70</ele>
        <time>2013-11-24T16:03:07Z</time>
      </trkpt>
      <trkpt lat="44.75661" lon="-0.34526">
        <ele>69</ele>
        <time>2013-11-24T16:03:12Z</time>
      </trkpt>
      <trkpt lat="44.75678" lon="-0.34516">
        <ele>68</ele>
        <time>2013-11-24T16:03:18Z</time>
      </trkpt>
      <trkpt lat="44.75691" lon="-0.34509">
        <ele>66</ele>
        <time>2013-11-24T16:03:22Z</time>
      </trkpt>
      <trkpt lat="44.75702" lon="-0.34508">
        <ele>66</ele>
        <time>2013-11-24T16:03:25Z</time>
      </trkpt>
      <trkpt lat="44.7571" lon="-0.34505">
        <ele>65</ele>
        <time>2013-11-24T16:03:28Z</time>
      </trkpt>
      <trkpt lat="44.75733" lon="-0.34508">
        <ele>63</ele>
        <time>2013-11-24T16:03:32Z</time>
      </trkpt>
      <trkpt lat="44.75758" lon="-0.34535">
        <ele>61</ele>
        <time>2013-11-24T16:03:39Z</time>
      </trkpt>
      <trkpt lat="44.75768" lon="-0.34559">
        <ele>61</ele>
        <time>2013-11-24T16:03:44Z</time>
      </trkpt>
      <trkpt lat="44.75779" lon="-0.34587">
        <ele>61</ele>
        <time>2013-11-24T16:03:48Z</time>
      </trkpt>
      <trkpt lat="44.75792" lon="-0.34619">
        <ele>61</ele>
        <time>2013-11-24T16:03:54Z</time>
      </trkpt>
      <trkpt lat="44.75804" lon="-0.34641">
        <ele>60</ele>
        <time>2013-11-24T16:03:59Z</time>
      </trkpt>
      <trkpt lat="44.75808" lon="-0.34651">
        <ele>60</ele>
        <time>2013-11-24T16:04:01Z</time>
      </trkpt>
      <trkpt lat="44.7583" lon="-0.34704">
        <ele>58</ele>
        <time>2013-11-24T16:04:11Z</time>
      </trkpt>
      <trkpt lat="44.75833" lon="-0.3471">
        <ele>58</ele>
        <time>2013-11-24T16:04:13Z</time>
      </trkpt>
      <trkpt lat="44.75837" lon="-0.34713">
        <ele>58</ele>
        <time>2013-11-24T16:04:16Z</time>
      </trkpt>
      <trkpt lat="44.75839" lon="-0.34718">
        <ele>58</ele>
        <time>2013-11-24T16:04:19Z</time>
      </trkpt>
      <trkpt lat="44.75839" lon="-0.34725">
        <ele>58</ele>
        <time>2013-11-24T16:04:22Z</time>
      </trkpt>
      <trkpt lat="44.75843" lon="-0.34734">
        <ele>58</ele>
        <time>2013-11-24T16:04:25Z</time>
      </trkpt>
      <trkpt lat="44.75853" lon="-0.34754">
        <ele>58</ele>
        <time>2013-11-24T16:04:31Z</time>
      </trkpt>
      <trkpt lat="44.75861" lon="-0.3477">
        <ele>58</ele>
        <time>2013-11-24T16:04:34Z</time>
      </trkpt>
      <trkpt lat="44.75866" lon="-0.3478">
        <ele>57</ele>
        <time>2013-11-24T16:04:36Z</time>
      </trkpt>
      <trkpt lat="44.7587" lon="-0.34807">
        <ele>57</ele>
        <time>2013-11-24T16:04:40Z</time>
      </trkpt>
      <trkpt lat="44.75862" lon="-0.34837">
        <ele>59</ele>
        <time>2013-11-24T16:04:46Z</time>
      </trkpt>
      <trkpt lat="44.75853" lon="-0.34862">
        <ele>58</ele>
        <time>2013-11-24T16:04:51Z</time>
      </trkpt>
      <trkpt lat="44.75832" lon="-0.34897">
        <ele>57</ele>
        <time>2013-11-24T16:04:59Z</time>
      </trkpt>
      <trkpt lat="44.75816" lon="-0.34924">
        <ele>58</ele>
        <time>2013-11-24T16:05:06Z</time>
      </trkpt>
      <trkpt lat="44.75812" lon="-0.3495">
        <ele>57</ele>
        <time>2013-11-24T16:05:11Z</time>
      </trkpt>
      <trkpt lat="44.75809" lon="-0.34988">
        <ele>57</ele>
        <time>2013-11-24T16:05:18Z</time>
      </trkpt>
      <trkpt lat="44.75809" lon="-0.35007">
        <ele>58</ele>
        <time>2013-11-24T16:05:23Z</time>
      </trkpt>
      <trkpt lat="44.75808" lon="-0.35031">
        <ele>58</ele>
        <time>2013-11-24T16:05:29Z</time>
      </trkpt>
      <trkpt lat="44.75813" lon="-0.3507">
        <ele>57</ele>
        <time>2013-11-24T16:05:38Z</time>
      </trkpt>
      <trkpt lat="44.75817" lon="-0.35088">
        <ele>56</ele>
        <time>2013-11-24T16:05:42Z</time>
      </trkpt>
      <trkpt lat="44.7584" lon="-0.35119">
        <ele>53</ele>
        <time>2013-11-24T16:05:48Z</time>
      </trkpt>
      <trkpt lat="44.75843" lon="-0.35125">
        <ele>53</ele>
        <time>2013-11-24T16:05:49Z</time>
      </trkpt>
      <trkpt lat="44.75845" lon="-0.3513">
        <ele>52</ele>
        <time>2013-11-24T16:05:50Z</time>
      </trkpt>
      <trkpt lat="44.75848" lon="-0.35156">
        <ele>52</ele>
        <time>2013-11-24T16:05:56Z</time>
      </trkpt>
      <trkpt lat="44.75847" lon="-0.35159">
        <ele>52</ele>
        <time>2013-11-24T16:05:57Z</time>
      </trkpt>
      <trkpt lat="44.75844" lon="-0.35161">
        <ele>52</ele>
        <time>2013-11-24T16:06:01Z</time>
      </trkpt>
      <trkpt lat="44.75845" lon="-0.35161">
        <ele>52</ele>
        <time>2013-11-24T16:06:08Z</time>
      </trkpt>
      <trkpt lat="44.75845" lon="-0.35162">
        <ele>52</ele>
        <time>2013-11-24T16:06:17Z</time>
      </trkpt>
      <trkpt lat="44.75844" lon="-0.35161">
        <ele>52</ele>
        <time>2013-11-24T16:06:30Z</time>
      </trkpt>
      <trkpt lat="44.75844" lon="-0.35162">
        <ele>52</ele>
        <time>2013-11-24T16:06:48Z</time>
      </trkpt>
      <trkpt lat="44.75844" lon="-0.35161">
        <ele>52</ele>
        <time>2013-11-24T16:06:58Z</time>
      </trkpt>
      <trkpt lat="44.75844" lon="-0.35161">
        <ele>52</ele>
        <time>2013-11-24T16:07:13Z</time>
      </trkpt>
      <trkpt lat="44.75844" lon="-0.3516">
        <ele>52</ele>
        <time>2013-11-24T16:07:26Z</time>
      </trkpt>
      <trkpt lat="44.75844" lon="-0.35161">
        <ele>52</ele>
        <time>2013-11-24T16:07:39Z</time>
      </trkpt>
      <trkpt lat="44.75844" lon="-0.35162">
        <ele>52</ele>
        <time>2013-11-24T16:07:52Z</time>
      </trkpt>
      <trkpt lat="44.75844" lon="-0.35161">
        <ele>52</ele>
        <time>2013-11-24T16:08:06Z</time>
      </trkpt>
      <trkpt lat="44.75844" lon="-0.35161">
        <ele>52</ele>
        <time>2013-11-24T16:08:11Z</time>
      </trkpt>
      <trkpt lat="44.75846" lon="-0.3516">
        <ele>52</ele>
        <time>2013-11-24T16:08:25Z</time>
      </trkpt>
      <trkpt lat="44.75845" lon="-0.3516">
        <ele>52</ele>
        <time>2013-11-24T16:08:43Z</time>
      </trkpt>
      <trkpt lat="44.75845" lon="-0.35161">
        <ele>52</ele>
        <time>2013-11-24T16:08:57Z</time>
      </trkpt>
      <trkpt lat="44.75845" lon="-0.3516">
        <ele>52</ele>
        <time>2013-11-24T16:09:13Z</time>
      </trkpt>
      <trkpt lat="44.75845" lon="-0.3516">
        <ele>52</ele>
        <time>2013-11-24T16:09:24Z</time>
      </trkpt>
      <trkpt lat="44.75846" lon="-0.3516">
        <ele>52</ele>
        <time>2013-11-24T16:09:43Z</time>
      </trkpt>
      <trkpt lat="44.75846" lon="-0.3516">
        <ele>52</ele>
        <time>2013-11-24T16:10:00Z</time>
      </trkpt>
      <trkpt lat="44.75846" lon="-0.3516">
        <ele>52</ele>
        <time>2013-11-24T16:10:11Z</time>
      </trkpt>
      <trkpt lat="44.75846" lon="-0.35159">
        <ele>52</ele>
        <time>2013-11-24T16:10:26Z</time>
      </trkpt>
      <trkpt lat="44.75846" lon="-0.35159">
        <ele>52</ele>
        <time>2013-11-24T16:10:47Z</time>
      </trkpt>
      <trkpt lat="44.75846" lon="-0.3516">
        <ele>52</ele>
        <time>2013-11-24T16:11:02Z</time>
      </trkpt>
      <trkpt lat="44.75846" lon="-0.3516">
        <ele>52</ele>
        <time>2013-11-24T16:11:18Z</time>
      </trkpt>
      <trkpt lat="44.75846" lon="-0.35159">
        <ele>52</ele>
        <time>2013-11-24T16:11:39Z</time>
      </trkpt>
      <trkpt lat="44.75846" lon="-0.35159">
        <ele>52</ele>
        <time>2013-11-24T16:11:50Z</time>
      </trkpt>
      <trkpt lat="44.75848" lon="-0.35157">
        <ele>52</ele>
        <time>2013-11-24T16:11:58Z</time>
      </trkpt>
      <trkpt lat="44.75848" lon="-0.35155">
        <ele>52</ele>
        <time>2013-11-24T16:12:04Z</time>
      </trkpt>
      <trkpt lat="44.7585" lon="-0.35149">
        <ele>52</ele>
        <time>2013-11-24T16:12:11Z</time>
      </trkpt>
      <trkpt lat="44.75851" lon="-0.35148">
        <ele>52</ele>
        <time>2013-11-24T16:12:17Z</time>
      </trkpt>
      <trkpt lat="44.75853" lon="-0.35143">
        <ele>52</ele>
        <time>2013-11-24T16:12:24Z</time>
      </trkpt>
      <trkpt lat="44.75854" lon="-0.35143">
        <ele>52</ele>
        <time>2013-11-24T16:12:25Z</time>
      </trkpt>
      <trkpt lat="44.75855" lon="-0.35142">
        <ele>52</ele>
        <time>2013-11-24T16:12:26Z</time>
      </trkpt>
      <trkpt lat="44.75863" lon="-0.35142">
        <ele>52</ele>
        <time>2013-11-24T16:12:31Z</time>
      </trkpt>
      <trkpt lat="44.75865" lon="-0.35142">
        <ele>52</ele>
        <time>2013-11-24T16:12:32Z</time>
      </trkpt>
      <trkpt lat="44.75883" lon="-0.35148">
        <ele>52</ele>
        <time>2013-11-24T16:12:40Z</time>
      </trkpt>
      <trkpt lat="44.75901" lon="-0.35154">
        <ele>53</ele>
        <time>2013-11-24T16:12:47Z</time>
      </trkpt>
      <trkpt lat="44.75913" lon="-0.35157">
        <ele>53</ele>
        <time>2013-11-24T16:12:53Z</time>
      </trkpt>
      <trkpt lat="44.75913" lon="-0.35152">
        <ele>53</ele>
        <time>2013-11-24T16:12:59Z</time>
      </trkpt>
      <trkpt lat="44.75914" lon="-0.35146">
        <ele>53</ele>
        <time>2013-11-24T16:13:05Z</time>
      </trkpt>
      <trkpt lat="44.75915" lon="-0.35143">
        <ele>53</ele>
        <time>2013-11-24T16:13:11Z</time>
      </trkpt>
      <trkpt lat="44.75916" lon="-0.35139">
        <ele>53</ele>
        <time>2013-11-24T16:13:18Z</time>
      </trkpt>
      <trkpt lat="44.75916" lon="-0.35137">
        <ele>53</ele>
        <time>2013-11-24T16:13:19Z</time>
      </trkpt>
      <trkpt lat="44.75917" lon="-0.35133">
        <ele>53</ele>
        <time>2013-11-24T16:13:25Z</time>
      </trkpt>
      <trkpt lat="44.7592" lon="-0.35117">
        <ele>53</ele>
        <time>2013-11-24T16:13:30Z</time>
      </trkpt>
      <trkpt lat="44.75924" lon="-0.35091">
        <ele>53</ele>
        <time>2013-11-24T16:13:37Z</time>
      </trkpt>
      <trkpt lat="44.75928" lon="-0.35073">
        <ele>54</ele>
        <time>2013-11-24T16:13:42Z</time>
      </trkpt>
      <trkpt lat="44.75933" lon="-0.35053">
        <ele>56</ele>
        <time>2013-11-24T16:13:48Z</time>
      </trkpt>
      <trkpt lat="44.75931" lon="-0.35028">
        <ele>56</ele>
        <time>2013-11-24T16:13:55Z</time>
      </trkpt>
      <trkpt lat="44.75931" lon="-0.35002">
        <ele>57</ele>
        <time>2013-11-24T16:14:02Z</time>
      </trkpt>
      <trkpt lat="44.75936" lon="-0.34981">
        <ele>58</ele>
        <time>2013-11-24T16:14:10Z</time>
      </trkpt>
      <trkpt lat="44.75941" lon="-0.34965">
        <ele>59</ele>
        <time>2013-11-24T16:14:17Z</time>
      </trkpt>
      <trkpt lat="44.75947" lon="-0.34948">
        <ele>60</ele>
        <time>2013-11-24T16:14:25Z</time>
      </trkpt>
      <trkpt lat="44.75951" lon="-0.34936">
        <ele>61</ele>
        <time>2013-11-24T16:14:30Z</time>
      </trkpt>
      <trkpt lat="44.75953" lon="-0.34914">
        <ele>61</ele>
        <time>2013-11-24T16:14:38Z</time>
      </trkpt>
      <trkpt lat="44.75954" lon="-0.34903">
        <ele>61</ele>
        <time>2013-11-24T16:14:42Z</time>
      </trkpt>
      <trkpt lat="44.75954" lon="-0.34884">
        <ele>60</ele>
        <time>2013-11-24T16:14:49Z</time>
      </trkpt>
      <trkpt lat="44.75955" lon="-0.34872">
        <ele>60</ele>
        <time>2013-11-24T16:14:53Z</time>
      </trkpt>
      <trkpt lat="44.75955" lon="-0.34853">
        <ele>59</ele>
        <time>2013-11-24T16:15:01Z</time>
      </trkpt>
      <trkpt lat="44.75956" lon="-0.34835">
        <ele>59</ele>
        <time>2013-11-24T16:15:09Z</time>
      </trkpt>
      <trkpt lat="44.75958" lon="-0.34828">
        <ele>59</ele>
        <time>2013-11-24T16:15:11Z</time>
      </trkpt>
      <trkpt lat="44.75967" lon="-0.34812">
        <ele>59</ele>
        <time>2013-11-24T16:15:18Z</time>
      </trkpt>
      <trkpt lat="44.75972" lon="-0.34802">
        <ele>59</ele>
        <time>2013-11-24T16:15:21Z</time>
      </trkpt>
      <trkpt lat="44.75982" lon="-0.34788">
        <ele>59</ele>
        <time>2013-11-24T16:15:27Z</time>
      </trkpt>
      <trkpt lat="44.75985" lon="-0.34784">
        <ele>59</ele>
        <time>2013-11-24T16:15:29Z</time>
      </trkpt>
      <trkpt lat="44.75995" lon="-0.34768">
        <ele>60</ele>
        <time>2013-11-24T16:15:34Z</time>
      </trkpt>
      <trkpt lat="44.75998" lon="-0.34765">
        <ele>60</ele>
        <time>2013-11-24T16:15:36Z</time>
      </trkpt>
      <trkpt lat="44.76" lon="-0.34763">
        <ele>60</ele>
        <time>2013-11-24T16:15:37Z</time>
      </trkpt>
      <trkpt lat="44.76013" lon="-0.34741">
        <ele>60</ele>
        <time>2013-11-24T16:15:45Z</time>
      </trkpt>
      <trkpt lat="44.76014" lon="-0.3474">
        <ele>60</ele>
        <time>2013-11-24T16:15:46Z</time>
      </trkpt>
      <trkpt lat="44.76024" lon="-0.3472">
        <ele>59</ele>
        <time>2013-11-24T16:15:51Z</time>
      </trkpt>
      <trkpt lat="44.76036" lon="-0.34707">
        <ele>60</ele>
        <time>2013-11-24T16:15:56Z</time>
      </trkpt>
      <trkpt lat="44.76037" lon="-0.34701">
        <ele>60</ele>
        <time>2013-11-24T16:15:59Z</time>
      </trkpt>
      <trkpt lat="44.76039" lon="-0.34695">
        <ele>60</ele>
        <time>2013-11-24T16:16:04Z</time>
      </trkpt>
      <trkpt lat="44.7605" lon="-0.34694">
        <ele>60</ele>
        <time>2013-11-24T16:16:09Z</time>
      </trkpt>
      <trkpt lat="44.76064" lon="-0.34698">
        <ele>60</ele>
        <time>2013-11-24T16:16:14Z</time>
      </trkpt>
      <trkpt lat="44.76069" lon="-0.34704">
        <ele>60</ele>
        <time>2013-11-24T16:16:19Z</time>
      </trkpt>
      <trkpt lat="44.76069" lon="-0.34704">
        <ele>60</ele>
        <time>2013-11-24T16:16:20Z</time>
      </trkpt>
      <trkpt lat="44.76076" lon="-0.34707">
        <ele>60</ele>
        <time>2013-11-24T16:16:25Z</time>
      </trkpt>
      <trkpt lat="44.76082" lon="-0.34709">
        <ele>60</ele>
        <time>2013-11-24T16:16:28Z</time>
      </trkpt>
      <trkpt lat="44.7609" lon="-0.34715">
        <ele>60</ele>
        <time>2013-11-24T16:16:32Z</time>
      </trkpt>
      <trkpt lat="44.76096" lon="-0.34728">
        <ele>62</ele>
        <time>2013-11-24T16:16:39Z</time>
      </trkpt>
      <trkpt lat="44.76097" lon="-0.34729">
        <ele>62</ele>
        <time>2013-11-24T16:16:40Z</time>
      </trkpt>
      <trkpt lat="44.76094" lon="-0.34732">
        <ele>62</ele>
        <time>2013-11-24T16:16:43Z</time>
      </trkpt>
      <trkpt lat="44.7609" lon="-0.3474">
        <ele>63</ele>
        <time>2013-11-24T16:16:51Z</time>
      </trkpt>
      <trkpt lat="44.76094" lon="-0.34749">
        <ele>64</ele>
        <time>2013-11-24T16:16:57Z</time>
      </trkpt>
      <trkpt lat="44.76095" lon="-0.34752">
        <ele>64</ele>
        <time>2013-11-24T16:17:04Z</time>
      </trkpt>
      <trkpt lat="44.76095" lon="-0.34755">
        <ele>64</ele>
        <time>2013-11-24T16:17:10Z</time>
      </trkpt>
      <trkpt lat="44.76097" lon="-0.34763">
        <ele>65</ele>
        <time>2013-11-24T16:17:17Z</time>
      </trkpt>
      <trkpt lat="44.76097" lon="-0.34764">
        <ele>65</ele>
        <time>2013-11-24T16:17:23Z</time>
      </trkpt>
      <trkpt lat="44.76098" lon="-0.34767">
        <ele>66</ele>
        <time>2013-11-24T16:17:28Z</time>
      </trkpt>
      <trkpt lat="44.761" lon="-0.34774">
        <ele>66</ele>
        <time>2013-11-24T16:17:35Z</time>
      </trkpt>
      <trkpt lat="44.761" lon="-0.34779">
        <ele>67</ele>
        <time>2013-11-24T16:17:41Z</time>
      </trkpt>
      <trkpt lat="44.761" lon="-0.34781">
        <ele>67</ele>
        <time>2013-11-24T16:17:43Z</time>
      </trkpt>
      <trkpt lat="44.76102" lon="-0.34787">
        <ele>68</ele>
        <time>2013-11-24T16:17:48Z</time>
      </trkpt>
      <trkpt lat="44.76103" lon="-0.34788">
        <ele>68</ele>
        <time>2013-11-24T16:17:50Z</time>
      </trkpt>
      <trkpt lat="44.76104" lon="-0.34795">
        <ele>69</ele>
        <time>2013-11-24T16:17:58Z</time>
      </trkpt>
      <trkpt lat="44.76104" lon="-0.34797">
        <ele>69</ele>
        <time>2013-11-24T16:18:04Z</time>
      </trkpt>
      <trkpt lat="44.76104" lon="-0.34798">
        <ele>69</ele>
        <time>2013-11-24T16:18:06Z</time>
      </trkpt>
      <trkpt lat="44.76099" lon="-0.34807">
        <ele>70</ele>
        <time>2013-11-24T16:18:11Z</time>
      </trkpt>
      <trkpt lat="44.7609" lon="-0.34824">
        <ele>72</ele>
        <time>2013-11-24T16:18:19Z</time>
      </trkpt>
      <trkpt lat="44.76089" lon="-0.34826">
        <ele>72</ele>
        <time>2013-11-24T16:18:20Z</time>
      </trkpt>
      <trkpt lat="44.76088" lon="-0.34837">
        <ele>74</ele>
        <time>2013-11-24T16:18:25Z</time>
      </trkpt>
      <trkpt lat="44.76097" lon="-0.34846">
        <ele>75</ele>
        <time>2013-11-24T16:18:33Z</time>
      </trkpt>
      <trkpt lat="44.76099" lon="-0.34852">
        <ele>75</ele>
        <time>2013-11-24T16:18:36Z</time>
      </trkpt>
      <trkpt lat="44.76103" lon="-0.3486">
        <ele>76</ele>
        <time>2013-11-24T16:18:42Z</time>
      </trkpt>
      <trkpt lat="44.76107" lon="-0.34863">
        <ele>77</ele>
        <time>2013-11-24T16:18:45Z</time>
      </trkpt>
      <trkpt lat="44.76114" lon="-0.34869">
        <ele>77</ele>
        <time>2013-11-24T16:18:50Z</time>
      </trkpt>
      <trkpt lat="44.76128" lon="-0.34878">
        <ele>77</ele>
        <time>2013-11-24T16:18:57Z</time>
      </trkpt>
      <trkpt lat="44.76144" lon="-0.34887">
        <ele>78</ele>
        <time>2013-11-24T16:19:04Z</time>
      </trkpt>
      <trkpt lat="44.76146" lon="-0.34888">
        <ele>78</ele>
        <time>2013-11-24T16:19:05Z</time>
      </trkpt>
      <trkpt lat="44.76151" lon="-0.34892">
        <ele>78</ele>
        <time>2013-11-24T16:19:07Z</time>
      </trkpt>
      <trkpt lat="44.76154" lon="-0.34904">
        <ele>79</ele>
        <time>2013-11-24T16:19:12Z</time>
      </trkpt>
      <trkpt lat="44.76149" lon="-0.3492">
        <ele>81</ele>
        <time>2013-11-24T16:19:20Z</time>
      </trkpt>
      <trkpt lat="44.76145" lon="-0.34934">
        <ele>82</ele>
        <time>2013-11-24T16:19:27Z</time>
      </trkpt>
      <trkpt lat="44.76145" lon="-0.34938">
        <ele>82</ele>
        <time>2013-11-24T16:19:29Z</time>
      </trkpt>
      <trkpt lat="44.76142" lon="-0.34951">
        <ele>83</ele>
        <time>2013-11-24T16:19:36Z</time>
      </trkpt>
      <trkpt lat="44.76138" lon="-0.34963">
        <ele>84</ele>
        <time>2013-11-24T16:19:43Z</time>
      </trkpt>
      <trkpt lat="44.76139" lon="-0.34966">
        <ele>84</ele>
        <time>2013-11-24T16:19:45Z</time>
      </trkpt>
      <trkpt lat="44.76138" lon="-0.3497">
        <ele>84</ele>
        <time>2013-11-24T16:19:47Z</time>
      </trkpt>
      <trkpt lat="44.76134" lon="-0.34985">
        <ele>85</ele>
        <time>2013-11-24T16:19:55Z</time>
      </trkpt>
      <trkpt lat="44.76133" lon="-0.3499">
        <ele>85</ele>
        <time>2013-11-24T16:19:57Z</time>
      </trkpt>
      <trkpt lat="44.76136" lon="-0.34995">
        <ele>85</ele>
        <time>2013-11-24T16:20:01Z</time>
      </trkpt>
      <trkpt lat="44.76149" lon="-0.35005">
        <ele>86</ele>
        <time>2013-11-24T16:20:11Z</time>
      </trkpt>
      <trkpt lat="44.76159" lon="-0.35013">
        <ele>86</ele>
        <time>2013-11-24T16:20:18Z</time>
      </trkpt>
      <trkpt lat="44.76173" lon="-0.35024">
        <ele>86</ele>
        <time>2013-11-24T16:20:25Z</time>
      </trkpt>
      <trkpt lat="44.76188" lon="-0.35039">
        <ele>86</ele>
        <time>2013-11-24T16:20:33Z</time>
      </trkpt>
      <trkpt lat="44.76202" lon="-0.35052">
        <ele>85</ele>
        <time>2013-11-24T16:20:39Z</time>
      </trkpt>
      <trkpt lat="44.76223" lon="-0.35074">
        <ele>85</ele>
        <time>2013-11-24T16:20:46Z</time>
      </trkpt>
      <trkpt lat="44.76245" lon="-0.35096">
        <ele>85</ele>
        <time>2013-11-24T16:20:53Z</time>
      </trkpt>
      <trkpt lat="44.76261" lon="-0.35111">
        <ele>85</ele>
        <time>2013-11-24T16:21:00Z</time>
      </trkpt>
      <trkpt lat="44.76277" lon="-0.35124">
        <ele>84</ele>
        <time>2013-11-24T16:21:06Z</time>
      </trkpt>
      <trkpt lat="44.76297" lon="-0.35136">
        <ele>85</ele>
        <time>2013-11-24T16:21:13Z</time>
      </trkpt>
      <trkpt lat="44.76315" lon="-0.35147">
        <ele>87</ele>
        <time>2013-11-24T16:21:20Z</time>
      </trkpt>
      <trkpt lat="44.76327" lon="-0.35164">
        <ele>89</ele>
        <time>2013-11-24T16:21:26Z</time>
      </trkpt>
      <trkpt lat="44.76327" lon="-0.35167">
        <ele>89</ele>
        <time>2013-11-24T16:21:27Z</time>
      </trkpt>
      <trkpt lat="44.76323" lon="-0.3519">
        <ele>90</ele>
        <time>2013-11-24T16:21:35Z</time>
      </trkpt>
      <trkpt lat="44.7632" lon="-0.35212">
        <ele>90</ele>
        <time>2013-11-24T16:21:43Z</time>
      </trkpt>
      <trkpt lat="44.76321" lon="-0.35214">
        <ele>90</ele>
        <time>2013-11-24T16:21:44Z</time>
      </trkpt>
      <trkpt lat="44.76324" lon="-0.35223">
        <ele>90</ele>
        <time>2013-11-24T16:21:51Z</time>
      </trkpt>
      <trkpt lat="44.76324" lon="-0.35224">
        <ele>90</ele>
        <time>2013-11-24T16:21:58Z</time>
      </trkpt>
      <trkpt lat="44.76324" lon="-0.35225">
        <ele>90</ele>
        <time>2013-11-24T16:22:04Z</time>
      </trkpt>
      <trkpt lat="44.76324" lon="-0.35227">
        <ele>90</ele>
        <time>2013-11-24T16:22:11Z</time>
      </trkpt>
      <trkpt lat="44.76324" lon="-0.35227">
        <ele>90</ele>
        <time>2013-11-24T16:22:22Z</time>
      </trkpt>
      <trkpt lat="44.76323" lon="-0.35228">
        <ele>90</ele>
        <time>2013-11-24T16:22:38Z</time>
      </trkpt>
      <trkpt lat="44.76323" lon="-0.35228">
        <ele>90</ele>
        <time>2013-11-24T16:22:55Z</time>
      </trkpt>
      <trkpt lat="44.76323" lon="-0.35228">
        <ele>90</ele>
        <time>2013-11-24T16:23:10Z</time>
      </trkpt>
      <trkpt lat="44.76323" lon="-0.35228">
        <ele>90</ele>
        <time>2013-11-24T16:23:17Z</time>
      </trkpt>
      <trkpt lat="44.76324" lon="-0.35228">
        <ele>90</ele>
        <time>2013-11-24T16:23:25Z</time>
      </trkpt>
      <trkpt lat="44.76324" lon="-0.35228">
        <ele>90</ele>
        <time>2013-11-24T16:23:42Z</time>
      </trkpt>
      <trkpt lat="44.76324" lon="-0.35227">
        <ele>90</ele>
        <time>2013-11-24T16:23:51Z</time>
      </trkpt>
      <trkpt lat="44.76324" lon="-0.35227">
        <ele>90</ele>
        <time>2013-11-24T16:24:02Z</time>
      </trkpt>
      <trkpt lat="44.76324" lon="-0.35227">
        <ele>90</ele>
        <time>2013-11-24T16:24:14Z</time>
      </trkpt>
      <trkpt lat="44.76324" lon="-0.35227">
        <ele>90</ele>
        <time>2013-11-24T16:24:22Z</time>
      </trkpt>
      <trkpt lat="44.76333" lon="-0.35229">
        <ele>90</ele>
        <time>2013-11-24T16:24:28Z</time>
      </trkpt>
      <trkpt lat="44.76354" lon="-0.35218">
        <ele>90</ele>
        <time>2013-11-24T16:24:38Z</time>
      </trkpt>
      <trkpt lat="44.76381" lon="-0.35214">
        <ele>89</ele>
        <time>2013-11-24T16:24:47Z</time>
      </trkpt>
      <trkpt lat="44.76406" lon="-0.35209">
        <ele>89</ele>
        <time>2013-11-24T16:24:55Z</time>
      </trkpt>
      <trkpt lat="44.76441" lon="-0.35203">
        <ele>89</ele>
        <time>2013-11-24T16:25:03Z</time>
      </trkpt>
      <trkpt lat="44.76477" lon="-0.35199">
        <ele>90</ele>
        <time>2013-11-24T16:25:09Z</time>
      </trkpt>
      <trkpt lat="44.76484" lon="-0.35198">
        <ele>90</ele>
        <time>2013-11-24T16:25:10Z</time>
      </trkpt>
      <trkpt lat="44.76491" lon="-0.35197">
        <ele>91</ele>
        <time>2013-11-24T16:25:11Z</time>
      </trkpt>
      <trkpt lat="44.76545" lon="-0.35189">
        <ele>92</ele>
        <time>2013-11-24T16:25:19Z</time>
      </trkpt>
      <trkpt lat="44.76609" lon="-0.35178">
        <ele>93</ele>
        <time>2013-11-24T16:25:29Z</time>
      </trkpt>
      <trkpt lat="44.76667" lon="-0.3516">
        <ele>91</ele>
        <time>2013-11-24T16:25:38Z</time>
      </trkpt>
      <trkpt lat="44.76718" lon="-0.35145">
        <ele>90</ele>
        <time>2013-11-24T16:25:47Z</time>
      </trkpt>
      <trkpt lat="44.76764" lon="-0.35136">
        <ele>91</ele>
        <time>2013-11-24T16:25:56Z</time>
      </trkpt>
      <trkpt lat="44.76812" lon="-0.35133">
        <ele>92</ele>
        <time>2013-11-24T16:26:05Z</time>
      </trkpt>
      <trkpt lat="44.7686" lon="-0.3513">
        <ele>92</ele>
        <time>2013-11-24T16:26:15Z</time>
      </trkpt>
      <trkpt lat="44.76869" lon="-0.3513">
        <ele>92</ele>
        <time>2013-11-24T16:26:17Z</time>
      </trkpt>
      <trkpt lat="44.76911" lon="-0.35129">
        <ele>94</ele>
        <time>2013-11-24T16:26:26Z</time>
      </trkpt>
      <trkpt lat="44.76958" lon="-0.35128">
        <ele>95</ele>
        <time>2013-11-24T16:26:36Z</time>
      </trkpt>
      <trkpt lat="44.77" lon="-0.35128">
        <ele>95</ele>
        <time>2013-11-24T16:26:45Z</time>
      </trkpt>
      <trkpt lat="44.77013" lon="-0.35127">
        <ele>96</ele>
        <time>2013-11-24T16:26:48Z</time>
      </trkpt>
      <trkpt lat="44.77017" lon="-0.35127">
        <ele>96</ele>
        <time>2013-11-24T16:26:49Z</time>
      </trkpt>
      <trkpt lat="44.77062" lon="-0.35125">
        <ele>98</ele>
        <time>2013-11-24T16:26:59Z</time>
      </trkpt>
      <trkpt lat="44.7709" lon="-0.35126">
        <ele>99</ele>
        <time>2013-11-24T16:27:06Z</time>
      </trkpt>
      <trkpt lat="44.77114" lon="-0.35125">
        <ele>100</ele>
        <time>2013-11-24T16:27:13Z</time>
      </trkpt>
      <trkpt lat="44.77141" lon="-0.35126">
        <ele>101</ele>
        <time>2013-11-24T16:27:21Z</time>
      </trkpt>
      <trkpt lat="44.77155" lon="-0.3513">
        <ele>102</ele>
        <time>2013-11-24T16:27:28Z</time>
      </trkpt>
      <trkpt lat="44.77159" lon="-0.35131">
        <ele>102</ele>
        <time>2013-11-24T16:27:34Z</time>
      </trkpt>
      <trkpt lat="44.77159" lon="-0.35134">
        <ele>102</ele>
        <time>2013-11-24T16:27:42Z</time>
      </trkpt>
      <trkpt lat="44.77159" lon="-0.35137">
        <ele>102</ele>
        <time>2013-11-24T16:27:47Z</time>
      </trkpt>
      <trkpt lat="44.7716" lon="-0.35138">
        <ele>102</ele>
        <time>2013-11-24T16:27:48Z</time>
      </trkpt>
      <trkpt lat="44.77161" lon="-0.3514">
        <ele>102</ele>
        <time>2013-11-24T16:27:49Z</time>
      </trkpt>
      <trkpt lat="44.77162" lon="-0.35143">
        <ele>102</ele>
        <time>2013-11-24T16:27:50Z</time>
      </trkpt>
      <trkpt lat="44.77171" lon="-0.35164">
        <ele>102</ele>
        <time>2013-11-24T16:27:57Z</time>
      </trkpt>
      <trkpt lat="44.77183" lon="-0.35194">
        <ele>103</ele>
        <time>2013-11-24T16:28:04Z</time>
      </trkpt>
      <trkpt lat="44.77196" lon="-0.35234">
        <ele>103</ele>
        <time>2013-11-24T16:28:15Z</time>
      </trkpt>
      <trkpt lat="44.77202" lon="-0.35259">
        <ele>103</ele>
        <time>2013-11-24T16:28:22Z</time>
      </trkpt>
      <trkpt lat="44.77206" lon="-0.3528">
        <ele>103</ele>
        <time>2013-11-24T16:28:26Z</time>
      </trkpt>
      <trkpt lat="44.77207" lon="-0.35299">
        <ele>103</ele>
        <time>2013-11-24T16:28:29Z</time>
      </trkpt>
      <trkpt lat="44.77212" lon="-0.35334">
        <ele>103</ele>
        <time>2013-11-24T16:28:34Z</time>
      </trkpt>
      <trkpt lat="44.77213" lon="-0.35341">
        <ele>103</ele>
        <time>2013-11-24T16:28:35Z</time>
      </trkpt>
      <trkpt lat="44.77208" lon="-0.35403">
        <ele>103</ele>
        <time>2013-11-24T16:28:43Z</time>
      </trkpt>
      <trkpt lat="44.77203" lon="-0.35453">
        <ele>102</ele>
        <time>2013-11-24T16:28:49Z</time>
      </trkpt>
      <trkpt lat="44.77203" lon="-0.35462">
        <ele>102</ele>
        <time>2013-11-24T16:28:50Z</time>
      </trkpt>
      <trkpt lat="44.77204" lon="-0.3547">
        <ele>102</ele>
        <time>2013-11-24T16:28:51Z</time>
      </trkpt>
      <trkpt lat="44.77205" lon="-0.35478">
        <ele>102</ele>
        <time>2013-11-24T16:28:52Z</time>
      </trkpt>
      <trkpt lat="44.77206" lon="-0.35486">
        <ele>102</ele>
        <time>2013-11-24T16:28:53Z</time>
      </trkpt>
      <trkpt lat="44.77207" lon="-0.35494">
        <ele>102</ele>
        <time>2013-11-24T16:28:54Z</time>
      </trkpt>
      <trkpt lat="44.77214" lon="-0.35563">
        <ele>101</ele>
        <time>2013-11-24T16:29:02Z</time>
      </trkpt>
      <trkpt lat="44.77217" lon="-0.35654">
        <ele>100</ele>
        <time>2013-11-24T16:29:12Z</time>
      </trkpt>
      <trkpt lat="44.7722" lon="-0.35726">
        <ele>100</ele>
        <time>2013-11-24T16:29:20Z</time>
      </trkpt>
      <trkpt lat="44.77222" lon="-0.35795">
        <ele>100</ele>
        <time>2013-11-24T16:29:27Z</time>
      </trkpt>
      <trkpt lat="44.7722" lon="-0.3588">
        <ele>100</ele>
        <time>2013-11-24T16:29:36Z</time>
      </trkpt>
      <trkpt lat="44.7721" lon="-0.35944">
        <ele>100</ele>
        <time>2013-11-24T16:29:43Z</time>
      </trkpt>
      <trkpt lat="44.77196" lon="-0.36004">
        <ele>100</ele>
        <time>2013-11-24T16:29:50Z</time>
      </trkpt>
      <trkpt lat="44.77186" lon="-0.36069">
        <ele>100</ele>
        <time>2013-11-24T16:29:58Z</time>
      </trkpt>
      <trkpt lat="44.77185" lon="-0.36084">
        <ele>100</ele>
        <time>2013-11-24T16:30:00Z</time>
      </trkpt>
      <trkpt lat="44.77185" lon="-0.36093">
        <ele>100</ele>
        <time>2013-11-24T16:30:01Z</time>
      </trkpt>
      <trkpt lat="44.7718" lon="-0.3614">
        <ele>100</ele>
        <time>2013-11-24T16:30:07Z</time>
      </trkpt>
      <trkpt lat="44.77171" lon="-0.3622">
        <ele>100</ele>
        <time>2013-11-24T16:30:17Z</time>
      </trkpt>
      <trkpt lat="44.77161" lon="-0.36292">
        <ele>100</ele>
        <time>2013-11-24T16:30:26Z</time>
      </trkpt>
      <trkpt lat="44.77152" lon="-0.36357">
        <ele>100</ele>
        <time>2013-11-24T16:30:35Z</time>
      </trkpt>
      <trkpt lat="44.77145" lon="-0.36409">
        <ele>99</ele>
        <time>2013-11-24T16:30:43Z</time>
      </trkpt>
      <trkpt lat="44.77142" lon="-0.36415">
        <ele>99</ele>
        <time>2013-11-24T16:30:44Z</time>
      </trkpt>
      <trkpt lat="44.7714" lon="-0.3642">
        <ele>99</ele>
        <time>2013-11-24T16:30:45Z</time>
      </trkpt>
      <trkpt lat="44.77138" lon="-0.36425">
        <ele>98</ele>
        <time>2013-11-24T16:30:46Z</time>
      </trkpt>
      <trkpt lat="44.77136" lon="-0.3643">
        <ele>98</ele>
        <time>2013-11-24T16:30:47Z</time>
      </trkpt>
      <trkpt lat="44.77135" lon="-0.36437">
        <ele>98</ele>
        <time>2013-11-24T16:30:48Z</time>
      </trkpt>
      <trkpt lat="44.77134" lon="-0.36443">
        <ele>98</ele>
        <time>2013-11-24T16:30:49Z</time>
      </trkpt>
      <trkpt lat="44.77128" lon="-0.36486">
        <ele>97</ele>
        <time>2013-11-24T16:30:56Z</time>
      </trkpt>
      <trkpt lat="44.77127" lon="-0.36492">
        <ele>97</ele>
        <time>2013-11-24T16:30:57Z</time>
      </trkpt>
      <trkpt lat="44.77126" lon="-0.36499">
        <ele>96</ele>
        <time>2013-11-24T16:30:58Z</time>
      </trkpt>
      <trkpt lat="44.7712" lon="-0.36529">
        <ele>96</ele>
        <time>2013-11-24T16:31:02Z</time>
      </trkpt>
      <trkpt lat="44.77117" lon="-0.36536">
        <ele>95</ele>
        <time>2013-11-24T16:31:03Z</time>
      </trkpt>
      <trkpt lat="44.77113" lon="-0.36544">
        <ele>95</ele>
        <time>2013-11-24T16:31:04Z</time>
      </trkpt>
      <trkpt lat="44.77108" lon="-0.3655">
        <ele>95</ele>
        <time>2013-11-24T16:31:05Z</time>
      </trkpt>
      <trkpt lat="44.77103" lon="-0.36557">
        <ele>95</ele>
        <time>2013-11-24T16:31:06Z</time>
      </trkpt>
      <trkpt lat="44.77089" lon="-0.36578">
        <ele>95</ele>
        <time>2013-11-24T16:31:09Z</time>
      </trkpt>
      <trkpt lat="44.7707" lon="-0.36626">
        <ele>94</ele>
        <time>2013-11-24T16:31:15Z</time>
      </trkpt>
      <trkpt lat="44.77047" lon="-0.36672">
        <ele>95</ele>
        <time>2013-11-24T16:31:22Z</time>
      </trkpt>
      <trkpt lat="44.77032" lon="-0.36702">
        <ele>96</ele>
        <time>2013-11-24T16:31:28Z</time>
      </trkpt>
      <trkpt lat="44.77018" lon="-0.36734">
        <ele>96</ele>
        <time>2013-11-24T16:31:36Z</time>
      </trkpt>
      <trkpt lat="44.77019" lon="-0.36746">
        <ele>96</ele>
        <time>2013-11-24T16:31:40Z</time>
      </trkpt>
      <trkpt lat="44.7702" lon="-0.36747">
        <ele>96</ele>
        <time>2013-11-24T16:31:41Z</time>
      </trkpt>
      <trkpt lat="44.77022" lon="-0.36749">
        <ele>96</ele>
        <time>2013-11-24T16:31:45Z</time>
      </trkpt>
      <trkpt lat="44.77024" lon="-0.36748">
        <ele>96</ele>
        <time>2013-11-24T16:31:51Z</time>
      </trkpt>
      <trkpt lat="44.77023" lon="-0.36749">
        <ele>96</ele>
        <time>2013-11-24T16:31:59Z</time>
      </trkpt>
      <trkpt lat="44.77024" lon="-0.36749">
        <ele>96</ele>
        <time>2013-11-24T16:32:02Z</time>
      </trkpt>
      <trkpt lat="44.77027" lon="-0.36753">
        <ele>95</ele>
        <time>2013-11-24T16:32:10Z</time>
      </trkpt>
      <trkpt lat="44.77027" lon="-0.36752">
        <ele>95</ele>
        <time>2013-11-24T16:32:21Z</time>
      </trkpt>
      <trkpt lat="44.77027" lon="-0.36753">
        <ele>95</ele>
        <time>2013-11-24T16:32:31Z</time>
      </trkpt>
      <trkpt lat="44.77027" lon="-0.36754">
        <ele>95</ele>
        <time>2013-11-24T16:32:43Z</time>
      </trkpt>
      <trkpt lat="44.77028" lon="-0.36755">
        <ele>95</ele>
        <time>2013-11-24T16:32:48Z</time>
      </trkpt>
      <trkpt lat="44.77037" lon="-0.36761">
        <ele>95</ele>
        <time>2013-11-24T16:32:56Z</time>
      </trkpt>
      <trkpt lat="44.77051" lon="-0.36772">
        <ele>94</ele>
        <time>2013-11-24T16:33:03Z</time>
      </trkpt>
      <trkpt lat="44.77066" lon="-0.36786">
        <ele>92</ele>
        <time>2013-11-24T16:33:09Z</time>
      </trkpt>
      <trkpt lat="44.77081" lon="-0.36801">
        <ele>91</ele>
        <time>2013-11-24T16:33:14Z</time>
      </trkpt>
      <trkpt lat="44.77101" lon="-0.36823">
        <ele>88</ele>
        <time>2013-11-24T16:33:20Z</time>
      </trkpt>
      <trkpt lat="44.77106" lon="-0.36833">
        <ele>87</ele>
        <time>2013-11-24T16:33:22Z</time>
      </trkpt>
      <trkpt lat="44.77113" lon="-0.36854">
        <ele>86</ele>
        <time>2013-11-24T16:33:26Z</time>
      </trkpt>
      <trkpt lat="44.77114" lon="-0.36866">
        <ele>86</ele>
        <time>2013-11-24T16:33:28Z</time>
      </trkpt>
      <trkpt lat="44.77122" lon="-0.36899">
        <ele>85</ele>
        <time>2013-11-24T16:33:33Z</time>
      </trkpt>
      <trkpt lat="44.77133" lon="-0.36932">
        <ele>84</ele>
        <time>2013-11-24T16:33:39Z</time>
      </trkpt>
      <trkpt lat="44.77137" lon="-0.36943">
        <ele>83</ele>
        <time>2013-11-24T16:33:41Z</time>
      </trkpt>
      <trkpt lat="44.7714" lon="-0.36949">
        <ele>83</ele>
        <time>2013-11-24T16:33:42Z</time>
      </trkpt>
      <trkpt lat="44.77142" lon="-0.36955">
        <ele>83</ele>
        <time>2013-11-24T16:33:43Z</time>
      </trkpt>
      <trkpt lat="44.77145" lon="-0.36961">
        <ele>83</ele>
        <time>2013-11-24T16:33:44Z</time>
      </trkpt>
      <trkpt lat="44.77147" lon="-0.36967">
        <ele>82</ele>
        <time>2013-11-24T16:33:45Z</time>
      </trkpt>
      <trkpt lat="44.7715" lon="-0.36972">
        <ele>82</ele>
        <time>2013-11-24T16:33:46Z</time>
      </trkpt>
      <trkpt lat="44.77159" lon="-0.36989">
        <ele>80</ele>
        <time>2013-11-24T16:33:49Z</time>
      </trkpt>
      <trkpt lat="44.77161" lon="-0.36996">
        <ele>80</ele>
        <time>2013-11-24T16:33:50Z</time>
      </trkpt>
      <trkpt lat="44.77167" lon="-0.37008">
        <ele>79</ele>
        <time>2013-11-24T16:33:52Z</time>
      </trkpt>
      <trkpt lat="44.77169" lon="-0.37013">
        <ele>79</ele>
        <time>2013-11-24T16:33:53Z</time>
      </trkpt>
      <trkpt lat="44.7717" lon="-0.37019">
        <ele>79</ele>
        <time>2013-11-24T16:33:54Z</time>
      </trkpt>
      <trkpt lat="44.77171" lon="-0.37025">
        <ele>79</ele>
        <time>2013-11-24T16:33:55Z</time>
      </trkpt>
      <trkpt lat="44.77172" lon="-0.37032">
        <ele>79</ele>
        <time>2013-11-24T16:33:56Z</time>
      </trkpt>
      <trkpt lat="44.77174" lon="-0.37037">
        <ele>79</ele>
        <time>2013-11-24T16:33:57Z</time>
      </trkpt>
      <trkpt lat="44.77178" lon="-0.37049">
        <ele>78</ele>
        <time>2013-11-24T16:33:59Z</time>
      </trkpt>
      <trkpt lat="44.7719" lon="-0.37077">
        <ele>78</ele>
        <time>2013-11-24T16:34:05Z</time>
      </trkpt>
      <trkpt lat="44.77203" lon="-0.37096">
        <ele>77</ele>
        <time>2013-11-24T16:34:10Z</time>
      </trkpt>
      <trkpt lat="44.77219" lon="-0.37116">
        <ele>76</ele>
        <time>2013-11-24T16:34:16Z</time>
      </trkpt>
      <trkpt lat="44.77223" lon="-0.3712">
        <ele>75</ele>
        <time>2013-11-24T16:34:17Z</time>
      </trkpt>
      <trkpt lat="44.77241" lon="-0.37138">
        <ele>75</ele>
        <time>2013-11-24T16:34:21Z</time>
      </trkpt>
      <trkpt lat="44.77244" lon="-0.37143">
        <ele>75</ele>
        <time>2013-11-24T16:34:22Z</time>
      </trkpt>
      <trkpt lat="44.7726" lon="-0.37171">
        <ele>73</ele>
        <time>2013-11-24T16:34:27Z</time>
      </trkpt>
      <trkpt lat="44.77277" lon="-0.37195">
        <ele>72</ele>
        <time>2013-11-24T16:34:33Z</time>
      </trkpt>
      <trkpt lat="44.77284" lon="-0.37202">
        <ele>72</ele>
        <time>2013-11-24T16:34:36Z</time>
      </trkpt>
      <trkpt lat="44.77288" lon="-0.37205">
        <ele>71</ele>
        <time>2013-11-24T16:34:37Z</time>
      </trkpt>
      <trkpt lat="44.77311" lon="-0.37223">
        <ele>70</ele>
        <time>2013-11-24T16:34:43Z</time>
      </trkpt>
      <trkpt lat="44.77315" lon="-0.37226">
        <ele>69</ele>
        <time>2013-11-24T16:34:44Z</time>
      </trkpt>
      <trkpt lat="44.77318" lon="-0.37228">
        <ele>69</ele>
        <time>2013-11-24T16:34:45Z</time>
      </trkpt>
      <trkpt lat="44.77339" lon="-0.37246">
        <ele>68</ele>
        <time>2013-11-24T16:34:51Z</time>
      </trkpt>
      <trkpt lat="44.77342" lon="-0.37247">
        <ele>68</ele>
        <time>2013-11-24T16:34:52Z</time>
      </trkpt>
      <trkpt lat="44.77345" lon="-0.37249">
        <ele>68</ele>
        <time>2013-11-24T16:34:53Z</time>
      </trkpt>
      <trkpt lat="44.77348" lon="-0.37251">
        <ele>68</ele>
        <time>2013-11-24T16:34:54Z</time>
      </trkpt>
      <trkpt lat="44.77351" lon="-0.37254">
        <ele>68</ele>
        <time>2013-11-24T16:34:55Z</time>
      </trkpt>
      <trkpt lat="44.77362" lon="-0.37266">
        <ele>68</ele>
        <time>2013-11-24T16:35:00Z</time>
      </trkpt>
      <trkpt lat="44.77365" lon="-0.37269">
        <ele>68</ele>
        <time>2013-11-24T16:35:02Z</time>
      </trkpt>
      <trkpt lat="44.77366" lon="-0.3727">
        <ele>68</ele>
        <time>2013-11-24T16:35:03Z</time>
      </trkpt>
      <trkpt lat="44.77367" lon="-0.37272">
        <ele>68</ele>
        <time>2013-11-24T16:35:04Z</time>
      </trkpt>
      <trkpt lat="44.77369" lon="-0.37274">
        <ele>68</ele>
        <time>2013-11-24T16:35:05Z</time>
      </trkpt>
      <trkpt lat="44.7737" lon="-0.37276">
        <ele>68</ele>
        <time>2013-11-24T16:35:06Z</time>
      </trkpt>
      <trkpt lat="44.77371" lon="-0.37277">
        <ele>68</ele>
        <time>2013-11-24T16:35:07Z</time>
      </trkpt>
      <trkpt lat="44.77372" lon="-0.37278">
        <ele>68</ele>
        <time>2013-11-24T16:35:08Z</time>
      </trkpt>
      <trkpt lat="44.77379" lon="-0.37279">
        <ele>68</ele>
        <time>2013-11-24T16:35:13Z</time>
      </trkpt>
      <trkpt lat="44.77385" lon="-0.37282">
        <ele>68</ele>
        <time>2013-11-24T16:35:17Z</time>
      </trkpt>
      <trkpt lat="44.774" lon="-0.37285">
        <ele>68</ele>
        <time>2013-11-24T16:35:25Z</time>
      </trkpt>
      <trkpt lat="44.77406" lon="-0.37287">
        <ele>68</ele>
        <time>2013-11-24T16:35:29Z</time>
      </trkpt>
      <trkpt lat="44.77411" lon="-0.3729">
        <ele>68</ele>
        <time>2013-11-24T16:35:37Z</time>
      </trkpt>
      <trkpt lat="44.77417" lon="-0.37294">
        <ele>69</ele>
        <time>2013-11-24T16:35:44Z</time>
      </trkpt>
      <trkpt lat="44.77422" lon="-0.37297">
        <ele>69</ele>
        <time>2013-11-24T16:35:50Z</time>
      </trkpt>
      <trkpt lat="44.77427" lon="-0.37302">
        <ele>69</ele>
        <time>2013-11-24T16:35:56Z</time>
      </trkpt>
      <trkpt lat="44.77434" lon="-0.37307">
        <ele>69</ele>
        <time>2013-11-24T16:36:03Z</time>
      </trkpt>
      <trkpt lat="44.77439" lon="-0.37312">
        <ele>69</ele>
        <time>2013-11-24T16:36:09Z</time>
      </trkpt>
      <trkpt lat="44.77441" lon="-0.37312">
        <ele>69</ele>
        <time>2013-11-24T16:36:15Z</time>
      </trkpt>
      <trkpt lat="44.77442" lon="-0.37313">
        <ele>69</ele>
        <time>2013-11-24T16:36:21Z</time>
      </trkpt>
      <trkpt lat="44.77443" lon="-0.37314">
        <ele>69</ele>
        <time>2013-11-24T16:36:33Z</time>
      </trkpt>
      <trkpt lat="44.77444" lon="-0.37312">
        <ele>69</ele>
        <time>2013-11-24T16:36:39Z</time>
      </trkpt>
      <trkpt lat="44.77443" lon="-0.37312">
        <ele>69</ele>
        <time>2013-11-24T16:36:47Z</time>
      </trkpt>
      <trkpt lat="44.77444" lon="-0.37312">
        <ele>69</ele>
        <time>2013-11-24T16:36:55Z</time>
      </trkpt>
      <trkpt lat="44.77444" lon="-0.3731">
        <ele>69</ele>
        <time>2013-11-24T16:36:59Z</time>
      </trkpt>
      <trkpt lat="44.77445" lon="-0.37308">
        <ele>69</ele>
        <time>2013-11-24T16:37:00Z</time>
      </trkpt>
      <trkpt lat="44.77446" lon="-0.37306">
        <ele>69</ele>
        <time>2013-11-24T16:37:01Z</time>
      </trkpt>
      <trkpt lat="44.77447" lon="-0.37305">
        <ele>69</ele>
        <time>2013-11-24T16:37:02Z</time>
      </trkpt>
      <trkpt lat="44.77448" lon="-0.37302">
        <ele>69</ele>
        <time>2013-11-24T16:37:03Z</time>
      </trkpt>
      <trkpt lat="44.77449" lon="-0.373">
        <ele>69</ele>
        <time>2013-11-24T16:37:04Z</time>
      </trkpt>
      <trkpt lat="44.77451" lon="-0.37298">
        <ele>69</ele>
        <time>2013-11-24T16:37:05Z</time>
      </trkpt>
      <trkpt lat="44.77452" lon="-0.37295">
        <ele>70</ele>
        <time>2013-11-24T16:37:06Z</time>
      </trkpt>
      <trkpt lat="44.77453" lon="-0.37292">
        <ele>70</ele>
        <time>2013-11-24T16:37:07Z</time>
      </trkpt>
      <trkpt lat="44.77454" lon="-0.37289">
        <ele>70</ele>
        <time>2013-11-24T16:37:08Z</time>
      </trkpt>
      <trkpt lat="44.77454" lon="-0.37287">
        <ele>70</ele>
        <time>2013-11-24T16:37:09Z</time>
      </trkpt>
      <trkpt lat="44.77455" lon="-0.37285">
        <ele>70</ele>
        <time>2013-11-24T16:37:10Z</time>
      </trkpt>
      <trkpt lat="44.77464" lon="-0.37267">
        <ele>71</ele>
        <time>2013-11-24T16:37:16Z</time>
      </trkpt>
      <trkpt lat="44.77474" lon="-0.37242">
        <ele>72</ele>
        <time>2013-11-24T16:37:22Z</time>
      </trkpt>
      <trkpt lat="44.77483" lon="-0.37221">
        <ele>73</ele>
        <time>2013-11-24T16:37:26Z</time>
      </trkpt>
      <trkpt lat="44.77485" lon="-0.37215">
        <ele>73</ele>
        <time>2013-11-24T16:37:27Z</time>
      </trkpt>
      <trkpt lat="44.77488" lon="-0.3721">
        <ele>73</ele>
        <time>2013-11-24T16:37:28Z</time>
      </trkpt>
      <trkpt lat="44.77491" lon="-0.37205">
        <ele>74</ele>
        <time>2013-11-24T16:37:29Z</time>
      </trkpt>
      <trkpt lat="44.77494" lon="-0.372">
        <ele>74</ele>
        <time>2013-11-24T16:37:30Z</time>
      </trkpt>
      <trkpt lat="44.77501" lon="-0.37184">
        <ele>75</ele>
        <time>2013-11-24T16:37:33Z</time>
      </trkpt>
      <trkpt lat="44.77503" lon="-0.37177">
        <ele>75</ele>
        <time>2013-11-24T16:37:34Z</time>
      </trkpt>
      <trkpt lat="44.77505" lon="-0.37172">
        <ele>75</ele>
        <time>2013-11-24T16:37:35Z</time>
      </trkpt>
      <trkpt lat="44.7751" lon="-0.3716">
        <ele>76</ele>
        <time>2013-11-24T16:37:37Z</time>
      </trkpt>
      <trkpt lat="44.77515" lon="-0.37144">
        <ele>76</ele>
        <time>2013-11-24T16:37:40Z</time>
      </trkpt>
      <trkpt lat="44.77517" lon="-0.37138">
        <ele>76</ele>
        <time>2013-11-24T16:37:41Z</time>
      </trkpt>
      <trkpt lat="44.77519" lon="-0.37133">
        <ele>76</ele>
        <time>2013-11-24T16:37:42Z</time>
      </trkpt>
      <trkpt lat="44.77521" lon="-0.37129">
        <ele>76</ele>
        <time>2013-11-24T16:37:43Z</time>
      </trkpt>
      <trkpt lat="44.77522" lon="-0.37124">
        <ele>76</ele>
        <time>2013-11-24T16:37:44Z</time>
      </trkpt>
      <trkpt lat="44.77523" lon="-0.37118">
        <ele>76</ele>
        <time>2013-11-24T16:37:45Z</time>
      </trkpt>
      <trkpt lat="44.77524" lon="-0.37113">
        <ele>76</ele>
        <time>2013-11-24T16:37:46Z</time>
      </trkpt>
      <trkpt lat="44.77526" lon="-0.37108">
        <ele>76</ele>
        <time>2013-11-24T16:37:47Z</time>
      </trkpt>
      <trkpt lat="44.77529" lon="-0.37104">
        <ele>76</ele>
        <time>2013-11-24T16:37:48Z</time>
      </trkpt>
      <trkpt lat="44.77531" lon="-0.371">
        <ele>76</ele>
        <time>2013-11-24T16:37:49Z</time>
      </trkpt>
      <trkpt lat="44.77534" lon="-0.37096">
        <ele>77</ele>
        <time>2013-11-24T16:37:50Z</time>
      </trkpt>
      <trkpt lat="44.77545" lon="-0.3708">
        <ele>77</ele>
        <time>2013-11-24T16:37:54Z</time>
      </trkpt>
      <trkpt lat="44.77546" lon="-0.37075">
        <ele>77</ele>
        <time>2013-11-24T16:37:55Z</time>
      </trkpt>
      <trkpt lat="44.77548" lon="-0.3707">
        <ele>77</ele>
        <time>2013-11-24T16:37:56Z</time>
      </trkpt>
      <trkpt lat="44.7755" lon="-0.37064">
        <ele>77</ele>
        <time>2013-11-24T16:37:57Z</time>
      </trkpt>
      <trkpt lat="44.77552" lon="-0.37058">
        <ele>77</ele>
        <time>2013-11-24T16:37:58Z</time>
      </trkpt>
      <trkpt lat="44.77554" lon="-0.37052">
        <ele>77</ele>
        <time>2013-11-24T16:37:59Z</time>
      </trkpt>
      <trkpt lat="44.77556" lon="-0.37047">
        <ele>78</ele>
        <time>2013-11-24T16:38:00Z</time>
      </trkpt>
      <trkpt lat="44.77559" lon="-0.37042">
        <ele>78</ele>
        <time>2013-11-24T16:38:01Z</time>
      </trkpt>
      <trkpt lat="44.77562" lon="-0.37037">
        <ele>78</ele>
        <time>2013-11-24T16:38:02Z</time>
      </trkpt>
      <trkpt lat="44.77564" lon="-0.37031">
        <ele>78</ele>
        <time>2013-11-24T16:38:03Z</time>
      </trkpt>
      <trkpt lat="44.77566" lon="-0.37026">
        <ele>78</ele>
        <time>2013-11-24T16:38:04Z</time>
      </trkpt>
      <trkpt lat="44.77579" lon="-0.36986">
        <ele>77</ele>
        <time>2013-11-24T16:38:11Z</time>
      </trkpt>
      <trkpt lat="44.7758" lon="-0.3698">
        <ele>77</ele>
        <time>2013-11-24T16:38:12Z</time>
      </trkpt>
      <trkpt lat="44.77581" lon="-0.36974">
        <ele>77</ele>
        <time>2013-11-24T16:38:13Z</time>
      </trkpt>
      <trkpt lat="44.77583" lon="-0.36968">
        <ele>77</ele>
        <time>2013-11-24T16:38:14Z</time>
      </trkpt>
      <trkpt lat="44.77585" lon="-0.36962">
        <ele>77</ele>
        <time>2013-11-24T16:38:15Z</time>
      </trkpt>
      <trkpt lat="44.77586" lon="-0.36956">
        <ele>77</ele>
        <time>2013-11-24T16:38:16Z</time>
      </trkpt>
      <trkpt lat="44.77588" lon="-0.3695">
        <ele>77</ele>
        <time>2013-11-24T16:38:17Z</time>
      </trkpt>
      <trkpt lat="44.77597" lon="-0.36923">
        <ele>77</ele>
        <time>2013-11-24T16:38:22Z</time>
      </trkpt>
      <trkpt lat="44.77613" lon="-0.36876">
        <ele>78</ele>
        <time>2013-11-24T16:38:31Z</time>
      </trkpt>
      <trkpt lat="44.77625" lon="-0.36835">
        <ele>78</ele>
        <time>2013-11-24T16:38:39Z</time>
      </trkpt>
      <trkpt lat="44.77635" lon="-0.36783">
        <ele>78</ele>
        <time>2013-11-24T16:38:49Z</time>
      </trkpt>
      <trkpt lat="44.7764" lon="-0.36758">
        <ele>79</ele>
        <time>2013-11-24T16:38:55Z</time>
      </trkpt>
      <trkpt lat="44.77642" lon="-0.36736">
        <ele>79</ele>
        <time>2013-11-24T16:39:02Z</time>
      </trkpt>
      <trkpt lat="44.77642" lon="-0.36734">
        <ele>79</ele>
        <time>2013-11-24T16:39:03Z</time>
      </trkpt>
      <trkpt lat="44.77643" lon="-0.36732">
        <ele>79</ele>
        <time>2013-11-24T16:39:04Z</time>
      </trkpt>
      <trkpt lat="44.77643" lon="-0.3673">
        <ele>79</ele>
        <time>2013-11-24T16:39:05Z</time>
      </trkpt>
      <trkpt lat="44.77645" lon="-0.36722">
        <ele>79</ele>
        <time>2013-11-24T16:39:09Z</time>
      </trkpt>
      <trkpt lat="44.77645" lon="-0.3672">
        <ele>79</ele>
        <time>2013-11-24T16:39:10Z</time>
      </trkpt>
      <trkpt lat="44.77648" lon="-0.36703">
        <ele>80</ele>
        <time>2013-11-24T16:39:17Z</time>
      </trkpt>
      <trkpt lat="44.77648" lon="-0.36701">
        <ele>79</ele>
        <time>2013-11-24T16:39:18Z</time>
      </trkpt>
      <trkpt lat="44.77648" lon="-0.36699">
        <ele>79</ele>
        <time>2013-11-24T16:39:19Z</time>
      </trkpt>
      <trkpt lat="44.77648" lon="-0.36697">
        <ele>79</ele>
        <time>2013-11-24T16:39:20Z</time>
      </trkpt>
      <trkpt lat="44.77648" lon="-0.36694">
        <ele>80</ele>
        <time>2013-11-24T16:39:21Z</time>
      </trkpt>
      <trkpt lat="44.77649" lon="-0.36691">
        <ele>80</ele>
        <time>2013-11-24T16:39:22Z</time>
      </trkpt>
      <trkpt lat="44.77649" lon="-0.36688">
        <ele>80</ele>
        <time>2013-11-24T16:39:23Z</time>
      </trkpt>
      <trkpt lat="44.7765" lon="-0.36685">
        <ele>80</ele>
        <time>2013-11-24T16:39:24Z</time>
      </trkpt>
      <trkpt lat="44.7765" lon="-0.36683">
        <ele>80</ele>
        <time>2013-11-24T16:39:25Z</time>
      </trkpt>
      <trkpt lat="44.7765" lon="-0.3668">
        <ele>80</ele>
        <time>2013-11-24T16:39:26Z</time>
      </trkpt>
      <trkpt lat="44.7765" lon="-0.36678">
        <ele>80</ele>
        <time>2013-11-24T16:39:27Z</time>
      </trkpt>
      <trkpt lat="44.7765" lon="-0.36676">
        <ele>80</ele>
        <time>2013-11-24T16:39:28Z</time>
      </trkpt>
      <trkpt lat="44.7765" lon="-0.36674">
        <ele>80</ele>
        <time>2013-11-24T16:39:29Z</time>
      </trkpt>
      <trkpt lat="44.77651" lon="-0.36672">
        <ele>80</ele>
        <time>2013-11-24T16:39:30Z</time>
      </trkpt>
      <trkpt lat="44.77651" lon="-0.3667">
        <ele>80</ele>
        <time>2013-11-24T16:39:31Z</time>
      </trkpt>
      <trkpt lat="44.77651" lon="-0.36668">
        <ele>80</ele>
        <time>2013-11-24T16:39:32Z</time>
      </trkpt>
      <trkpt lat="44.77653" lon="-0.36648">
        <ele>80</ele>
        <time>2013-11-24T16:39:39Z</time>
      </trkpt>
      <trkpt lat="44.77654" lon="-0.36622">
        <ele>81</ele>
        <time>2013-11-24T16:39:47Z</time>
      </trkpt>
      <trkpt lat="44.77658" lon="-0.36596">
        <ele>81</ele>
        <time>2013-11-24T16:39:53Z</time>
      </trkpt>
      <trkpt lat="44.77663" lon="-0.36548">
        <ele>82</ele>
        <time>2013-11-24T16:40:03Z</time>
      </trkpt>
      <trkpt lat="44.77665" lon="-0.36514">
        <ele>82</ele>
        <time>2013-11-24T16:40:10Z</time>
      </trkpt>
      <trkpt lat="44.77667" lon="-0.36489">
        <ele>82</ele>
        <time>2013-11-24T16:40:15Z</time>
      </trkpt>
      <trkpt lat="44.77673" lon="-0.36442">
        <ele>80</ele>
        <time>2013-11-24T16:40:24Z</time>
      </trkpt>
      <trkpt lat="44.77678" lon="-0.36399">
        <ele>78</ele>
        <time>2013-11-24T16:40:32Z</time>
      </trkpt>
      <trkpt lat="44.77685" lon="-0.36351">
        <ele>78</ele>
        <time>2013-11-24T16:40:41Z</time>
      </trkpt>
      <trkpt lat="44.7769" lon="-0.36302">
        <ele>79</ele>
        <time>2013-11-24T16:40:50Z</time>
      </trkpt>
      <trkpt lat="44.77695" lon="-0.36255">
        <ele>82</ele>
        <time>2013-11-24T16:40:59Z</time>
      </trkpt>
      <trkpt lat="44.77697" lon="-0.3622">
        <ele>83</ele>
        <time>2013-11-24T16:41:06Z</time>
      </trkpt>
      <trkpt lat="44.77701" lon="-0.36184">
        <ele>85</ele>
        <time>2013-11-24T16:41:13Z</time>
      </trkpt>
      <trkpt lat="44.77705" lon="-0.36135">
        <ele>82</ele>
        <time>2013-11-24T16:41:23Z</time>
      </trkpt>
      <trkpt lat="44.77707" lon="-0.36111">
        <ele>82</ele>
        <time>2013-11-24T16:41:30Z</time>
      </trkpt>
      <trkpt lat="44.77708" lon="-0.36097">
        <ele>83</ele>
        <time>2013-11-24T16:41:37Z</time>
      </trkpt>
      <trkpt lat="44.77708" lon="-0.36094">
        <ele>83</ele>
        <time>2013-11-24T16:41:38Z</time>
      </trkpt>
      <trkpt lat="44.77708" lon="-0.36092">
        <ele>83</ele>
        <time>2013-11-24T16:41:39Z</time>
      </trkpt>
      <trkpt lat="44.77708" lon="-0.3609">
        <ele>83</ele>
        <time>2013-11-24T16:41:40Z</time>
      </trkpt>
      <trkpt lat="44.77708" lon="-0.36088">
        <ele>83</ele>
        <time>2013-11-24T16:41:41Z</time>
      </trkpt>
      <trkpt lat="44.77708" lon="-0.36086">
        <ele>83</ele>
        <time>2013-11-24T16:41:42Z</time>
      </trkpt>
      <trkpt lat="44.77708" lon="-0.36084">
        <ele>83</ele>
        <time>2013-11-24T16:41:43Z</time>
      </trkpt>
      <trkpt lat="44.77707" lon="-0.36082">
        <ele>83</ele>
        <time>2013-11-24T16:41:44Z</time>
      </trkpt>
      <trkpt lat="44.77707" lon="-0.3608">
        <ele>83</ele>
        <time>2013-11-24T16:41:45Z</time>
      </trkpt>
      <trkpt lat="44.77706" lon="-0.36078">
        <ele>84</ele>
        <time>2013-11-24T16:41:46Z</time>
      </trkpt>
      <trkpt lat="44.77706" lon="-0.36074">
        <ele>84</ele>
        <time>2013-11-24T16:41:47Z</time>
      </trkpt>
      <trkpt lat="44.77705" lon="-0.36071">
        <ele>84</ele>
        <time>2013-11-24T16:41:48Z</time>
      </trkpt>
      <trkpt lat="44.77705" lon="-0.36067">
        <ele>84</ele>
        <time>2013-11-24T16:41:49Z</time>
      </trkpt>
      <trkpt lat="44.77704" lon="-0.36063">
        <ele>84</ele>
        <time>2013-11-24T16:41:50Z</time>
      </trkpt>
      <trkpt lat="44.77703" lon="-0.36057">
        <ele>84</ele>
        <time>2013-11-24T16:41:51Z</time>
      </trkpt>
      <trkpt lat="44.77696" lon="-0.36021">
        <ele>87</ele>
        <time>2013-11-24T16:41:57Z</time>
      </trkpt>
      <trkpt lat="44.77685" lon="-0.35968">
        <ele>90</ele>
        <time>2013-11-24T16:42:04Z</time>
      </trkpt>
      <trkpt lat="44.7768" lon="-0.35945">
        <ele>90</ele>
        <time>2013-11-24T16:42:07Z</time>
      </trkpt>
      <trkpt lat="44.77668" lon="-0.35897">
        <ele>90</ele>
        <time>2013-11-24T16:42:14Z</time>
      </trkpt>
      <trkpt lat="44.77656" lon="-0.35842">
        <ele>91</ele>
        <time>2013-11-24T16:42:24Z</time>
      </trkpt>
      <trkpt lat="44.77642" lon="-0.35779">
        <ele>92</ele>
        <time>2013-11-24T16:42:36Z</time>
      </trkpt>
      <trkpt lat="44.7763" lon="-0.35732">
        <ele>93</ele>
        <time>2013-11-24T16:42:45Z</time>
      </trkpt>
      <trkpt lat="44.77618" lon="-0.35679">
        <ele>93</ele>
        <time>2013-11-24T16:42:55Z</time>
      </trkpt>
      <trkpt lat="44.77611" lon="-0.35634">
        <ele>91</ele>
        <time>2013-11-24T16:43:03Z</time>
      </trkpt>
      <trkpt lat="44.77609" lon="-0.35616">
        <ele>91</ele>
        <time>2013-11-24T16:43:06Z</time>
      </trkpt>
      <trkpt lat="44.77608" lon="-0.35582">
        <ele>90</ele>
        <time>2013-11-24T16:43:12Z</time>
      </trkpt>
      <trkpt lat="44.77608" lon="-0.35533">
        <ele>90</ele>
        <time>2013-11-24T16:43:21Z</time>
      </trkpt>
      <trkpt lat="44.77607" lon="-0.35484">
        <ele>90</ele>
        <time>2013-11-24T16:43:30Z</time>
      </trkpt>
      <trkpt lat="44.77608" lon="-0.35451">
        <ele>90</ele>
        <time>2013-11-24T16:43:37Z</time>
      </trkpt>
      <trkpt lat="44.77608" lon="-0.35415">
        <ele>91</ele>
        <time>2013-11-24T16:43:44Z</time>
      </trkpt>
      <trkpt lat="44.77608" lon="-0.35382">
        <ele>92</ele>
        <time>2013-11-24T16:43:51Z</time>
      </trkpt>
      <trkpt lat="44.77607" lon="-0.35353">
        <ele>92</ele>
        <time>2013-11-24T16:43:57Z</time>
      </trkpt>
      <trkpt lat="44.77607" lon="-0.35317">
        <ele>94</ele>
        <time>2013-11-24T16:44:04Z</time>
      </trkpt>
      <trkpt lat="44.77606" lon="-0.35282">
        <ele>94</ele>
        <time>2013-11-24T16:44:11Z</time>
      </trkpt>
      <trkpt lat="44.77604" lon="-0.35224">
        <ele>95</ele>
        <time>2013-11-24T16:44:23Z</time>
      </trkpt>
      <trkpt lat="44.77603" lon="-0.35196">
        <ele>95</ele>
        <time>2013-11-24T16:44:29Z</time>
      </trkpt>
      <trkpt lat="44.77603" lon="-0.3516">
        <ele>95</ele>
        <time>2013-11-24T16:44:37Z</time>
      </trkpt>
      <trkpt lat="44.77603" lon="-0.35135">
        <ele>95</ele>
        <time>2013-11-24T16:44:44Z</time>
      </trkpt>
      <trkpt lat="44.77605" lon="-0.3512">
        <ele>95</ele>
        <time>2013-11-24T16:44:50Z</time>
      </trkpt>
      <trkpt lat="44.77605" lon="-0.35119">
        <ele>95</ele>
        <time>2013-11-24T16:44:51Z</time>
      </trkpt>
      <trkpt lat="44.77604" lon="-0.35117">
        <ele>95</ele>
        <time>2013-11-24T16:44:52Z</time>
      </trkpt>
      <trkpt lat="44.77603" lon="-0.35115">
        <ele>95</ele>
        <time>2013-11-24T16:44:53Z</time>
      </trkpt>
      <trkpt lat="44.77603" lon="-0.35112">
        <ele>94</ele>
        <time>2013-11-24T16:44:54Z</time>
      </trkpt>
      <trkpt lat="44.77605" lon="-0.35108">
        <ele>95</ele>
        <time>2013-11-24T16:44:55Z</time>
      </trkpt>
      <trkpt lat="44.77606" lon="-0.35105">
        <ele>95</ele>
        <time>2013-11-24T16:44:56Z</time>
      </trkpt>
      <trkpt lat="44.77613" lon="-0.35083">
        <ele>95</ele>
        <time>2013-11-24T16:45:02Z</time>
      </trkpt>
      <trkpt lat="44.77618" lon="-0.35053">
        <ele>96</ele>
        <time>2013-11-24T16:45:09Z</time>
      </trkpt>
      <trkpt lat="44.77624" lon="-0.35021">
        <ele>96</ele>
        <time>2013-11-24T16:45:17Z</time>
      </trkpt>
      <trkpt lat="44.77625" lon="-0.34995">
        <ele>96</ele>
        <time>2013-11-24T16:45:24Z</time>
      </trkpt>
      <trkpt lat="44.77629" lon="-0.34974">
        <ele>96</ele>
        <time>2013-11-24T16:45:30Z</time>
      </trkpt>
    </trkseg>
  </trk>
</gpx>